<?xml version="1.0" encoding="UTF-8" standalone="no" ?>
<gpx xmlns="http://www.topografix.com/GPX/1/1" xmlns:xsi="http://www.w3.org/2001/XMLSchema-instance" xsi:schemaLocation="http://www.topografix.com/GPX/1/1 http://www.topografix.com/GPX/1/1/gpx.xsd" version="1.1" creator="VisuGPX - https://www.visugpx.com">
  <metadata>
    <name>Saint Julien - Aiguèze</name>
    <desc><![CDATA[De Saint Julien à Aiguèze par Boissonnade]]></desc>
  </metadata>
  <trk>
    <name><![CDATA[366 Derrière le Pied]]></name>
    <desc><![CDATA[]]></desc>
    <trkseg>
      <trkpt lat="44.28252" lon="4.56245">
        <ele>174</ele>
        <time>2016-07-25T10:36:49.454Z</time>
      </trkpt>
      <trkpt lat="44.28259" lon="4.56249">
        <ele>175</ele>
        <time>2016-07-25T10:37:07.000Z</time>
      </trkpt>
      <trkpt lat="44.28261" lon="4.56249">
        <ele>174</ele>
        <time>2016-07-25T10:37:08.000Z</time>
      </trkpt>
      <trkpt lat="44.28269" lon="4.56249">
        <ele>174</ele>
        <time>2016-07-25T10:37:12.000Z</time>
      </trkpt>
      <trkpt lat="44.28271" lon="4.56248">
        <ele>173</ele>
        <time>2016-07-25T10:37:13.000Z</time>
      </trkpt>
      <trkpt lat="44.2828" lon="4.56249">
        <ele>175</ele>
        <time>2016-07-25T10:37:17.000Z</time>
      </trkpt>
      <trkpt lat="44.28282" lon="4.5625">
        <ele>175</ele>
        <time>2016-07-25T10:37:18.000Z</time>
      </trkpt>
      <trkpt lat="44.2829" lon="4.5625">
        <ele>175</ele>
        <time>2016-07-25T10:37:21.000Z</time>
      </trkpt>
      <trkpt lat="44.28292" lon="4.56249">
        <ele>175</ele>
        <time>2016-07-25T10:37:22.000Z</time>
      </trkpt>
      <trkpt lat="44.28298" lon="4.56251">
        <ele>176</ele>
        <time>2016-07-25T10:37:25.000Z</time>
      </trkpt>
      <trkpt lat="44.28301" lon="4.56251">
        <ele>176</ele>
        <time>2016-07-25T10:37:26.000Z</time>
      </trkpt>
      <trkpt lat="44.28308" lon="4.56252">
        <ele>177</ele>
        <time>2016-07-25T10:37:29.000Z</time>
      </trkpt>
      <trkpt lat="44.28311" lon="4.56253">
        <ele>178</ele>
        <time>2016-07-25T10:37:30.000Z</time>
      </trkpt>
      <trkpt lat="44.28318" lon="4.56253">
        <ele>178</ele>
        <time>2016-07-25T10:37:33.000Z</time>
      </trkpt>
      <trkpt lat="44.2832" lon="4.56253">
        <ele>178</ele>
        <time>2016-07-25T10:37:34.000Z</time>
      </trkpt>
      <trkpt lat="44.28329" lon="4.56254">
        <ele>179</ele>
        <time>2016-07-25T10:37:37.000Z</time>
      </trkpt>
      <trkpt lat="44.28332" lon="4.56258">
        <ele>179</ele>
        <time>2016-07-25T10:37:38.000Z</time>
      </trkpt>
      <trkpt lat="44.28337" lon="4.56265">
        <ele>177</ele>
        <time>2016-07-25T10:37:41.000Z</time>
      </trkpt>
      <trkpt lat="44.28339" lon="4.56268">
        <ele>176</ele>
        <time>2016-07-25T10:37:42.000Z</time>
      </trkpt>
      <trkpt lat="44.28344" lon="4.56273">
        <ele>175</ele>
        <time>2016-07-25T10:37:44.000Z</time>
      </trkpt>
      <trkpt lat="44.28347" lon="4.56275">
        <ele>174</ele>
        <time>2016-07-25T10:37:45.000Z</time>
      </trkpt>
      <trkpt lat="44.28353" lon="4.56283">
        <ele>173</ele>
        <time>2016-07-25T10:37:47.000Z</time>
      </trkpt>
      <trkpt lat="44.28357" lon="4.56285">
        <ele>172</ele>
        <time>2016-07-25T10:37:48.000Z</time>
      </trkpt>
      <trkpt lat="44.28363" lon="4.56292">
        <ele>172</ele>
        <time>2016-07-25T10:37:50.000Z</time>
      </trkpt>
      <trkpt lat="44.28366" lon="4.56295">
        <ele>172</ele>
        <time>2016-07-25T10:37:51.000Z</time>
      </trkpt>
      <trkpt lat="44.28371" lon="4.56302">
        <ele>172</ele>
        <time>2016-07-25T10:37:53.000Z</time>
      </trkpt>
      <trkpt lat="44.28374" lon="4.56306">
        <ele>171</ele>
        <time>2016-07-25T10:37:54.000Z</time>
      </trkpt>
      <trkpt lat="44.28379" lon="4.56311">
        <ele>170</ele>
        <time>2016-07-25T10:37:56.000Z</time>
      </trkpt>
      <trkpt lat="44.28382" lon="4.56315">
        <ele>170</ele>
        <time>2016-07-25T10:37:57.000Z</time>
      </trkpt>
      <trkpt lat="44.28387" lon="4.56323">
        <ele>171</ele>
        <time>2016-07-25T10:37:59.000Z</time>
      </trkpt>
      <trkpt lat="44.2839" lon="4.56326">
        <ele>171</ele>
        <time>2016-07-25T10:38:00.000Z</time>
      </trkpt>
      <trkpt lat="44.28397" lon="4.56334">
        <ele>170</ele>
        <time>2016-07-25T10:38:03.000Z</time>
      </trkpt>
      <trkpt lat="44.28399" lon="4.56337">
        <ele>170</ele>
        <time>2016-07-25T10:38:04.000Z</time>
      </trkpt>
      <trkpt lat="44.28406" lon="4.56342">
        <ele>170</ele>
        <time>2016-07-25T10:38:06.000Z</time>
      </trkpt>
      <trkpt lat="44.28409" lon="4.56345">
        <ele>171</ele>
        <time>2016-07-25T10:38:07.000Z</time>
      </trkpt>
      <trkpt lat="44.28415" lon="4.56354">
        <ele>172</ele>
        <time>2016-07-25T10:38:09.000Z</time>
      </trkpt>
      <trkpt lat="44.28418" lon="4.56357">
        <ele>171</ele>
        <time>2016-07-25T10:38:10.000Z</time>
      </trkpt>
      <trkpt lat="44.28423" lon="4.56365">
        <ele>171</ele>
        <time>2016-07-25T10:38:12.000Z</time>
      </trkpt>
      <trkpt lat="44.28426" lon="4.56367">
        <ele>172</ele>
        <time>2016-07-25T10:38:13.000Z</time>
      </trkpt>
      <trkpt lat="44.28433" lon="4.56375">
        <ele>172</ele>
        <time>2016-07-25T10:38:16.000Z</time>
      </trkpt>
      <trkpt lat="44.28434" lon="4.56378">
        <ele>172</ele>
        <time>2016-07-25T10:38:17.000Z</time>
      </trkpt>
      <trkpt lat="44.2844" lon="4.56385">
        <ele>172</ele>
        <time>2016-07-25T10:38:20.000Z</time>
      </trkpt>
      <trkpt lat="44.28443" lon="4.56388">
        <ele>173</ele>
        <time>2016-07-25T10:38:21.000Z</time>
      </trkpt>
      <trkpt lat="44.28448" lon="4.56397">
        <ele>173</ele>
        <time>2016-07-25T10:38:24.000Z</time>
      </trkpt>
      <trkpt lat="44.2845" lon="4.56399">
        <ele>173</ele>
        <time>2016-07-25T10:38:25.000Z</time>
      </trkpt>
      <trkpt lat="44.28456" lon="4.56406">
        <ele>173</ele>
        <time>2016-07-25T10:38:28.000Z</time>
      </trkpt>
      <trkpt lat="44.28458" lon="4.56409">
        <ele>174</ele>
        <time>2016-07-25T10:38:29.000Z</time>
      </trkpt>
      <trkpt lat="44.28463" lon="4.56413">
        <ele>176</ele>
        <time>2016-07-25T10:38:31.000Z</time>
      </trkpt>
      <trkpt lat="44.28465" lon="4.56416">
        <ele>177</ele>
        <time>2016-07-25T10:38:32.000Z</time>
      </trkpt>
      <trkpt lat="44.28472" lon="4.56422">
        <ele>178</ele>
        <time>2016-07-25T10:38:36.000Z</time>
      </trkpt>
      <trkpt lat="44.28473" lon="4.56423">
        <ele>178</ele>
        <time>2016-07-25T10:38:37.000Z</time>
      </trkpt>
      <trkpt lat="44.28481" lon="4.56425">
        <ele>178</ele>
        <time>2016-07-25T10:38:41.000Z</time>
      </trkpt>
      <trkpt lat="44.28483" lon="4.56425">
        <ele>179</ele>
        <time>2016-07-25T10:38:42.000Z</time>
      </trkpt>
      <trkpt lat="44.2849" lon="4.56423">
        <ele>178</ele>
        <time>2016-07-25T10:38:46.000Z</time>
      </trkpt>
      <trkpt lat="44.28493" lon="4.56422">
        <ele>177</ele>
        <time>2016-07-25T10:38:47.000Z</time>
      </trkpt>
      <trkpt lat="44.285" lon="4.56415">
        <ele>180</ele>
        <time>2016-07-25T10:38:51.000Z</time>
      </trkpt>
      <trkpt lat="44.28503" lon="4.56414">
        <ele>181</ele>
        <time>2016-07-25T10:38:52.000Z</time>
      </trkpt>
      <trkpt lat="44.2851" lon="4.56408">
        <ele>183</ele>
        <time>2016-07-25T10:38:55.000Z</time>
      </trkpt>
      <trkpt lat="44.28512" lon="4.56405">
        <ele>184</ele>
        <time>2016-07-25T10:38:56.000Z</time>
      </trkpt>
      <trkpt lat="44.28514" lon="4.56396">
        <ele>185</ele>
        <time>2016-07-25T10:38:59.000Z</time>
      </trkpt>
      <trkpt lat="44.28516" lon="4.56394">
        <ele>186</ele>
        <time>2016-07-25T10:39:00.000Z</time>
      </trkpt>
      <trkpt lat="44.2852" lon="4.56385">
        <ele>186</ele>
        <time>2016-07-25T10:39:03.000Z</time>
      </trkpt>
      <trkpt lat="44.2852" lon="4.56379">
        <ele>187</ele>
        <time>2016-07-25T10:39:04.000Z</time>
      </trkpt>
      <trkpt lat="44.28523" lon="4.5637">
        <ele>186</ele>
        <time>2016-07-25T10:39:07.000Z</time>
      </trkpt>
      <trkpt lat="44.28524" lon="4.56367">
        <ele>187</ele>
        <time>2016-07-25T10:39:08.000Z</time>
      </trkpt>
      <trkpt lat="44.28525" lon="4.56358">
        <ele>186</ele>
        <time>2016-07-25T10:39:11.000Z</time>
      </trkpt>
      <trkpt lat="44.28525" lon="4.56355">
        <ele>186</ele>
        <time>2016-07-25T10:39:12.000Z</time>
      </trkpt>
      <trkpt lat="44.28526" lon="4.56345">
        <ele>185</ele>
        <time>2016-07-25T10:39:15.000Z</time>
      </trkpt>
      <trkpt lat="44.28526" lon="4.56341">
        <ele>185</ele>
        <time>2016-07-25T10:39:16.000Z</time>
      </trkpt>
      <trkpt lat="44.28525" lon="4.5633">
        <ele>183</ele>
        <time>2016-07-25T10:39:20.000Z</time>
      </trkpt>
      <trkpt lat="44.28525" lon="4.56327">
        <ele>183</ele>
        <time>2016-07-25T10:39:21.000Z</time>
      </trkpt>
      <trkpt lat="44.28522" lon="4.56319">
        <ele>183</ele>
        <time>2016-07-25T10:39:24.000Z</time>
      </trkpt>
      <trkpt lat="44.28519" lon="4.56315">
        <ele>183</ele>
        <time>2016-07-25T10:39:25.000Z</time>
      </trkpt>
      <trkpt lat="44.28514" lon="4.56308">
        <ele>184</ele>
        <time>2016-07-25T10:39:27.000Z</time>
      </trkpt>
      <trkpt lat="44.28513" lon="4.56306">
        <ele>184</ele>
        <time>2016-07-25T10:39:28.000Z</time>
      </trkpt>
      <trkpt lat="44.28507" lon="4.56301">
        <ele>183</ele>
        <time>2016-07-25T10:39:30.000Z</time>
      </trkpt>
      <trkpt lat="44.28505" lon="4.563">
        <ele>182</ele>
        <time>2016-07-25T10:39:31.000Z</time>
      </trkpt>
      <trkpt lat="44.28498" lon="4.56293">
        <ele>182</ele>
        <time>2016-07-25T10:39:34.000Z</time>
      </trkpt>
      <trkpt lat="44.28496" lon="4.5629">
        <ele>182</ele>
        <time>2016-07-25T10:39:35.000Z</time>
      </trkpt>
      <trkpt lat="44.28489" lon="4.56284">
        <ele>181</ele>
        <time>2016-07-25T10:39:38.000Z</time>
      </trkpt>
      <trkpt lat="44.28487" lon="4.56282">
        <ele>181</ele>
        <time>2016-07-25T10:39:39.000Z</time>
      </trkpt>
      <trkpt lat="44.2848" lon="4.56275">
        <ele>181</ele>
        <time>2016-07-25T10:39:42.000Z</time>
      </trkpt>
      <trkpt lat="44.28478" lon="4.56273">
        <ele>180</ele>
        <time>2016-07-25T10:39:43.000Z</time>
      </trkpt>
      <trkpt lat="44.28471" lon="4.56266">
        <ele>180</ele>
        <time>2016-07-25T10:39:46.000Z</time>
      </trkpt>
      <trkpt lat="44.28469" lon="4.56264">
        <ele>180</ele>
        <time>2016-07-25T10:39:47.000Z</time>
      </trkpt>
      <trkpt lat="44.28462" lon="4.56257">
        <ele>180</ele>
        <time>2016-07-25T10:39:50.000Z</time>
      </trkpt>
      <trkpt lat="44.28459" lon="4.56254">
        <ele>180</ele>
        <time>2016-07-25T10:39:51.000Z</time>
      </trkpt>
      <trkpt lat="44.28454" lon="4.56249">
        <ele>179</ele>
        <time>2016-07-25T10:39:53.000Z</time>
      </trkpt>
      <trkpt lat="44.28452" lon="4.56247">
        <ele>179</ele>
        <time>2016-07-25T10:39:54.000Z</time>
      </trkpt>
      <trkpt lat="44.28447" lon="4.56242">
        <ele>179</ele>
        <time>2016-07-25T10:39:56.000Z</time>
      </trkpt>
      <trkpt lat="44.28444" lon="4.5624">
        <ele>179</ele>
        <time>2016-07-25T10:39:57.000Z</time>
      </trkpt>
      <trkpt lat="44.28439" lon="4.56234">
        <ele>179</ele>
        <time>2016-07-25T10:39:59.000Z</time>
      </trkpt>
      <trkpt lat="44.28437" lon="4.56231">
        <ele>180</ele>
        <time>2016-07-25T10:40:00.000Z</time>
      </trkpt>
      <trkpt lat="44.28432" lon="4.56226">
        <ele>180</ele>
        <time>2016-07-25T10:40:02.000Z</time>
      </trkpt>
      <trkpt lat="44.2843" lon="4.56223">
        <ele>179</ele>
        <time>2016-07-25T10:40:03.000Z</time>
      </trkpt>
      <trkpt lat="44.28422" lon="4.56216">
        <ele>178</ele>
        <time>2016-07-25T10:40:06.000Z</time>
      </trkpt>
      <trkpt lat="44.2842" lon="4.56214">
        <ele>178</ele>
        <time>2016-07-25T10:40:07.000Z</time>
      </trkpt>
      <trkpt lat="44.28413" lon="4.56207">
        <ele>178</ele>
        <time>2016-07-25T10:40:10.000Z</time>
      </trkpt>
      <trkpt lat="44.2841" lon="4.56205">
        <ele>178</ele>
        <time>2016-07-25T10:40:11.000Z</time>
      </trkpt>
      <trkpt lat="44.28404" lon="4.56198">
        <ele>178</ele>
        <time>2016-07-25T10:40:14.000Z</time>
      </trkpt>
      <trkpt lat="44.28402" lon="4.56195">
        <ele>178</ele>
        <time>2016-07-25T10:40:15.000Z</time>
      </trkpt>
      <trkpt lat="44.28395" lon="4.56189">
        <ele>178</ele>
        <time>2016-07-25T10:40:18.000Z</time>
      </trkpt>
      <trkpt lat="44.28393" lon="4.56187">
        <ele>178</ele>
        <time>2016-07-25T10:40:19.000Z</time>
      </trkpt>
      <trkpt lat="44.28387" lon="4.5618">
        <ele>178</ele>
        <time>2016-07-25T10:40:22.000Z</time>
      </trkpt>
      <trkpt lat="44.28385" lon="4.56178">
        <ele>178</ele>
        <time>2016-07-25T10:40:23.000Z</time>
      </trkpt>
      <trkpt lat="44.28379" lon="4.56172">
        <ele>178</ele>
        <time>2016-07-25T10:40:26.000Z</time>
      </trkpt>
      <trkpt lat="44.28377" lon="4.5617">
        <ele>178</ele>
        <time>2016-07-25T10:40:27.000Z</time>
      </trkpt>
      <trkpt lat="44.28372" lon="4.56164">
        <ele>178</ele>
        <time>2016-07-25T10:40:30.000Z</time>
      </trkpt>
      <trkpt lat="44.28369" lon="4.56163">
        <ele>177</ele>
        <time>2016-07-25T10:40:31.000Z</time>
      </trkpt>
      <trkpt lat="44.28363" lon="4.56154">
        <ele>178</ele>
        <time>2016-07-25T10:40:35.000Z</time>
      </trkpt>
      <trkpt lat="44.28362" lon="4.56151">
        <ele>178</ele>
        <time>2016-07-25T10:40:36.000Z</time>
      </trkpt>
      <trkpt lat="44.28356" lon="4.56145">
        <ele>179</ele>
        <time>2016-07-25T10:40:39.000Z</time>
      </trkpt>
      <trkpt lat="44.28354" lon="4.56143">
        <ele>179</ele>
        <time>2016-07-25T10:40:40.000Z</time>
      </trkpt>
      <trkpt lat="44.28349" lon="4.56136">
        <ele>180</ele>
        <time>2016-07-25T10:40:43.000Z</time>
      </trkpt>
      <trkpt lat="44.28347" lon="4.56134">
        <ele>180</ele>
        <time>2016-07-25T10:40:44.000Z</time>
      </trkpt>
      <trkpt lat="44.28342" lon="4.56128">
        <ele>180</ele>
        <time>2016-07-25T10:40:47.000Z</time>
      </trkpt>
      <trkpt lat="44.2834" lon="4.56127">
        <ele>179</ele>
        <time>2016-07-25T10:40:48.000Z</time>
      </trkpt>
      <trkpt lat="44.28335" lon="4.5612">
        <ele>180</ele>
        <time>2016-07-25T10:40:51.000Z</time>
      </trkpt>
      <trkpt lat="44.28332" lon="4.56118">
        <ele>180</ele>
        <time>2016-07-25T10:40:52.000Z</time>
      </trkpt>
      <trkpt lat="44.28325" lon="4.56111">
        <ele>181</ele>
        <time>2016-07-25T10:40:56.000Z</time>
      </trkpt>
      <trkpt lat="44.28323" lon="4.56109">
        <ele>181</ele>
        <time>2016-07-25T10:40:57.000Z</time>
      </trkpt>
      <trkpt lat="44.28318" lon="4.56099">
        <ele>182</ele>
        <time>2016-07-25T10:41:01.000Z</time>
      </trkpt>
      <trkpt lat="44.28316" lon="4.56097">
        <ele>182</ele>
        <time>2016-07-25T10:41:02.000Z</time>
      </trkpt>
      <trkpt lat="44.2831" lon="4.5609">
        <ele>182</ele>
        <time>2016-07-25T10:41:05.000Z</time>
      </trkpt>
      <trkpt lat="44.28309" lon="4.56088">
        <ele>182</ele>
        <time>2016-07-25T10:41:06.000Z</time>
      </trkpt>
      <trkpt lat="44.28303" lon="4.56083">
        <ele>182</ele>
        <time>2016-07-25T10:41:09.000Z</time>
      </trkpt>
      <trkpt lat="44.28302" lon="4.5608">
        <ele>182</ele>
        <time>2016-07-25T10:41:10.000Z</time>
      </trkpt>
      <trkpt lat="44.28297" lon="4.56074">
        <ele>183</ele>
        <time>2016-07-25T10:41:13.000Z</time>
      </trkpt>
      <trkpt lat="44.28295" lon="4.56072">
        <ele>183</ele>
        <time>2016-07-25T10:41:14.000Z</time>
      </trkpt>
      <trkpt lat="44.2829" lon="4.56065">
        <ele>183</ele>
        <time>2016-07-25T10:41:17.000Z</time>
      </trkpt>
      <trkpt lat="44.28289" lon="4.56062">
        <ele>183</ele>
        <time>2016-07-25T10:41:18.000Z</time>
      </trkpt>
      <trkpt lat="44.28284" lon="4.56055">
        <ele>183</ele>
        <time>2016-07-25T10:41:21.000Z</time>
      </trkpt>
      <trkpt lat="44.28282" lon="4.56053">
        <ele>183</ele>
        <time>2016-07-25T10:41:22.000Z</time>
      </trkpt>
      <trkpt lat="44.28276" lon="4.56044">
        <ele>184</ele>
        <time>2016-07-25T10:41:26.000Z</time>
      </trkpt>
      <trkpt lat="44.28274" lon="4.56042">
        <ele>184</ele>
        <time>2016-07-25T10:41:27.000Z</time>
      </trkpt>
      <trkpt lat="44.28269" lon="4.56035">
        <ele>184</ele>
        <time>2016-07-25T10:41:30.000Z</time>
      </trkpt>
      <trkpt lat="44.28267" lon="4.56032">
        <ele>184</ele>
        <time>2016-07-25T10:41:31.000Z</time>
      </trkpt>
      <trkpt lat="44.28261" lon="4.56023">
        <ele>184</ele>
        <time>2016-07-25T10:41:35.000Z</time>
      </trkpt>
      <trkpt lat="44.2826" lon="4.5602">
        <ele>184</ele>
        <time>2016-07-25T10:41:36.000Z</time>
      </trkpt>
      <trkpt lat="44.28254" lon="4.56011">
        <ele>185</ele>
        <time>2016-07-25T10:41:40.000Z</time>
      </trkpt>
      <trkpt lat="44.28251" lon="4.56009">
        <ele>186</ele>
        <time>2016-07-25T10:41:41.000Z</time>
      </trkpt>
      <trkpt lat="44.28245" lon="4.56004">
        <ele>186</ele>
        <time>2016-07-25T10:41:44.000Z</time>
      </trkpt>
      <trkpt lat="44.28243" lon="4.56003">
        <ele>187</ele>
        <time>2016-07-25T10:41:45.000Z</time>
      </trkpt>
      <trkpt lat="44.28236" lon="4.55998">
        <ele>188</ele>
        <time>2016-07-25T10:41:49.000Z</time>
      </trkpt>
      <trkpt lat="44.28234" lon="4.55997">
        <ele>188</ele>
        <time>2016-07-25T10:41:50.000Z</time>
      </trkpt>
      <trkpt lat="44.28226" lon="4.55993">
        <ele>188</ele>
        <time>2016-07-25T10:41:54.000Z</time>
      </trkpt>
      <trkpt lat="44.28224" lon="4.55991">
        <ele>188</ele>
        <time>2016-07-25T10:41:55.000Z</time>
      </trkpt>
      <trkpt lat="44.28216" lon="4.55988">
        <ele>187</ele>
        <time>2016-07-25T10:41:59.000Z</time>
      </trkpt>
      <trkpt lat="44.28215" lon="4.55987">
        <ele>187</ele>
        <time>2016-07-25T10:42:00.000Z</time>
      </trkpt>
      <trkpt lat="44.28208" lon="4.55982">
        <ele>188</ele>
        <time>2016-07-25T10:42:03.000Z</time>
      </trkpt>
      <trkpt lat="44.28206" lon="4.55981">
        <ele>189</ele>
        <time>2016-07-25T10:42:04.000Z</time>
      </trkpt>
      <trkpt lat="44.28198" lon="4.55976">
        <ele>190</ele>
        <time>2016-07-25T10:42:08.000Z</time>
      </trkpt>
      <trkpt lat="44.28196" lon="4.55974">
        <ele>190</ele>
        <time>2016-07-25T10:42:09.000Z</time>
      </trkpt>
      <trkpt lat="44.2819" lon="4.5597">
        <ele>190</ele>
        <time>2016-07-25T10:42:12.000Z</time>
      </trkpt>
      <trkpt lat="44.28187" lon="4.55969">
        <ele>191</ele>
        <time>2016-07-25T10:42:13.000Z</time>
      </trkpt>
      <trkpt lat="44.2818" lon="4.55965">
        <ele>192</ele>
        <time>2016-07-25T10:42:16.000Z</time>
      </trkpt>
      <trkpt lat="44.28178" lon="4.55964">
        <ele>192</ele>
        <time>2016-07-25T10:42:17.000Z</time>
      </trkpt>
      <trkpt lat="44.28171" lon="4.5596">
        <ele>193</ele>
        <time>2016-07-25T10:42:20.000Z</time>
      </trkpt>
      <trkpt lat="44.28169" lon="4.55959">
        <ele>193</ele>
        <time>2016-07-25T10:42:21.000Z</time>
      </trkpt>
      <trkpt lat="44.28162" lon="4.55954">
        <ele>194</ele>
        <time>2016-07-25T10:42:24.000Z</time>
      </trkpt>
      <trkpt lat="44.2816" lon="4.55953">
        <ele>194</ele>
        <time>2016-07-25T10:42:25.000Z</time>
      </trkpt>
      <trkpt lat="44.28154" lon="4.55948">
        <ele>194</ele>
        <time>2016-07-25T10:42:28.000Z</time>
      </trkpt>
      <trkpt lat="44.28152" lon="4.55947">
        <ele>194</ele>
        <time>2016-07-25T10:42:29.000Z</time>
      </trkpt>
      <trkpt lat="44.28147" lon="4.55942">
        <ele>194</ele>
        <time>2016-07-25T10:42:32.000Z</time>
      </trkpt>
      <trkpt lat="44.28144" lon="4.5594">
        <ele>194</ele>
        <time>2016-07-25T10:42:33.000Z</time>
      </trkpt>
      <trkpt lat="44.28137" lon="4.55936">
        <ele>195</ele>
        <time>2016-07-25T10:42:36.000Z</time>
      </trkpt>
      <trkpt lat="44.28135" lon="4.55934">
        <ele>194</ele>
        <time>2016-07-25T10:42:37.000Z</time>
      </trkpt>
      <trkpt lat="44.28128" lon="4.55929">
        <ele>194</ele>
        <time>2016-07-25T10:42:40.000Z</time>
      </trkpt>
      <trkpt lat="44.28125" lon="4.55927">
        <ele>194</ele>
        <time>2016-07-25T10:42:41.000Z</time>
      </trkpt>
      <trkpt lat="44.2812" lon="4.55922">
        <ele>194</ele>
        <time>2016-07-25T10:42:44.000Z</time>
      </trkpt>
      <trkpt lat="44.28117" lon="4.5592">
        <ele>194</ele>
        <time>2016-07-25T10:42:45.000Z</time>
      </trkpt>
      <trkpt lat="44.28111" lon="4.55915">
        <ele>195</ele>
        <time>2016-07-25T10:42:48.000Z</time>
      </trkpt>
      <trkpt lat="44.28108" lon="4.55913">
        <ele>194</ele>
        <time>2016-07-25T10:42:49.000Z</time>
      </trkpt>
      <trkpt lat="44.28101" lon="4.55908">
        <ele>195</ele>
        <time>2016-07-25T10:42:52.000Z</time>
      </trkpt>
      <trkpt lat="44.28098" lon="4.55907">
        <ele>195</ele>
        <time>2016-07-25T10:42:53.000Z</time>
      </trkpt>
      <trkpt lat="44.28092" lon="4.55902">
        <ele>195</ele>
        <time>2016-07-25T10:42:56.000Z</time>
      </trkpt>
      <trkpt lat="44.2809" lon="4.55901">
        <ele>196</ele>
        <time>2016-07-25T10:42:57.000Z</time>
      </trkpt>
      <trkpt lat="44.28084" lon="4.55896">
        <ele>196</ele>
        <time>2016-07-25T10:43:00.000Z</time>
      </trkpt>
      <trkpt lat="44.28082" lon="4.55895">
        <ele>197</ele>
        <time>2016-07-25T10:43:01.000Z</time>
      </trkpt>
      <trkpt lat="44.28075" lon="4.55891">
        <ele>198</ele>
        <time>2016-07-25T10:43:04.000Z</time>
      </trkpt>
      <trkpt lat="44.28073" lon="4.55889">
        <ele>197</ele>
        <time>2016-07-25T10:43:05.000Z</time>
      </trkpt>
      <trkpt lat="44.28066" lon="4.55885">
        <ele>198</ele>
        <time>2016-07-25T10:43:08.000Z</time>
      </trkpt>
      <trkpt lat="44.28064" lon="4.55883">
        <ele>197</ele>
        <time>2016-07-25T10:43:09.000Z</time>
      </trkpt>
      <trkpt lat="44.28057" lon="4.55877">
        <ele>197</ele>
        <time>2016-07-25T10:43:12.000Z</time>
      </trkpt>
      <trkpt lat="44.28054" lon="4.55875">
        <ele>197</ele>
        <time>2016-07-25T10:43:13.000Z</time>
      </trkpt>
      <trkpt lat="44.28046" lon="4.5587">
        <ele>197</ele>
        <time>2016-07-25T10:43:17.000Z</time>
      </trkpt>
      <trkpt lat="44.28044" lon="4.55869">
        <ele>197</ele>
        <time>2016-07-25T10:43:18.000Z</time>
      </trkpt>
      <trkpt lat="44.28038" lon="4.55865">
        <ele>197</ele>
        <time>2016-07-25T10:43:21.000Z</time>
      </trkpt>
      <trkpt lat="44.28036" lon="4.55864">
        <ele>198</ele>
        <time>2016-07-25T10:43:22.000Z</time>
      </trkpt>
      <trkpt lat="44.28028" lon="4.55858">
        <ele>199</ele>
        <time>2016-07-25T10:43:26.000Z</time>
      </trkpt>
      <trkpt lat="44.28026" lon="4.55857">
        <ele>199</ele>
        <time>2016-07-25T10:43:27.000Z</time>
      </trkpt>
      <trkpt lat="44.28019" lon="4.55854">
        <ele>199</ele>
        <time>2016-07-25T10:43:30.000Z</time>
      </trkpt>
      <trkpt lat="44.28017" lon="4.55852">
        <ele>199</ele>
        <time>2016-07-25T10:43:31.000Z</time>
      </trkpt>
      <trkpt lat="44.2801" lon="4.55847">
        <ele>199</ele>
        <time>2016-07-25T10:43:34.000Z</time>
      </trkpt>
      <trkpt lat="44.28008" lon="4.55846">
        <ele>199</ele>
        <time>2016-07-25T10:43:35.000Z</time>
      </trkpt>
      <trkpt lat="44.28001" lon="4.55841">
        <ele>199</ele>
        <time>2016-07-25T10:43:38.000Z</time>
      </trkpt>
      <trkpt lat="44.27999" lon="4.55839">
        <ele>200</ele>
        <time>2016-07-25T10:43:39.000Z</time>
      </trkpt>
      <trkpt lat="44.27993" lon="4.55833">
        <ele>201</ele>
        <time>2016-07-25T10:43:42.000Z</time>
      </trkpt>
      <trkpt lat="44.27991" lon="4.55831">
        <ele>201</ele>
        <time>2016-07-25T10:43:43.000Z</time>
      </trkpt>
      <trkpt lat="44.27985" lon="4.55823">
        <ele>202</ele>
        <time>2016-07-25T10:43:47.000Z</time>
      </trkpt>
      <trkpt lat="44.27983" lon="4.55821">
        <ele>202</ele>
        <time>2016-07-25T10:43:48.000Z</time>
      </trkpt>
      <trkpt lat="44.27978" lon="4.55813">
        <ele>202</ele>
        <time>2016-07-25T10:43:51.000Z</time>
      </trkpt>
      <trkpt lat="44.27977" lon="4.55811">
        <ele>202</ele>
        <time>2016-07-25T10:43:52.000Z</time>
      </trkpt>
      <trkpt lat="44.27972" lon="4.55802">
        <ele>203</ele>
        <time>2016-07-25T10:43:55.000Z</time>
      </trkpt>
      <trkpt lat="44.2797" lon="4.55799">
        <ele>203</ele>
        <time>2016-07-25T10:43:56.000Z</time>
      </trkpt>
      <trkpt lat="44.27965" lon="4.5579">
        <ele>203</ele>
        <time>2016-07-25T10:43:59.000Z</time>
      </trkpt>
      <trkpt lat="44.27963" lon="4.55787">
        <ele>203</ele>
        <time>2016-07-25T10:44:00.000Z</time>
      </trkpt>
      <trkpt lat="44.27959" lon="4.5578">
        <ele>204</ele>
        <time>2016-07-25T10:44:02.000Z</time>
      </trkpt>
      <trkpt lat="44.27957" lon="4.55777">
        <ele>204</ele>
        <time>2016-07-25T10:44:03.000Z</time>
      </trkpt>
      <trkpt lat="44.27954" lon="4.5577">
        <ele>204</ele>
        <time>2016-07-25T10:44:05.000Z</time>
      </trkpt>
      <trkpt lat="44.27951" lon="4.55766">
        <ele>204</ele>
        <time>2016-07-25T10:44:06.000Z</time>
      </trkpt>
      <trkpt lat="44.27947" lon="4.55759">
        <ele>203</ele>
        <time>2016-07-25T10:44:08.000Z</time>
      </trkpt>
      <trkpt lat="44.27944" lon="4.55755">
        <ele>203</ele>
        <time>2016-07-25T10:44:09.000Z</time>
      </trkpt>
      <trkpt lat="44.27938" lon="4.55747">
        <ele>202</ele>
        <time>2016-07-25T10:44:11.000Z</time>
      </trkpt>
      <trkpt lat="44.27936" lon="4.55743">
        <ele>202</ele>
        <time>2016-07-25T10:44:12.000Z</time>
      </trkpt>
      <trkpt lat="44.27931" lon="4.55734">
        <ele>202</ele>
        <time>2016-07-25T10:44:14.000Z</time>
      </trkpt>
      <trkpt lat="44.27928" lon="4.5573">
        <ele>203</ele>
        <time>2016-07-25T10:44:15.000Z</time>
      </trkpt>
      <trkpt lat="44.27922" lon="4.55721">
        <ele>203</ele>
        <time>2016-07-25T10:44:17.000Z</time>
      </trkpt>
      <trkpt lat="44.27919" lon="4.55718">
        <ele>203</ele>
        <time>2016-07-25T10:44:18.000Z</time>
      </trkpt>
      <trkpt lat="44.27912" lon="4.55712">
        <ele>202</ele>
        <time>2016-07-25T10:44:20.000Z</time>
      </trkpt>
      <trkpt lat="44.27909" lon="4.5571">
        <ele>202</ele>
        <time>2016-07-25T10:44:21.000Z</time>
      </trkpt>
      <trkpt lat="44.27902" lon="4.55705">
        <ele>202</ele>
        <time>2016-07-25T10:44:23.000Z</time>
      </trkpt>
      <trkpt lat="44.27899" lon="4.55703">
        <ele>202</ele>
        <time>2016-07-25T10:44:24.000Z</time>
      </trkpt>
      <trkpt lat="44.27892" lon="4.55698">
        <ele>202</ele>
        <time>2016-07-25T10:44:26.000Z</time>
      </trkpt>
      <trkpt lat="44.27888" lon="4.55695">
        <ele>202</ele>
        <time>2016-07-25T10:44:27.000Z</time>
      </trkpt>
      <trkpt lat="44.27882" lon="4.55689">
        <ele>202</ele>
        <time>2016-07-25T10:44:29.000Z</time>
      </trkpt>
      <trkpt lat="44.27879" lon="4.55685">
        <ele>202</ele>
        <time>2016-07-25T10:44:30.000Z</time>
      </trkpt>
      <trkpt lat="44.27873" lon="4.55676">
        <ele>202</ele>
        <time>2016-07-25T10:44:32.000Z</time>
      </trkpt>
      <trkpt lat="44.2787" lon="4.55672">
        <ele>202</ele>
        <time>2016-07-25T10:44:33.000Z</time>
      </trkpt>
      <trkpt lat="44.27866" lon="4.55662">
        <ele>202</ele>
        <time>2016-07-25T10:44:35.000Z</time>
      </trkpt>
      <trkpt lat="44.27864" lon="4.55657">
        <ele>202</ele>
        <time>2016-07-25T10:44:36.000Z</time>
      </trkpt>
      <trkpt lat="44.27861" lon="4.55647">
        <ele>202</ele>
        <time>2016-07-25T10:44:38.000Z</time>
      </trkpt>
      <trkpt lat="44.27859" lon="4.55642">
        <ele>202</ele>
        <time>2016-07-25T10:44:39.000Z</time>
      </trkpt>
      <trkpt lat="44.27856" lon="4.55632">
        <ele>202</ele>
        <time>2016-07-25T10:44:41.000Z</time>
      </trkpt>
      <trkpt lat="44.27854" lon="4.55628">
        <ele>202</ele>
        <time>2016-07-25T10:44:42.000Z</time>
      </trkpt>
      <trkpt lat="44.27849" lon="4.55618">
        <ele>203</ele>
        <time>2016-07-25T10:44:44.000Z</time>
      </trkpt>
      <trkpt lat="44.27846" lon="4.55614">
        <ele>203</ele>
        <time>2016-07-25T10:44:45.000Z</time>
      </trkpt>
      <trkpt lat="44.27843" lon="4.55609">
        <ele>203</ele>
        <time>2016-07-25T10:44:46.000Z</time>
      </trkpt>
      <trkpt lat="44.27839" lon="4.55605">
        <ele>203</ele>
        <time>2016-07-25T10:44:47.000Z</time>
      </trkpt>
      <trkpt lat="44.27833" lon="4.55596">
        <ele>203</ele>
        <time>2016-07-25T10:44:49.000Z</time>
      </trkpt>
      <trkpt lat="44.27831" lon="4.55593">
        <ele>203</ele>
        <time>2016-07-25T10:44:50.000Z</time>
      </trkpt>
      <trkpt lat="44.27825" lon="4.55587">
        <ele>203</ele>
        <time>2016-07-25T10:44:52.000Z</time>
      </trkpt>
      <trkpt lat="44.27821" lon="4.55584">
        <ele>203</ele>
        <time>2016-07-25T10:44:53.000Z</time>
      </trkpt>
      <trkpt lat="44.27814" lon="4.55578">
        <ele>202</ele>
        <time>2016-07-25T10:44:55.000Z</time>
      </trkpt>
      <trkpt lat="44.27811" lon="4.55574">
        <ele>202</ele>
        <time>2016-07-25T10:44:56.000Z</time>
      </trkpt>
      <trkpt lat="44.27804" lon="4.55566">
        <ele>202</ele>
        <time>2016-07-25T10:44:58.000Z</time>
      </trkpt>
      <trkpt lat="44.27801" lon="4.55562">
        <ele>201</ele>
        <time>2016-07-25T10:44:59.000Z</time>
      </trkpt>
      <trkpt lat="44.27795" lon="4.55552">
        <ele>201</ele>
        <time>2016-07-25T10:45:01.000Z</time>
      </trkpt>
      <trkpt lat="44.27793" lon="4.55547">
        <ele>201</ele>
        <time>2016-07-25T10:45:02.000Z</time>
      </trkpt>
      <trkpt lat="44.27791" lon="4.55541">
        <ele>201</ele>
        <time>2016-07-25T10:45:03.000Z</time>
      </trkpt>
      <trkpt lat="44.27788" lon="4.55534">
        <ele>201</ele>
        <time>2016-07-25T10:45:04.000Z</time>
      </trkpt>
      <trkpt lat="44.27788" lon="4.55526">
        <ele>200</ele>
        <time>2016-07-25T10:45:05.000Z</time>
      </trkpt>
      <trkpt lat="44.27788" lon="4.55519">
        <ele>200</ele>
        <time>2016-07-25T10:45:06.000Z</time>
      </trkpt>
      <trkpt lat="44.27788" lon="4.55511">
        <ele>200</ele>
        <time>2016-07-25T10:45:07.000Z</time>
      </trkpt>
      <trkpt lat="44.2779" lon="4.55504">
        <ele>199</ele>
        <time>2016-07-25T10:45:08.000Z</time>
      </trkpt>
      <trkpt lat="44.27791" lon="4.55496">
        <ele>198</ele>
        <time>2016-07-25T10:45:09.000Z</time>
      </trkpt>
      <trkpt lat="44.27794" lon="4.5549">
        <ele>198</ele>
        <time>2016-07-25T10:45:10.000Z</time>
      </trkpt>
      <trkpt lat="44.27798" lon="4.55483">
        <ele>198</ele>
        <time>2016-07-25T10:45:11.000Z</time>
      </trkpt>
      <trkpt lat="44.27802" lon="4.55478">
        <ele>198</ele>
        <time>2016-07-25T10:45:12.000Z</time>
      </trkpt>
      <trkpt lat="44.27806" lon="4.55472">
        <ele>198</ele>
        <time>2016-07-25T10:45:13.000Z</time>
      </trkpt>
      <trkpt lat="44.27811" lon="4.55466">
        <ele>199</ele>
        <time>2016-07-25T10:45:14.000Z</time>
      </trkpt>
      <trkpt lat="44.27815" lon="4.55459">
        <ele>198</ele>
        <time>2016-07-25T10:45:15.000Z</time>
      </trkpt>
      <trkpt lat="44.27819" lon="4.55453">
        <ele>198</ele>
        <time>2016-07-25T10:45:16.000Z</time>
      </trkpt>
      <trkpt lat="44.27822" lon="4.55446">
        <ele>198</ele>
        <time>2016-07-25T10:45:17.000Z</time>
      </trkpt>
      <trkpt lat="44.27824" lon="4.55439">
        <ele>198</ele>
        <time>2016-07-25T10:45:18.000Z</time>
      </trkpt>
      <trkpt lat="44.27825" lon="4.5543">
        <ele>198</ele>
        <time>2016-07-25T10:45:19.000Z</time>
      </trkpt>
      <trkpt lat="44.27825" lon="4.55421">
        <ele>198</ele>
        <time>2016-07-25T10:45:20.000Z</time>
      </trkpt>
      <trkpt lat="44.27823" lon="4.55414">
        <ele>198</ele>
        <time>2016-07-25T10:45:21.000Z</time>
      </trkpt>
      <trkpt lat="44.27821" lon="4.55407">
        <ele>198</ele>
        <time>2016-07-25T10:45:22.000Z</time>
      </trkpt>
      <trkpt lat="44.27817" lon="4.55401">
        <ele>198</ele>
        <time>2016-07-25T10:45:23.000Z</time>
      </trkpt>
      <trkpt lat="44.27812" lon="4.55395">
        <ele>198</ele>
        <time>2016-07-25T10:45:24.000Z</time>
      </trkpt>
      <trkpt lat="44.27808" lon="4.55389">
        <ele>198</ele>
        <time>2016-07-25T10:45:25.000Z</time>
      </trkpt>
      <trkpt lat="44.27802" lon="4.55385">
        <ele>198</ele>
        <time>2016-07-25T10:45:26.000Z</time>
      </trkpt>
      <trkpt lat="44.27796" lon="4.55381">
        <ele>197</ele>
        <time>2016-07-25T10:45:27.000Z</time>
      </trkpt>
      <trkpt lat="44.27791" lon="4.55377">
        <ele>196</ele>
        <time>2016-07-25T10:45:28.000Z</time>
      </trkpt>
      <trkpt lat="44.27785" lon="4.55373">
        <ele>196</ele>
        <time>2016-07-25T10:45:29.000Z</time>
      </trkpt>
      <trkpt lat="44.27779" lon="4.55367">
        <ele>196</ele>
        <time>2016-07-25T10:45:30.000Z</time>
      </trkpt>
      <trkpt lat="44.27774" lon="4.55361">
        <ele>195</ele>
        <time>2016-07-25T10:45:31.000Z</time>
      </trkpt>
      <trkpt lat="44.27769" lon="4.55354">
        <ele>195</ele>
        <time>2016-07-25T10:45:32.000Z</time>
      </trkpt>
      <trkpt lat="44.27765" lon="4.55346">
        <ele>195</ele>
        <time>2016-07-25T10:45:33.000Z</time>
      </trkpt>
      <trkpt lat="44.27763" lon="4.55336">
        <ele>195</ele>
        <time>2016-07-25T10:45:34.000Z</time>
      </trkpt>
      <trkpt lat="44.2776" lon="4.55328">
        <ele>196</ele>
        <time>2016-07-25T10:45:35.000Z</time>
      </trkpt>
      <trkpt lat="44.27759" lon="4.55318">
        <ele>196</ele>
        <time>2016-07-25T10:45:36.000Z</time>
      </trkpt>
      <trkpt lat="44.27758" lon="4.55308">
        <ele>195</ele>
        <time>2016-07-25T10:45:37.000Z</time>
      </trkpt>
      <trkpt lat="44.27757" lon="4.55299">
        <ele>195</ele>
        <time>2016-07-25T10:45:38.000Z</time>
      </trkpt>
      <trkpt lat="44.27757" lon="4.55289">
        <ele>195</ele>
        <time>2016-07-25T10:45:39.000Z</time>
      </trkpt>
      <trkpt lat="44.27756" lon="4.5528">
        <ele>195</ele>
        <time>2016-07-25T10:45:40.000Z</time>
      </trkpt>
      <trkpt lat="44.27755" lon="4.55271">
        <ele>196</ele>
        <time>2016-07-25T10:45:41.000Z</time>
      </trkpt>
      <trkpt lat="44.27755" lon="4.55261">
        <ele>195</ele>
        <time>2016-07-25T10:45:42.000Z</time>
      </trkpt>
      <trkpt lat="44.27756" lon="4.55252">
        <ele>195</ele>
        <time>2016-07-25T10:45:43.000Z</time>
      </trkpt>
      <trkpt lat="44.27758" lon="4.55243">
        <ele>194</ele>
        <time>2016-07-25T10:45:44.000Z</time>
      </trkpt>
      <trkpt lat="44.2776" lon="4.55233">
        <ele>194</ele>
        <time>2016-07-25T10:45:45.000Z</time>
      </trkpt>
      <trkpt lat="44.27763" lon="4.55224">
        <ele>193</ele>
        <time>2016-07-25T10:45:46.000Z</time>
      </trkpt>
      <trkpt lat="44.27767" lon="4.55216">
        <ele>193</ele>
        <time>2016-07-25T10:45:47.000Z</time>
      </trkpt>
      <trkpt lat="44.27772" lon="4.55208">
        <ele>193</ele>
        <time>2016-07-25T10:45:48.000Z</time>
      </trkpt>
      <trkpt lat="44.27777" lon="4.55201">
        <ele>193</ele>
        <time>2016-07-25T10:45:49.000Z</time>
      </trkpt>
      <trkpt lat="44.27783" lon="4.55195">
        <ele>193</ele>
        <time>2016-07-25T10:45:50.000Z</time>
      </trkpt>
      <trkpt lat="44.27788" lon="4.55187">
        <ele>193</ele>
        <time>2016-07-25T10:45:51.000Z</time>
      </trkpt>
      <trkpt lat="44.27794" lon="4.55181">
        <ele>194</ele>
        <time>2016-07-25T10:45:52.000Z</time>
      </trkpt>
      <trkpt lat="44.27799" lon="4.55175">
        <ele>194</ele>
        <time>2016-07-25T10:45:53.000Z</time>
      </trkpt>
      <trkpt lat="44.27804" lon="4.55167">
        <ele>194</ele>
        <time>2016-07-25T10:45:54.000Z</time>
      </trkpt>
      <trkpt lat="44.27808" lon="4.5516">
        <ele>193</ele>
        <time>2016-07-25T10:45:55.000Z</time>
      </trkpt>
      <trkpt lat="44.27811" lon="4.55151">
        <ele>194</ele>
        <time>2016-07-25T10:45:56.000Z</time>
      </trkpt>
      <trkpt lat="44.27814" lon="4.55141">
        <ele>193</ele>
        <time>2016-07-25T10:45:57.000Z</time>
      </trkpt>
      <trkpt lat="44.27815" lon="4.55131">
        <ele>194</ele>
        <time>2016-07-25T10:45:58.000Z</time>
      </trkpt>
      <trkpt lat="44.27818" lon="4.55122">
        <ele>194</ele>
        <time>2016-07-25T10:45:59.000Z</time>
      </trkpt>
      <trkpt lat="44.27819" lon="4.55112">
        <ele>193</ele>
        <time>2016-07-25T10:46:00.000Z</time>
      </trkpt>
      <trkpt lat="44.27821" lon="4.55103">
        <ele>193</ele>
        <time>2016-07-25T10:46:01.000Z</time>
      </trkpt>
      <trkpt lat="44.27824" lon="4.55092">
        <ele>192</ele>
        <time>2016-07-25T10:46:02.000Z</time>
      </trkpt>
      <trkpt lat="44.27828" lon="4.55083">
        <ele>192</ele>
        <time>2016-07-25T10:46:03.000Z</time>
      </trkpt>
      <trkpt lat="44.27833" lon="4.55074">
        <ele>192</ele>
        <time>2016-07-25T10:46:04.000Z</time>
      </trkpt>
      <trkpt lat="44.27838" lon="4.55066">
        <ele>191</ele>
        <time>2016-07-25T10:46:05.000Z</time>
      </trkpt>
      <trkpt lat="44.27844" lon="4.5506">
        <ele>191</ele>
        <time>2016-07-25T10:46:06.000Z</time>
      </trkpt>
      <trkpt lat="44.27851" lon="4.55054">
        <ele>190</ele>
        <time>2016-07-25T10:46:07.000Z</time>
      </trkpt>
      <trkpt lat="44.27858" lon="4.5505">
        <ele>190</ele>
        <time>2016-07-25T10:46:08.000Z</time>
      </trkpt>
      <trkpt lat="44.27865" lon="4.55046">
        <ele>190</ele>
        <time>2016-07-25T10:46:09.000Z</time>
      </trkpt>
      <trkpt lat="44.27874" lon="4.5505">
        <ele>189</ele>
        <time>2016-07-25T10:46:10.000Z</time>
      </trkpt>
      <trkpt lat="44.27878" lon="4.55041">
        <ele>188</ele>
        <time>2016-07-25T10:46:11.000Z</time>
      </trkpt>
      <trkpt lat="44.27883" lon="4.55033">
        <ele>188</ele>
        <time>2016-07-25T10:46:12.000Z</time>
      </trkpt>
      <trkpt lat="44.2789" lon="4.55029">
        <ele>188</ele>
        <time>2016-07-25T10:46:13.000Z</time>
      </trkpt>
      <trkpt lat="44.27895" lon="4.55022">
        <ele>188</ele>
        <time>2016-07-25T10:46:14.000Z</time>
      </trkpt>
      <trkpt lat="44.27898" lon="4.55013">
        <ele>188</ele>
        <time>2016-07-25T10:46:15.000Z</time>
      </trkpt>
      <trkpt lat="44.27903" lon="4.55005">
        <ele>188</ele>
        <time>2016-07-25T10:46:16.000Z</time>
      </trkpt>
      <trkpt lat="44.27908" lon="4.54997">
        <ele>187</ele>
        <time>2016-07-25T10:46:17.000Z</time>
      </trkpt>
      <trkpt lat="44.27915" lon="4.54991">
        <ele>188</ele>
        <time>2016-07-25T10:46:18.000Z</time>
      </trkpt>
      <trkpt lat="44.27927" lon="4.54989">
        <ele>188</ele>
        <time>2016-07-25T10:46:19.000Z</time>
      </trkpt>
      <trkpt lat="44.27928" lon="4.5498">
        <ele>186</ele>
        <time>2016-07-25T10:46:20.000Z</time>
      </trkpt>
      <trkpt lat="44.27932" lon="4.54969">
        <ele>187</ele>
        <time>2016-07-25T10:46:21.000Z</time>
      </trkpt>
      <trkpt lat="44.27934" lon="4.5496">
        <ele>186</ele>
        <time>2016-07-25T10:46:22.000Z</time>
      </trkpt>
      <trkpt lat="44.27938" lon="4.54958">
        <ele>184</ele>
        <time>2016-07-25T10:46:23.000Z</time>
      </trkpt>
      <trkpt lat="44.27942" lon="4.5495">
        <ele>183</ele>
        <time>2016-07-25T10:46:24.000Z</time>
      </trkpt>
      <trkpt lat="44.27943" lon="4.54937">
        <ele>182</ele>
        <time>2016-07-25T10:46:25.000Z</time>
      </trkpt>
      <trkpt lat="44.27943" lon="4.54925">
        <ele>182</ele>
        <time>2016-07-25T10:46:26.000Z</time>
      </trkpt>
      <trkpt lat="44.27945" lon="4.54914">
        <ele>182</ele>
        <time>2016-07-25T10:46:27.000Z</time>
      </trkpt>
      <trkpt lat="44.27945" lon="4.54903">
        <ele>180</ele>
        <time>2016-07-25T10:46:28.000Z</time>
      </trkpt>
      <trkpt lat="44.27946" lon="4.54891">
        <ele>180</ele>
        <time>2016-07-25T10:46:29.000Z</time>
      </trkpt>
      <trkpt lat="44.27948" lon="4.54878">
        <ele>180</ele>
        <time>2016-07-25T10:46:30.000Z</time>
      </trkpt>
      <trkpt lat="44.27948" lon="4.54867">
        <ele>180</ele>
        <time>2016-07-25T10:46:31.000Z</time>
      </trkpt>
      <trkpt lat="44.27946" lon="4.54856">
        <ele>179</ele>
        <time>2016-07-25T10:46:32.000Z</time>
      </trkpt>
      <trkpt lat="44.27947" lon="4.54845">
        <ele>180</ele>
        <time>2016-07-25T10:46:33.000Z</time>
      </trkpt>
      <trkpt lat="44.27946" lon="4.54833">
        <ele>179</ele>
        <time>2016-07-25T10:46:34.000Z</time>
      </trkpt>
      <trkpt lat="44.27946" lon="4.54826">
        <ele>180</ele>
        <time>2016-07-25T10:46:35.000Z</time>
      </trkpt>
      <trkpt lat="44.27947" lon="4.54817">
        <ele>180</ele>
        <time>2016-07-25T10:46:36.000Z</time>
      </trkpt>
      <trkpt lat="44.27948" lon="4.54808">
        <ele>180</ele>
        <time>2016-07-25T10:46:37.000Z</time>
      </trkpt>
      <trkpt lat="44.27948" lon="4.54801">
        <ele>181</ele>
        <time>2016-07-25T10:46:38.000Z</time>
      </trkpt>
      <trkpt lat="44.27948" lon="4.54792">
        <ele>182</ele>
        <time>2016-07-25T10:46:39.000Z</time>
      </trkpt>
      <trkpt lat="44.27949" lon="4.54781">
        <ele>183</ele>
        <time>2016-07-25T10:46:40.000Z</time>
      </trkpt>
      <trkpt lat="44.27949" lon="4.54773">
        <ele>182</ele>
        <time>2016-07-25T10:46:41.000Z</time>
      </trkpt>
      <trkpt lat="44.27949" lon="4.54768">
        <ele>183</ele>
        <time>2016-07-25T10:46:42.000Z</time>
      </trkpt>
      <trkpt lat="44.27951" lon="4.54756">
        <ele>182</ele>
        <time>2016-07-25T10:46:45.000Z</time>
      </trkpt>
      <trkpt lat="44.27953" lon="4.54753">
        <ele>184</ele>
        <time>2016-07-25T10:46:46.000Z</time>
      </trkpt>
      <trkpt lat="44.27962" lon="4.54753">
        <ele>189</ele>
        <time>2016-07-25T10:47:49.000Z</time>
      </trkpt>
      <trkpt lat="44.27963" lon="4.54754">
        <ele>189</ele>
        <time>2016-07-25T10:47:50.000Z</time>
      </trkpt>
      <trkpt lat="44.27971" lon="4.54756">
        <ele>184</ele>
        <time>2016-07-25T10:47:54.000Z</time>
      </trkpt>
      <trkpt lat="44.27973" lon="4.54756">
        <ele>184</ele>
        <time>2016-07-25T10:47:55.000Z</time>
      </trkpt>
      <trkpt lat="44.27979" lon="4.54756">
        <ele>185</ele>
        <time>2016-07-25T10:47:58.000Z</time>
      </trkpt>
      <trkpt lat="44.27983" lon="4.54757">
        <ele>186</ele>
        <time>2016-07-25T10:47:59.000Z</time>
      </trkpt>
      <trkpt lat="44.27991" lon="4.54757">
        <ele>189</ele>
        <time>2016-07-25T10:48:02.000Z</time>
      </trkpt>
      <trkpt lat="44.27992" lon="4.54756">
        <ele>188</ele>
        <time>2016-07-25T10:48:03.000Z</time>
      </trkpt>
      <trkpt lat="44.27999" lon="4.54751">
        <ele>192</ele>
        <time>2016-07-25T10:48:09.000Z</time>
      </trkpt>
      <trkpt lat="44.28001" lon="4.5475">
        <ele>191</ele>
        <time>2016-07-25T10:48:10.000Z</time>
      </trkpt>
      <trkpt lat="44.28007" lon="4.54747">
        <ele>193</ele>
        <time>2016-07-25T10:48:14.000Z</time>
      </trkpt>
      <trkpt lat="44.28011" lon="4.54747">
        <ele>192</ele>
        <time>2016-07-25T10:48:15.000Z</time>
      </trkpt>
      <trkpt lat="44.28019" lon="4.54747">
        <ele>190</ele>
        <time>2016-07-25T10:48:19.000Z</time>
      </trkpt>
      <trkpt lat="44.28021" lon="4.54746">
        <ele>188</ele>
        <time>2016-07-25T10:48:20.000Z</time>
      </trkpt>
      <trkpt lat="44.28027" lon="4.54746">
        <ele>187</ele>
        <time>2016-07-25T10:48:22.000Z</time>
      </trkpt>
      <trkpt lat="44.2803" lon="4.54747">
        <ele>187</ele>
        <time>2016-07-25T10:48:23.000Z</time>
      </trkpt>
      <trkpt lat="44.28037" lon="4.54746">
        <ele>183</ele>
        <time>2016-07-25T10:48:26.000Z</time>
      </trkpt>
      <trkpt lat="44.28039" lon="4.54747">
        <ele>181</ele>
        <time>2016-07-25T10:48:27.000Z</time>
      </trkpt>
      <trkpt lat="44.28047" lon="4.54749">
        <ele>182</ele>
        <time>2016-07-25T10:48:30.000Z</time>
      </trkpt>
      <trkpt lat="44.28052" lon="4.5475">
        <ele>183</ele>
        <time>2016-07-25T10:48:31.000Z</time>
      </trkpt>
      <trkpt lat="44.2806" lon="4.54749">
        <ele>184</ele>
        <time>2016-07-25T10:48:33.000Z</time>
      </trkpt>
      <trkpt lat="44.28063" lon="4.54749">
        <ele>185</ele>
        <time>2016-07-25T10:48:34.000Z</time>
      </trkpt>
      <trkpt lat="44.28072" lon="4.54749">
        <ele>186</ele>
        <time>2016-07-25T10:48:37.000Z</time>
      </trkpt>
      <trkpt lat="44.28075" lon="4.54749">
        <ele>186</ele>
        <time>2016-07-25T10:48:38.000Z</time>
      </trkpt>
      <trkpt lat="44.28081" lon="4.54747">
        <ele>185</ele>
        <time>2016-07-25T10:48:40.000Z</time>
      </trkpt>
      <trkpt lat="44.28085" lon="4.54746">
        <ele>185</ele>
        <time>2016-07-25T10:48:41.000Z</time>
      </trkpt>
      <trkpt lat="44.28093" lon="4.54745">
        <ele>185</ele>
        <time>2016-07-25T10:48:44.000Z</time>
      </trkpt>
      <trkpt lat="44.28095" lon="4.54745">
        <ele>185</ele>
        <time>2016-07-25T10:48:45.000Z</time>
      </trkpt>
      <trkpt lat="44.28103" lon="4.54744">
        <ele>184</ele>
        <time>2016-07-25T10:48:48.000Z</time>
      </trkpt>
      <trkpt lat="44.28105" lon="4.54748">
        <ele>186</ele>
        <time>2016-07-25T10:48:49.000Z</time>
      </trkpt>
      <trkpt lat="44.28113" lon="4.54752">
        <ele>186</ele>
        <time>2016-07-25T10:48:53.000Z</time>
      </trkpt>
      <trkpt lat="44.28115" lon="4.54752">
        <ele>187</ele>
        <time>2016-07-25T10:48:54.000Z</time>
      </trkpt>
      <trkpt lat="44.28122" lon="4.54754">
        <ele>189</ele>
        <time>2016-07-25T10:48:57.000Z</time>
      </trkpt>
      <trkpt lat="44.28124" lon="4.54753">
        <ele>188</ele>
        <time>2016-07-25T10:48:58.000Z</time>
      </trkpt>
      <trkpt lat="44.28132" lon="4.54754">
        <ele>190</ele>
        <time>2016-07-25T10:49:01.000Z</time>
      </trkpt>
      <trkpt lat="44.28134" lon="4.54754">
        <ele>189</ele>
        <time>2016-07-25T10:49:02.000Z</time>
      </trkpt>
      <trkpt lat="44.2814" lon="4.54754">
        <ele>190</ele>
        <time>2016-07-25T10:49:05.000Z</time>
      </trkpt>
      <trkpt lat="44.28142" lon="4.54753">
        <ele>189</ele>
        <time>2016-07-25T10:49:06.000Z</time>
      </trkpt>
      <trkpt lat="44.28151" lon="4.54752">
        <ele>190</ele>
        <time>2016-07-25T10:49:11.000Z</time>
      </trkpt>
      <trkpt lat="44.28152" lon="4.54754">
        <ele>190</ele>
        <time>2016-07-25T10:49:12.000Z</time>
      </trkpt>
      <trkpt lat="44.28159" lon="4.54751">
        <ele>190</ele>
        <time>2016-07-25T10:49:16.000Z</time>
      </trkpt>
      <trkpt lat="44.28161" lon="4.54751">
        <ele>190</ele>
        <time>2016-07-25T10:49:17.000Z</time>
      </trkpt>
      <trkpt lat="44.28167" lon="4.54755">
        <ele>192</ele>
        <time>2016-07-25T10:49:21.000Z</time>
      </trkpt>
      <trkpt lat="44.28171" lon="4.54755">
        <ele>191</ele>
        <time>2016-07-25T10:49:22.000Z</time>
      </trkpt>
      <trkpt lat="44.28177" lon="4.54757">
        <ele>193</ele>
        <time>2016-07-25T10:49:26.000Z</time>
      </trkpt>
      <trkpt lat="44.2818" lon="4.54757">
        <ele>193</ele>
        <time>2016-07-25T10:49:27.000Z</time>
      </trkpt>
      <trkpt lat="44.28189" lon="4.54759">
        <ele>192</ele>
        <time>2016-07-25T10:49:31.000Z</time>
      </trkpt>
      <trkpt lat="44.28189" lon="4.54757">
        <ele>192</ele>
        <time>2016-07-25T10:49:32.000Z</time>
      </trkpt>
      <trkpt lat="44.28197" lon="4.54759">
        <ele>195</ele>
        <time>2016-07-25T10:49:37.000Z</time>
      </trkpt>
      <trkpt lat="44.282" lon="4.54758">
        <ele>192</ele>
        <time>2016-07-25T10:49:38.000Z</time>
      </trkpt>
      <trkpt lat="44.28208" lon="4.54759">
        <ele>194</ele>
        <time>2016-07-25T10:49:41.000Z</time>
      </trkpt>
      <trkpt lat="44.2821" lon="4.54759">
        <ele>195</ele>
        <time>2016-07-25T10:49:42.000Z</time>
      </trkpt>
      <trkpt lat="44.28218" lon="4.54759">
        <ele>195</ele>
        <time>2016-07-25T10:49:47.000Z</time>
      </trkpt>
      <trkpt lat="44.28219" lon="4.54759">
        <ele>194</ele>
        <time>2016-07-25T10:49:48.000Z</time>
      </trkpt>
      <trkpt lat="44.28227" lon="4.54759">
        <ele>194</ele>
        <time>2016-07-25T10:49:54.000Z</time>
      </trkpt>
      <trkpt lat="44.2823" lon="4.54759">
        <ele>195</ele>
        <time>2016-07-25T10:49:55.000Z</time>
      </trkpt>
      <trkpt lat="44.28238" lon="4.54757">
        <ele>198</ele>
        <time>2016-07-25T10:50:00.000Z</time>
      </trkpt>
      <trkpt lat="44.2824" lon="4.54756">
        <ele>198</ele>
        <time>2016-07-25T10:50:01.000Z</time>
      </trkpt>
      <trkpt lat="44.28248" lon="4.54754">
        <ele>203</ele>
        <time>2016-07-25T10:50:05.000Z</time>
      </trkpt>
      <trkpt lat="44.28251" lon="4.54753">
        <ele>202</ele>
        <time>2016-07-25T10:50:06.000Z</time>
      </trkpt>
      <trkpt lat="44.28252" lon="4.54752">
        <ele>204</ele>
        <time>2016-07-25T10:50:07.000Z</time>
      </trkpt>
      <trkpt lat="44.28252" lon="4.54752">
        <ele>204</ele>
        <time>2016-07-25T10:50:08.000Z</time>
      </trkpt>
      <trkpt lat="44.28252" lon="4.54752">
        <ele>205</ele>
        <time>2016-07-25T10:50:09.000Z</time>
      </trkpt>
      <trkpt lat="44.2826" lon="4.54755">
        <ele>207</ele>
        <time>2016-07-25T10:50:29.000Z</time>
      </trkpt>
      <trkpt lat="44.28263" lon="4.54751">
        <ele>209</ele>
        <time>2016-07-25T10:50:30.000Z</time>
      </trkpt>
      <trkpt lat="44.28268" lon="4.54749">
        <ele>208</ele>
        <time>2016-07-25T10:50:32.000Z</time>
      </trkpt>
      <trkpt lat="44.28274" lon="4.54748">
        <ele>204</ele>
        <time>2016-07-25T10:50:33.000Z</time>
      </trkpt>
      <trkpt lat="44.28282" lon="4.54743">
        <ele>202</ele>
        <time>2016-07-25T10:50:36.000Z</time>
      </trkpt>
      <trkpt lat="44.28283" lon="4.54742">
        <ele>203</ele>
        <time>2016-07-25T10:50:37.000Z</time>
      </trkpt>
      <trkpt lat="44.28291" lon="4.5474">
        <ele>205</ele>
        <time>2016-07-25T10:50:40.000Z</time>
      </trkpt>
      <trkpt lat="44.28293" lon="4.54738">
        <ele>206</ele>
        <time>2016-07-25T10:50:41.000Z</time>
      </trkpt>
      <trkpt lat="44.28299" lon="4.54735">
        <ele>202</ele>
        <time>2016-07-25T10:50:44.000Z</time>
      </trkpt>
      <trkpt lat="44.28302" lon="4.54733">
        <ele>200</ele>
        <time>2016-07-25T10:50:45.000Z</time>
      </trkpt>
      <trkpt lat="44.28308" lon="4.54726">
        <ele>201</ele>
        <time>2016-07-25T10:50:48.000Z</time>
      </trkpt>
      <trkpt lat="44.2831" lon="4.54722">
        <ele>201</ele>
        <time>2016-07-25T10:50:49.000Z</time>
      </trkpt>
      <trkpt lat="44.28319" lon="4.54719">
        <ele>203</ele>
        <time>2016-07-25T10:50:52.000Z</time>
      </trkpt>
      <trkpt lat="44.28319" lon="4.54717">
        <ele>201</ele>
        <time>2016-07-25T10:50:53.000Z</time>
      </trkpt>
      <trkpt lat="44.28326" lon="4.54711">
        <ele>202</ele>
        <time>2016-07-25T10:50:56.000Z</time>
      </trkpt>
      <trkpt lat="44.28329" lon="4.54709">
        <ele>203</ele>
        <time>2016-07-25T10:50:57.000Z</time>
      </trkpt>
      <trkpt lat="44.28333" lon="4.54701">
        <ele>203</ele>
        <time>2016-07-25T10:50:59.000Z</time>
      </trkpt>
      <trkpt lat="44.28336" lon="4.54699">
        <ele>202</ele>
        <time>2016-07-25T10:51:00.000Z</time>
      </trkpt>
      <trkpt lat="44.28342" lon="4.54693">
        <ele>200</ele>
        <time>2016-07-25T10:51:03.000Z</time>
      </trkpt>
      <trkpt lat="44.28344" lon="4.5469">
        <ele>200</ele>
        <time>2016-07-25T10:51:04.000Z</time>
      </trkpt>
      <trkpt lat="44.28352" lon="4.54686">
        <ele>201</ele>
        <time>2016-07-25T10:51:07.000Z</time>
      </trkpt>
      <trkpt lat="44.28355" lon="4.54684">
        <ele>201</ele>
        <time>2016-07-25T10:51:08.000Z</time>
      </trkpt>
      <trkpt lat="44.28362" lon="4.54679">
        <ele>199</ele>
        <time>2016-07-25T10:51:12.000Z</time>
      </trkpt>
      <trkpt lat="44.28364" lon="4.54679">
        <ele>199</ele>
        <time>2016-07-25T10:51:13.000Z</time>
      </trkpt>
      <trkpt lat="44.28372" lon="4.5468">
        <ele>197</ele>
        <time>2016-07-25T10:51:16.000Z</time>
      </trkpt>
      <trkpt lat="44.28376" lon="4.54681">
        <ele>194</ele>
        <time>2016-07-25T10:51:17.000Z</time>
      </trkpt>
      <trkpt lat="44.28383" lon="4.54683">
        <ele>194</ele>
        <time>2016-07-25T10:51:20.000Z</time>
      </trkpt>
      <trkpt lat="44.28385" lon="4.54683">
        <ele>192</ele>
        <time>2016-07-25T10:51:21.000Z</time>
      </trkpt>
      <trkpt lat="44.28392" lon="4.54688">
        <ele>191</ele>
        <time>2016-07-25T10:51:24.000Z</time>
      </trkpt>
      <trkpt lat="44.28396" lon="4.54688">
        <ele>191</ele>
        <time>2016-07-25T10:51:25.000Z</time>
      </trkpt>
      <trkpt lat="44.28402" lon="4.54689">
        <ele>191</ele>
        <time>2016-07-25T10:51:27.000Z</time>
      </trkpt>
      <trkpt lat="44.28406" lon="4.5469">
        <ele>190</ele>
        <time>2016-07-25T10:51:28.000Z</time>
      </trkpt>
      <trkpt lat="44.28414" lon="4.54694">
        <ele>191</ele>
        <time>2016-07-25T10:51:31.000Z</time>
      </trkpt>
      <trkpt lat="44.28417" lon="4.54696">
        <ele>191</ele>
        <time>2016-07-25T10:51:32.000Z</time>
      </trkpt>
      <trkpt lat="44.28424" lon="4.54691">
        <ele>191</ele>
        <time>2016-07-25T10:51:35.000Z</time>
      </trkpt>
      <trkpt lat="44.28426" lon="4.54692">
        <ele>190</ele>
        <time>2016-07-25T10:51:36.000Z</time>
      </trkpt>
      <trkpt lat="44.28434" lon="4.54692">
        <ele>194</ele>
        <time>2016-07-25T10:51:39.000Z</time>
      </trkpt>
      <trkpt lat="44.28436" lon="4.54693">
        <ele>194</ele>
        <time>2016-07-25T10:51:40.000Z</time>
      </trkpt>
      <trkpt lat="44.28445" lon="4.54693">
        <ele>190</ele>
        <time>2016-07-25T10:51:43.000Z</time>
      </trkpt>
      <trkpt lat="44.28446" lon="4.54694">
        <ele>190</ele>
        <time>2016-07-25T10:51:44.000Z</time>
      </trkpt>
      <trkpt lat="44.28455" lon="4.54695">
        <ele>189</ele>
        <time>2016-07-25T10:51:47.000Z</time>
      </trkpt>
      <trkpt lat="44.28458" lon="4.54692">
        <ele>188</ele>
        <time>2016-07-25T10:51:48.000Z</time>
      </trkpt>
      <trkpt lat="44.28464" lon="4.54691">
        <ele>183</ele>
        <time>2016-07-25T10:51:51.000Z</time>
      </trkpt>
      <trkpt lat="44.28467" lon="4.54693">
        <ele>183</ele>
        <time>2016-07-25T10:51:52.000Z</time>
      </trkpt>
      <trkpt lat="44.28475" lon="4.54689">
        <ele>182</ele>
        <time>2016-07-25T10:51:56.000Z</time>
      </trkpt>
      <trkpt lat="44.28478" lon="4.54688">
        <ele>179</ele>
        <time>2016-07-25T10:51:57.000Z</time>
      </trkpt>
      <trkpt lat="44.28485" lon="4.54687">
        <ele>181</ele>
        <time>2016-07-25T10:51:59.000Z</time>
      </trkpt>
      <trkpt lat="44.28488" lon="4.54689">
        <ele>183</ele>
        <time>2016-07-25T10:52:00.000Z</time>
      </trkpt>
      <trkpt lat="44.28496" lon="4.54685">
        <ele>185</ele>
        <time>2016-07-25T10:52:04.000Z</time>
      </trkpt>
      <trkpt lat="44.28497" lon="4.54684">
        <ele>185</ele>
        <time>2016-07-25T10:52:05.000Z</time>
      </trkpt>
      <trkpt lat="44.28506" lon="4.54685">
        <ele>186</ele>
        <time>2016-07-25T10:52:12.000Z</time>
      </trkpt>
      <trkpt lat="44.28506" lon="4.54685">
        <ele>186</ele>
        <time>2016-07-25T10:52:13.000Z</time>
      </trkpt>
      <trkpt lat="44.28512" lon="4.54677">
        <ele>186</ele>
        <time>2016-07-25T10:52:40.000Z</time>
      </trkpt>
      <trkpt lat="44.28513" lon="4.54675">
        <ele>186</ele>
        <time>2016-07-25T10:52:41.000Z</time>
      </trkpt>
      <trkpt lat="44.28521" lon="4.5467">
        <ele>190</ele>
        <time>2016-07-25T10:52:48.000Z</time>
      </trkpt>
      <trkpt lat="44.28521" lon="4.54669">
        <ele>188</ele>
        <time>2016-07-25T10:52:49.000Z</time>
      </trkpt>
      <trkpt lat="44.28529" lon="4.54664">
        <ele>187</ele>
        <time>2016-07-25T10:52:57.000Z</time>
      </trkpt>
      <trkpt lat="44.28531" lon="4.54662">
        <ele>189</ele>
        <time>2016-07-25T10:52:58.000Z</time>
      </trkpt>
      <trkpt lat="44.28538" lon="4.54655">
        <ele>190</ele>
        <time>2016-07-25T10:53:03.000Z</time>
      </trkpt>
      <trkpt lat="44.28539" lon="4.54655">
        <ele>190</ele>
        <time>2016-07-25T10:53:04.000Z</time>
      </trkpt>
      <trkpt lat="44.28545" lon="4.54651">
        <ele>188</ele>
        <time>2016-07-25T10:53:08.000Z</time>
      </trkpt>
      <trkpt lat="44.28548" lon="4.54648">
        <ele>190</ele>
        <time>2016-07-25T10:53:09.000Z</time>
      </trkpt>
      <trkpt lat="44.28555" lon="4.54646">
        <ele>189</ele>
        <time>2016-07-25T10:53:16.000Z</time>
      </trkpt>
      <trkpt lat="44.28557" lon="4.54644">
        <ele>189</ele>
        <time>2016-07-25T10:53:17.000Z</time>
      </trkpt>
      <trkpt lat="44.28563" lon="4.54637">
        <ele>185</ele>
        <time>2016-07-25T10:53:21.000Z</time>
      </trkpt>
      <trkpt lat="44.28566" lon="4.54639">
        <ele>185</ele>
        <time>2016-07-25T10:53:22.000Z</time>
      </trkpt>
      <trkpt lat="44.28572" lon="4.54634">
        <ele>187</ele>
        <time>2016-07-25T10:53:24.000Z</time>
      </trkpt>
      <trkpt lat="44.28575" lon="4.54632">
        <ele>187</ele>
        <time>2016-07-25T10:53:25.000Z</time>
      </trkpt>
      <trkpt lat="44.28582" lon="4.54629">
        <ele>184</ele>
        <time>2016-07-25T10:53:28.000Z</time>
      </trkpt>
      <trkpt lat="44.28583" lon="4.54628">
        <ele>182</ele>
        <time>2016-07-25T10:53:29.000Z</time>
      </trkpt>
      <trkpt lat="44.2859" lon="4.54622">
        <ele>179</ele>
        <time>2016-07-25T10:53:34.000Z</time>
      </trkpt>
      <trkpt lat="44.28592" lon="4.54621">
        <ele>180</ele>
        <time>2016-07-25T10:53:35.000Z</time>
      </trkpt>
      <trkpt lat="44.28599" lon="4.54614">
        <ele>183</ele>
        <time>2016-07-25T10:53:39.000Z</time>
      </trkpt>
      <trkpt lat="44.286" lon="4.54612">
        <ele>184</ele>
        <time>2016-07-25T10:53:40.000Z</time>
      </trkpt>
      <trkpt lat="44.28607" lon="4.54606">
        <ele>187</ele>
        <time>2016-07-25T10:53:43.000Z</time>
      </trkpt>
      <trkpt lat="44.28608" lon="4.54604">
        <ele>188</ele>
        <time>2016-07-25T10:53:44.000Z</time>
      </trkpt>
      <trkpt lat="44.28614" lon="4.54599">
        <ele>189</ele>
        <time>2016-07-25T10:53:48.000Z</time>
      </trkpt>
      <trkpt lat="44.28617" lon="4.54597">
        <ele>188</ele>
        <time>2016-07-25T10:53:49.000Z</time>
      </trkpt>
      <trkpt lat="44.28625" lon="4.54592">
        <ele>191</ele>
        <time>2016-07-25T10:53:53.000Z</time>
      </trkpt>
      <trkpt lat="44.28625" lon="4.54591">
        <ele>189</ele>
        <time>2016-07-25T10:53:54.000Z</time>
      </trkpt>
      <trkpt lat="44.28626" lon="4.5458">
        <ele>183</ele>
        <time>2016-07-25T10:54:00.000Z</time>
      </trkpt>
      <trkpt lat="44.28625" lon="4.54578">
        <ele>182</ele>
        <time>2016-07-25T10:54:01.000Z</time>
      </trkpt>
      <trkpt lat="44.2862" lon="4.54569">
        <ele>181</ele>
        <time>2016-07-25T10:54:06.000Z</time>
      </trkpt>
      <trkpt lat="44.2862" lon="4.54568">
        <ele>182</ele>
        <time>2016-07-25T10:54:07.000Z</time>
      </trkpt>
      <trkpt lat="44.28614" lon="4.54558">
        <ele>185</ele>
        <time>2016-07-25T10:54:19.000Z</time>
      </trkpt>
      <trkpt lat="44.28615" lon="4.54556">
        <ele>186</ele>
        <time>2016-07-25T10:54:20.000Z</time>
      </trkpt>
      <trkpt lat="44.28612" lon="4.54545">
        <ele>185</ele>
        <time>2016-07-25T10:54:33.000Z</time>
      </trkpt>
      <trkpt lat="44.28612" lon="4.54544">
        <ele>185</ele>
        <time>2016-07-25T10:54:34.000Z</time>
      </trkpt>
      <trkpt lat="44.28611" lon="4.54532">
        <ele>190</ele>
        <time>2016-07-25T10:54:50.000Z</time>
      </trkpt>
      <trkpt lat="44.28611" lon="4.54531">
        <ele>190</ele>
        <time>2016-07-25T10:54:51.000Z</time>
      </trkpt>
      <trkpt lat="44.28609" lon="4.54519">
        <ele>191</ele>
        <time>2016-07-25T10:55:01.000Z</time>
      </trkpt>
      <trkpt lat="44.2861" lon="4.54518">
        <ele>191</ele>
        <time>2016-07-25T10:55:02.000Z</time>
      </trkpt>
      <trkpt lat="44.28614" lon="4.54508">
        <ele>194</ele>
        <time>2016-07-25T10:55:10.000Z</time>
      </trkpt>
      <trkpt lat="44.28615" lon="4.54507">
        <ele>195</ele>
        <time>2016-07-25T10:55:11.000Z</time>
      </trkpt>
      <trkpt lat="44.28618" lon="4.54498">
        <ele>195</ele>
        <time>2016-07-25T10:55:16.000Z</time>
      </trkpt>
      <trkpt lat="44.2862" lon="4.54495">
        <ele>196</ele>
        <time>2016-07-25T10:55:17.000Z</time>
      </trkpt>
      <trkpt lat="44.28622" lon="4.54485">
        <ele>196</ele>
        <time>2016-07-25T10:55:21.000Z</time>
      </trkpt>
      <trkpt lat="44.28624" lon="4.54483">
        <ele>198</ele>
        <time>2016-07-25T10:55:22.000Z</time>
      </trkpt>
      <trkpt lat="44.28629" lon="4.54475">
        <ele>195</ele>
        <time>2016-07-25T10:55:28.000Z</time>
      </trkpt>
      <trkpt lat="44.2863" lon="4.54473">
        <ele>194</ele>
        <time>2016-07-25T10:55:29.000Z</time>
      </trkpt>
      <trkpt lat="44.28631" lon="4.54461">
        <ele>192</ele>
        <time>2016-07-25T10:55:35.000Z</time>
      </trkpt>
      <trkpt lat="44.28631" lon="4.5446">
        <ele>193</ele>
        <time>2016-07-25T10:55:36.000Z</time>
      </trkpt>
      <trkpt lat="44.28629" lon="4.5445">
        <ele>191</ele>
        <time>2016-07-25T10:55:41.000Z</time>
      </trkpt>
      <trkpt lat="44.28627" lon="4.54447">
        <ele>192</ele>
        <time>2016-07-25T10:55:42.000Z</time>
      </trkpt>
      <trkpt lat="44.28623" lon="4.54438">
        <ele>187</ele>
        <time>2016-07-25T10:55:47.000Z</time>
      </trkpt>
      <trkpt lat="44.28622" lon="4.54436">
        <ele>187</ele>
        <time>2016-07-25T10:55:48.000Z</time>
      </trkpt>
      <trkpt lat="44.28616" lon="4.54428">
        <ele>190</ele>
        <time>2016-07-25T10:55:53.000Z</time>
      </trkpt>
      <trkpt lat="44.28614" lon="4.54427">
        <ele>191</ele>
        <time>2016-07-25T10:55:54.000Z</time>
      </trkpt>
      <trkpt lat="44.28607" lon="4.5442">
        <ele>188</ele>
        <time>2016-07-25T10:56:00.000Z</time>
      </trkpt>
      <trkpt lat="44.28606" lon="4.54419">
        <ele>187</ele>
        <time>2016-07-25T10:56:01.000Z</time>
      </trkpt>
      <trkpt lat="44.28599" lon="4.54413">
        <ele>184</ele>
        <time>2016-07-25T10:56:06.000Z</time>
      </trkpt>
      <trkpt lat="44.28598" lon="4.54411">
        <ele>182</ele>
        <time>2016-07-25T10:56:07.000Z</time>
      </trkpt>
      <trkpt lat="44.28593" lon="4.54404">
        <ele>174</ele>
        <time>2016-07-25T10:56:12.000Z</time>
      </trkpt>
      <trkpt lat="44.28591" lon="4.54403">
        <ele>175</ele>
        <time>2016-07-25T10:56:13.000Z</time>
      </trkpt>
      <trkpt lat="44.28586" lon="4.54396">
        <ele>173</ele>
        <time>2016-07-25T10:56:19.000Z</time>
      </trkpt>
      <trkpt lat="44.28584" lon="4.54394">
        <ele>172</ele>
        <time>2016-07-25T10:56:20.000Z</time>
      </trkpt>
      <trkpt lat="44.28577" lon="4.54388">
        <ele>173</ele>
        <time>2016-07-25T10:56:26.000Z</time>
      </trkpt>
      <trkpt lat="44.28576" lon="4.54385">
        <ele>171</ele>
        <time>2016-07-25T10:56:27.000Z</time>
      </trkpt>
      <trkpt lat="44.28571" lon="4.54375">
        <ele>169</ele>
        <time>2016-07-25T10:56:32.000Z</time>
      </trkpt>
      <trkpt lat="44.2857" lon="4.54374">
        <ele>168</ele>
        <time>2016-07-25T10:56:33.000Z</time>
      </trkpt>
      <trkpt lat="44.28564" lon="4.54367">
        <ele>169</ele>
        <time>2016-07-25T10:56:38.000Z</time>
      </trkpt>
      <trkpt lat="44.28563" lon="4.54365">
        <ele>170</ele>
        <time>2016-07-25T10:56:39.000Z</time>
      </trkpt>
      <trkpt lat="44.28559" lon="4.54357">
        <ele>168</ele>
        <time>2016-07-25T10:56:44.000Z</time>
      </trkpt>
      <trkpt lat="44.28557" lon="4.54354">
        <ele>166</ele>
        <time>2016-07-25T10:56:45.000Z</time>
      </trkpt>
      <trkpt lat="44.28554" lon="4.54343">
        <ele>163</ele>
        <time>2016-07-25T10:56:50.000Z</time>
      </trkpt>
      <trkpt lat="44.28553" lon="4.54341">
        <ele>163</ele>
        <time>2016-07-25T10:56:51.000Z</time>
      </trkpt>
      <trkpt lat="44.28548" lon="4.54331">
        <ele>165</ele>
        <time>2016-07-25T10:56:56.000Z</time>
      </trkpt>
      <trkpt lat="44.28546" lon="4.54328">
        <ele>165</ele>
        <time>2016-07-25T10:56:57.000Z</time>
      </trkpt>
      <trkpt lat="44.2854" lon="4.54318">
        <ele>169</ele>
        <time>2016-07-25T10:57:00.000Z</time>
      </trkpt>
      <trkpt lat="44.28539" lon="4.54316">
        <ele>170</ele>
        <time>2016-07-25T10:57:01.000Z</time>
      </trkpt>
      <trkpt lat="44.28537" lon="4.54306">
        <ele>172</ele>
        <time>2016-07-25T10:57:04.000Z</time>
      </trkpt>
      <trkpt lat="44.28537" lon="4.54304">
        <ele>173</ele>
        <time>2016-07-25T10:57:05.000Z</time>
      </trkpt>
      <trkpt lat="44.28538" lon="4.54292">
        <ele>175</ele>
        <time>2016-07-25T10:57:10.000Z</time>
      </trkpt>
      <trkpt lat="44.28538" lon="4.5429">
        <ele>174</ele>
        <time>2016-07-25T10:57:11.000Z</time>
      </trkpt>
      <trkpt lat="44.28538" lon="4.5428">
        <ele>175</ele>
        <time>2016-07-25T10:57:14.000Z</time>
      </trkpt>
      <trkpt lat="44.28539" lon="4.54276">
        <ele>176</ele>
        <time>2016-07-25T10:57:15.000Z</time>
      </trkpt>
      <trkpt lat="44.28536" lon="4.54268">
        <ele>177</ele>
        <time>2016-07-25T10:57:18.000Z</time>
      </trkpt>
      <trkpt lat="44.28534" lon="4.54264">
        <ele>177</ele>
        <time>2016-07-25T10:57:19.000Z</time>
      </trkpt>
      <trkpt lat="44.28532" lon="4.54255">
        <ele>178</ele>
        <time>2016-07-25T10:57:23.000Z</time>
      </trkpt>
      <trkpt lat="44.28532" lon="4.54251">
        <ele>177</ele>
        <time>2016-07-25T10:57:24.000Z</time>
      </trkpt>
      <trkpt lat="44.28528" lon="4.5424">
        <ele>175</ele>
        <time>2016-07-25T10:57:27.000Z</time>
      </trkpt>
      <trkpt lat="44.28527" lon="4.54237">
        <ele>176</ele>
        <time>2016-07-25T10:57:28.000Z</time>
      </trkpt>
      <trkpt lat="44.28526" lon="4.54229">
        <ele>174</ele>
        <time>2016-07-25T10:57:33.000Z</time>
      </trkpt>
      <trkpt lat="44.28525" lon="4.54223">
        <ele>174</ele>
        <time>2016-07-25T10:57:34.000Z</time>
      </trkpt>
      <trkpt lat="44.28524" lon="4.54211">
        <ele>173</ele>
        <time>2016-07-25T10:57:36.000Z</time>
      </trkpt>
      <trkpt lat="44.28523" lon="4.54208">
        <ele>175</ele>
        <time>2016-07-25T10:57:37.000Z</time>
      </trkpt>
      <trkpt lat="44.28526" lon="4.54195">
        <ele>178</ele>
        <time>2016-07-25T10:57:41.000Z</time>
      </trkpt>
      <trkpt lat="44.28526" lon="4.54194">
        <ele>179</ele>
        <time>2016-07-25T10:57:42.000Z</time>
      </trkpt>
      <trkpt lat="44.28526" lon="4.54191">
        <ele>181</ele>
        <time>2016-07-25T10:57:43.000Z</time>
      </trkpt>
      <trkpt lat="44.28526" lon="4.54188">
        <ele>183</ele>
        <time>2016-07-25T10:57:44.000Z</time>
      </trkpt>
      <trkpt lat="44.28526" lon="4.54178">
        <ele>188</ele>
        <time>2016-07-25T10:58:00.000Z</time>
      </trkpt>
      <trkpt lat="44.28526" lon="4.54178">
        <ele>188</ele>
        <time>2016-07-25T10:58:01.000Z</time>
      </trkpt>
      <trkpt lat="44.28531" lon="4.54168">
        <ele>190</ele>
        <time>2016-07-25T10:58:11.000Z</time>
      </trkpt>
      <trkpt lat="44.28532" lon="4.54168">
        <ele>190</ele>
        <time>2016-07-25T10:58:12.000Z</time>
      </trkpt>
      <trkpt lat="44.28539" lon="4.54163">
        <ele>189</ele>
        <time>2016-07-25T10:58:17.000Z</time>
      </trkpt>
      <trkpt lat="44.2854" lon="4.54163">
        <ele>189</ele>
        <time>2016-07-25T10:58:18.000Z</time>
      </trkpt>
      <trkpt lat="44.28549" lon="4.54161">
        <ele>196</ele>
        <time>2016-07-25T10:58:26.000Z</time>
      </trkpt>
      <trkpt lat="44.28549" lon="4.54161">
        <ele>197</ele>
        <time>2016-07-25T10:58:27.000Z</time>
      </trkpt>
      <trkpt lat="44.28549" lon="4.54149">
        <ele>193</ele>
        <time>2016-07-25T10:59:07.000Z</time>
      </trkpt>
      <trkpt lat="44.2855" lon="4.54147">
        <ele>193</ele>
        <time>2016-07-25T10:59:08.000Z</time>
      </trkpt>
      <trkpt lat="44.2855" lon="4.54138">
        <ele>194</ele>
        <time>2016-07-25T10:59:10.000Z</time>
      </trkpt>
      <trkpt lat="44.2855" lon="4.54134">
        <ele>194</ele>
        <time>2016-07-25T10:59:11.000Z</time>
      </trkpt>
      <trkpt lat="44.28553" lon="4.54122">
        <ele>192</ele>
        <time>2016-07-25T10:59:14.000Z</time>
      </trkpt>
      <trkpt lat="44.28555" lon="4.54118">
        <ele>191</ele>
        <time>2016-07-25T10:59:15.000Z</time>
      </trkpt>
      <trkpt lat="44.28561" lon="4.5411">
        <ele>194</ele>
        <time>2016-07-25T10:59:18.000Z</time>
      </trkpt>
      <trkpt lat="44.28563" lon="4.54108">
        <ele>195</ele>
        <time>2016-07-25T10:59:19.000Z</time>
      </trkpt>
      <trkpt lat="44.28568" lon="4.54102">
        <ele>196</ele>
        <time>2016-07-25T10:59:21.000Z</time>
      </trkpt>
      <trkpt lat="44.28571" lon="4.54098">
        <ele>196</ele>
        <time>2016-07-25T10:59:22.000Z</time>
      </trkpt>
      <trkpt lat="44.28576" lon="4.54089">
        <ele>195</ele>
        <time>2016-07-25T10:59:24.000Z</time>
      </trkpt>
      <trkpt lat="44.28578" lon="4.54083">
        <ele>195</ele>
        <time>2016-07-25T10:59:25.000Z</time>
      </trkpt>
      <trkpt lat="44.28579" lon="4.54071">
        <ele>195</ele>
        <time>2016-07-25T10:59:27.000Z</time>
      </trkpt>
      <trkpt lat="44.2858" lon="4.54065">
        <ele>196</ele>
        <time>2016-07-25T10:59:28.000Z</time>
      </trkpt>
      <trkpt lat="44.28584" lon="4.54054">
        <ele>196</ele>
        <time>2016-07-25T10:59:30.000Z</time>
      </trkpt>
      <trkpt lat="44.28587" lon="4.5405">
        <ele>196</ele>
        <time>2016-07-25T10:59:31.000Z</time>
      </trkpt>
      <trkpt lat="44.28595" lon="4.54051">
        <ele>197</ele>
        <time>2016-07-25T10:59:34.000Z</time>
      </trkpt>
      <trkpt lat="44.28597" lon="4.54052">
        <ele>197</ele>
        <time>2016-07-25T10:59:35.000Z</time>
      </trkpt>
      <trkpt lat="44.28606" lon="4.54056">
        <ele>197</ele>
        <time>2016-07-25T10:59:39.000Z</time>
      </trkpt>
      <trkpt lat="44.28607" lon="4.54057">
        <ele>197</ele>
        <time>2016-07-25T10:59:40.000Z</time>
      </trkpt>
      <trkpt lat="44.28615" lon="4.54057">
        <ele>195</ele>
        <time>2016-07-25T10:59:43.000Z</time>
      </trkpt>
      <trkpt lat="44.28618" lon="4.54058">
        <ele>194</ele>
        <time>2016-07-25T10:59:44.000Z</time>
      </trkpt>
      <trkpt lat="44.28626" lon="4.5406">
        <ele>195</ele>
        <time>2016-07-25T10:59:48.000Z</time>
      </trkpt>
      <trkpt lat="44.28629" lon="4.54059">
        <ele>195</ele>
        <time>2016-07-25T10:59:49.000Z</time>
      </trkpt>
      <trkpt lat="44.28637" lon="4.5406">
        <ele>197</ele>
        <time>2016-07-25T10:59:53.000Z</time>
      </trkpt>
      <trkpt lat="44.28639" lon="4.5406">
        <ele>198</ele>
        <time>2016-07-25T10:59:54.000Z</time>
      </trkpt>
      <trkpt lat="44.28645" lon="4.54057">
        <ele>197</ele>
        <time>2016-07-25T10:59:57.000Z</time>
      </trkpt>
      <trkpt lat="44.28648" lon="4.54056">
        <ele>197</ele>
        <time>2016-07-25T10:59:58.000Z</time>
      </trkpt>
      <trkpt lat="44.28656" lon="4.54055">
        <ele>197</ele>
        <time>2016-07-25T11:00:02.000Z</time>
      </trkpt>
      <trkpt lat="44.28657" lon="4.54055">
        <ele>196</ele>
        <time>2016-07-25T11:00:03.000Z</time>
      </trkpt>
      <trkpt lat="44.28664" lon="4.54055">
        <ele>196</ele>
        <time>2016-07-25T11:00:07.000Z</time>
      </trkpt>
      <trkpt lat="44.28667" lon="4.54054">
        <ele>195</ele>
        <time>2016-07-25T11:00:08.000Z</time>
      </trkpt>
      <trkpt lat="44.28672" lon="4.5405">
        <ele>191</ele>
        <time>2016-07-25T11:00:12.000Z</time>
      </trkpt>
      <trkpt lat="44.28675" lon="4.54048">
        <ele>191</ele>
        <time>2016-07-25T11:00:13.000Z</time>
      </trkpt>
      <trkpt lat="44.28679" lon="4.54039">
        <ele>190</ele>
        <time>2016-07-25T11:00:16.000Z</time>
      </trkpt>
      <trkpt lat="44.2868" lon="4.54037">
        <ele>192</ele>
        <time>2016-07-25T11:00:17.000Z</time>
      </trkpt>
      <trkpt lat="44.2868" lon="4.54028">
        <ele>193</ele>
        <time>2016-07-25T11:00:19.000Z</time>
      </trkpt>
      <trkpt lat="44.28678" lon="4.54024">
        <ele>193</ele>
        <time>2016-07-25T11:00:20.000Z</time>
      </trkpt>
      <trkpt lat="44.28675" lon="4.54012">
        <ele>193</ele>
        <time>2016-07-25T11:00:23.000Z</time>
      </trkpt>
      <trkpt lat="44.28674" lon="4.54008">
        <ele>192</ele>
        <time>2016-07-25T11:00:24.000Z</time>
      </trkpt>
      <trkpt lat="44.28672" lon="4.54">
        <ele>194</ele>
        <time>2016-07-25T11:00:26.000Z</time>
      </trkpt>
      <trkpt lat="44.28671" lon="4.53996">
        <ele>193</ele>
        <time>2016-07-25T11:00:27.000Z</time>
      </trkpt>
      <trkpt lat="44.2867" lon="4.53987">
        <ele>193</ele>
        <time>2016-07-25T11:00:29.000Z</time>
      </trkpt>
      <trkpt lat="44.2867" lon="4.53981">
        <ele>194</ele>
        <time>2016-07-25T11:00:30.000Z</time>
      </trkpt>
      <trkpt lat="44.28668" lon="4.53972">
        <ele>191</ele>
        <time>2016-07-25T11:00:32.000Z</time>
      </trkpt>
      <trkpt lat="44.28669" lon="4.53967">
        <ele>191</ele>
        <time>2016-07-25T11:00:33.000Z</time>
      </trkpt>
      <trkpt lat="44.28673" lon="4.53959">
        <ele>188</ele>
        <time>2016-07-25T11:00:36.000Z</time>
      </trkpt>
      <trkpt lat="44.28675" lon="4.53958">
        <ele>187</ele>
        <time>2016-07-25T11:00:37.000Z</time>
      </trkpt>
      <trkpt lat="44.2868" lon="4.53949">
        <ele>185</ele>
        <time>2016-07-25T11:00:40.000Z</time>
      </trkpt>
      <trkpt lat="44.28683" lon="4.53945">
        <ele>186</ele>
        <time>2016-07-25T11:00:41.000Z</time>
      </trkpt>
      <trkpt lat="44.28689" lon="4.5394">
        <ele>189</ele>
        <time>2016-07-25T11:00:43.000Z</time>
      </trkpt>
      <trkpt lat="44.28692" lon="4.53938">
        <ele>189</ele>
        <time>2016-07-25T11:00:44.000Z</time>
      </trkpt>
      <trkpt lat="44.28698" lon="4.53935">
        <ele>190</ele>
        <time>2016-07-25T11:00:46.000Z</time>
      </trkpt>
      <trkpt lat="44.287" lon="4.53933">
        <ele>189</ele>
        <time>2016-07-25T11:00:47.000Z</time>
      </trkpt>
      <trkpt lat="44.28707" lon="4.53929">
        <ele>187</ele>
        <time>2016-07-25T11:00:50.000Z</time>
      </trkpt>
      <trkpt lat="44.2871" lon="4.53928">
        <ele>186</ele>
        <time>2016-07-25T11:00:51.000Z</time>
      </trkpt>
      <trkpt lat="44.28717" lon="4.53926">
        <ele>185</ele>
        <time>2016-07-25T11:00:53.000Z</time>
      </trkpt>
      <trkpt lat="44.2872" lon="4.53924">
        <ele>185</ele>
        <time>2016-07-25T11:00:54.000Z</time>
      </trkpt>
      <trkpt lat="44.28726" lon="4.53919">
        <ele>186</ele>
        <time>2016-07-25T11:00:56.000Z</time>
      </trkpt>
      <trkpt lat="44.28731" lon="4.53917">
        <ele>186</ele>
        <time>2016-07-25T11:00:57.000Z</time>
      </trkpt>
      <trkpt lat="44.28738" lon="4.53915">
        <ele>185</ele>
        <time>2016-07-25T11:00:59.000Z</time>
      </trkpt>
      <trkpt lat="44.28741" lon="4.53914">
        <ele>185</ele>
        <time>2016-07-25T11:01:00.000Z</time>
      </trkpt>
      <trkpt lat="44.28748" lon="4.53911">
        <ele>191</ele>
        <time>2016-07-25T11:01:02.000Z</time>
      </trkpt>
      <trkpt lat="44.28752" lon="4.5391">
        <ele>191</ele>
        <time>2016-07-25T11:01:03.000Z</time>
      </trkpt>
      <trkpt lat="44.28759" lon="4.53909">
        <ele>192</ele>
        <time>2016-07-25T11:01:05.000Z</time>
      </trkpt>
      <trkpt lat="44.28762" lon="4.5391">
        <ele>191</ele>
        <time>2016-07-25T11:01:06.000Z</time>
      </trkpt>
      <trkpt lat="44.2877" lon="4.5391">
        <ele>192</ele>
        <time>2016-07-25T11:01:09.000Z</time>
      </trkpt>
      <trkpt lat="44.28773" lon="4.5391">
        <ele>192</ele>
        <time>2016-07-25T11:01:10.000Z</time>
      </trkpt>
      <trkpt lat="44.28779" lon="4.5391">
        <ele>191</ele>
        <time>2016-07-25T11:01:12.000Z</time>
      </trkpt>
      <trkpt lat="44.28783" lon="4.53908">
        <ele>192</ele>
        <time>2016-07-25T11:01:13.000Z</time>
      </trkpt>
      <trkpt lat="44.28788" lon="4.53907">
        <ele>193</ele>
        <time>2016-07-25T11:01:14.000Z</time>
      </trkpt>
      <trkpt lat="44.28794" lon="4.53906">
        <ele>193</ele>
        <time>2016-07-25T11:01:15.000Z</time>
      </trkpt>
      <trkpt lat="44.28798" lon="4.53905">
        <ele>191</ele>
        <time>2016-07-25T11:01:16.000Z</time>
      </trkpt>
      <trkpt lat="44.28804" lon="4.53903">
        <ele>190</ele>
        <time>2016-07-25T11:01:17.000Z</time>
      </trkpt>
      <trkpt lat="44.28809" lon="4.53902">
        <ele>188</ele>
        <time>2016-07-25T11:01:18.000Z</time>
      </trkpt>
      <trkpt lat="44.28816" lon="4.53899">
        <ele>188</ele>
        <time>2016-07-25T11:01:19.000Z</time>
      </trkpt>
      <trkpt lat="44.28821" lon="4.53896">
        <ele>190</ele>
        <time>2016-07-25T11:01:20.000Z</time>
      </trkpt>
      <trkpt lat="44.28827" lon="4.53893">
        <ele>190</ele>
        <time>2016-07-25T11:01:21.000Z</time>
      </trkpt>
      <trkpt lat="44.28833" lon="4.53891">
        <ele>192</ele>
        <time>2016-07-25T11:01:22.000Z</time>
      </trkpt>
      <trkpt lat="44.28838" lon="4.53889">
        <ele>191</ele>
        <time>2016-07-25T11:01:23.000Z</time>
      </trkpt>
      <trkpt lat="44.28842" lon="4.53885">
        <ele>190</ele>
        <time>2016-07-25T11:01:24.000Z</time>
      </trkpt>
      <trkpt lat="44.28845" lon="4.5388">
        <ele>190</ele>
        <time>2016-07-25T11:01:25.000Z</time>
      </trkpt>
      <trkpt lat="44.28847" lon="4.53875">
        <ele>190</ele>
        <time>2016-07-25T11:01:26.000Z</time>
      </trkpt>
      <trkpt lat="44.28851" lon="4.53871">
        <ele>189</ele>
        <time>2016-07-25T11:01:27.000Z</time>
      </trkpt>
      <trkpt lat="44.28857" lon="4.53862">
        <ele>189</ele>
        <time>2016-07-25T11:01:29.000Z</time>
      </trkpt>
      <trkpt lat="44.2886" lon="4.53857">
        <ele>189</ele>
        <time>2016-07-25T11:01:30.000Z</time>
      </trkpt>
      <trkpt lat="44.28863" lon="4.53845">
        <ele>188</ele>
        <time>2016-07-25T11:01:32.000Z</time>
      </trkpt>
      <trkpt lat="44.28864" lon="4.53839">
        <ele>188</ele>
        <time>2016-07-25T11:01:33.000Z</time>
      </trkpt>
      <trkpt lat="44.28862" lon="4.53828">
        <ele>185</ele>
        <time>2016-07-25T11:01:35.000Z</time>
      </trkpt>
      <trkpt lat="44.2886" lon="4.53821">
        <ele>184</ele>
        <time>2016-07-25T11:01:36.000Z</time>
      </trkpt>
      <trkpt lat="44.28858" lon="4.53812">
        <ele>184</ele>
        <time>2016-07-25T11:01:38.000Z</time>
      </trkpt>
      <trkpt lat="44.28857" lon="4.53807">
        <ele>183</ele>
        <time>2016-07-25T11:01:39.000Z</time>
      </trkpt>
      <trkpt lat="44.28861" lon="4.53796">
        <ele>185</ele>
        <time>2016-07-25T11:02:22.000Z</time>
      </trkpt>
      <trkpt lat="44.28863" lon="4.53795">
        <ele>186</ele>
        <time>2016-07-25T11:02:23.000Z</time>
      </trkpt>
      <trkpt lat="44.2887" lon="4.53794">
        <ele>187</ele>
        <time>2016-07-25T11:02:25.000Z</time>
      </trkpt>
      <trkpt lat="44.28874" lon="4.53793">
        <ele>186</ele>
        <time>2016-07-25T11:02:26.000Z</time>
      </trkpt>
      <trkpt lat="44.2888" lon="4.53789">
        <ele>183</ele>
        <time>2016-07-25T11:02:28.000Z</time>
      </trkpt>
      <trkpt lat="44.28883" lon="4.53787">
        <ele>182</ele>
        <time>2016-07-25T11:02:29.000Z</time>
      </trkpt>
      <trkpt lat="44.28891" lon="4.53782">
        <ele>183</ele>
        <time>2016-07-25T11:02:31.000Z</time>
      </trkpt>
      <trkpt lat="44.28895" lon="4.53779">
        <ele>183</ele>
        <time>2016-07-25T11:02:32.000Z</time>
      </trkpt>
      <trkpt lat="44.28899" lon="4.53776">
        <ele>184</ele>
        <time>2016-07-25T11:02:33.000Z</time>
      </trkpt>
      <trkpt lat="44.28903" lon="4.53772">
        <ele>184</ele>
        <time>2016-07-25T11:02:34.000Z</time>
      </trkpt>
      <trkpt lat="44.28906" lon="4.53768">
        <ele>183</ele>
        <time>2016-07-25T11:02:35.000Z</time>
      </trkpt>
      <trkpt lat="44.2891" lon="4.53764">
        <ele>182</ele>
        <time>2016-07-25T11:02:36.000Z</time>
      </trkpt>
      <trkpt lat="44.28917" lon="4.53756">
        <ele>181</ele>
        <time>2016-07-25T11:02:38.000Z</time>
      </trkpt>
      <trkpt lat="44.2892" lon="4.53751">
        <ele>181</ele>
        <time>2016-07-25T11:02:39.000Z</time>
      </trkpt>
      <trkpt lat="44.28927" lon="4.53745">
        <ele>181</ele>
        <time>2016-07-25T11:02:41.000Z</time>
      </trkpt>
      <trkpt lat="44.28931" lon="4.53742">
        <ele>181</ele>
        <time>2016-07-25T11:02:42.000Z</time>
      </trkpt>
      <trkpt lat="44.28937" lon="4.53737">
        <ele>179</ele>
        <time>2016-07-25T11:02:44.000Z</time>
      </trkpt>
      <trkpt lat="44.2894" lon="4.53735">
        <ele>179</ele>
        <time>2016-07-25T11:02:45.000Z</time>
      </trkpt>
      <trkpt lat="44.28945" lon="4.53731">
        <ele>176</ele>
        <time>2016-07-25T11:02:47.000Z</time>
      </trkpt>
      <trkpt lat="44.28948" lon="4.53729">
        <ele>175</ele>
        <time>2016-07-25T11:02:48.000Z</time>
      </trkpt>
      <trkpt lat="44.28953" lon="4.53725">
        <ele>174</ele>
        <time>2016-07-25T11:02:50.000Z</time>
      </trkpt>
      <trkpt lat="44.28957" lon="4.53722">
        <ele>172</ele>
        <time>2016-07-25T11:02:51.000Z</time>
      </trkpt>
      <trkpt lat="44.28962" lon="4.5372">
        <ele>170</ele>
        <time>2016-07-25T11:02:52.000Z</time>
      </trkpt>
      <trkpt lat="44.28966" lon="4.53716">
        <ele>171</ele>
        <time>2016-07-25T11:02:53.000Z</time>
      </trkpt>
      <trkpt lat="44.28974" lon="4.5371">
        <ele>171</ele>
        <time>2016-07-25T11:02:55.000Z</time>
      </trkpt>
      <trkpt lat="44.28978" lon="4.53707">
        <ele>170</ele>
        <time>2016-07-25T11:02:56.000Z</time>
      </trkpt>
      <trkpt lat="44.28983" lon="4.53699">
        <ele>170</ele>
        <time>2016-07-25T11:02:58.000Z</time>
      </trkpt>
      <trkpt lat="44.28985" lon="4.53696">
        <ele>170</ele>
        <time>2016-07-25T11:02:59.000Z</time>
      </trkpt>
      <trkpt lat="44.28986" lon="4.53684">
        <ele>169</ele>
        <time>2016-07-25T11:03:01.000Z</time>
      </trkpt>
      <trkpt lat="44.28987" lon="4.53679">
        <ele>168</ele>
        <time>2016-07-25T11:03:02.000Z</time>
      </trkpt>
      <trkpt lat="44.28993" lon="4.53673">
        <ele>167</ele>
        <time>2016-07-25T11:03:04.000Z</time>
      </trkpt>
      <trkpt lat="44.28997" lon="4.53676">
        <ele>166</ele>
        <time>2016-07-25T11:03:05.000Z</time>
      </trkpt>
      <trkpt lat="44.29003" lon="4.5368">
        <ele>167</ele>
        <time>2016-07-25T11:03:07.000Z</time>
      </trkpt>
      <trkpt lat="44.29005" lon="4.53685">
        <ele>167</ele>
        <time>2016-07-25T11:03:08.000Z</time>
      </trkpt>
      <trkpt lat="44.29003" lon="4.53696">
        <ele>165</ele>
        <time>2016-07-25T11:03:10.000Z</time>
      </trkpt>
      <trkpt lat="44.29003" lon="4.53701">
        <ele>165</ele>
        <time>2016-07-25T11:03:11.000Z</time>
      </trkpt>
      <trkpt lat="44.29003" lon="4.53708">
        <ele>165</ele>
        <time>2016-07-25T11:03:12.000Z</time>
      </trkpt>
      <trkpt lat="44.29002" lon="4.53714">
        <ele>164</ele>
        <time>2016-07-25T11:03:13.000Z</time>
      </trkpt>
      <trkpt lat="44.29002" lon="4.53725">
        <ele>165</ele>
        <time>2016-07-25T11:03:15.000Z</time>
      </trkpt>
      <trkpt lat="44.29003" lon="4.53731">
        <ele>164</ele>
        <time>2016-07-25T11:03:16.000Z</time>
      </trkpt>
      <trkpt lat="44.2901" lon="4.53737">
        <ele>162</ele>
        <time>2016-07-25T11:03:18.000Z</time>
      </trkpt>
      <trkpt lat="44.29014" lon="4.53739">
        <ele>162</ele>
        <time>2016-07-25T11:03:19.000Z</time>
      </trkpt>
      <trkpt lat="44.2902" lon="4.53742">
        <ele>161</ele>
        <time>2016-07-25T11:03:21.000Z</time>
      </trkpt>
      <trkpt lat="44.29025" lon="4.53743">
        <ele>162</ele>
        <time>2016-07-25T11:03:22.000Z</time>
      </trkpt>
      <trkpt lat="44.2903" lon="4.53744">
        <ele>164</ele>
        <time>2016-07-25T11:03:23.000Z</time>
      </trkpt>
      <trkpt lat="44.29034" lon="4.53748">
        <ele>163</ele>
        <time>2016-07-25T11:03:24.000Z</time>
      </trkpt>
      <trkpt lat="44.29039" lon="4.53752">
        <ele>163</ele>
        <time>2016-07-25T11:03:25.000Z</time>
      </trkpt>
      <trkpt lat="44.29043" lon="4.53758">
        <ele>162</ele>
        <time>2016-07-25T11:03:26.000Z</time>
      </trkpt>
      <trkpt lat="44.29045" lon="4.53764">
        <ele>162</ele>
        <time>2016-07-25T11:03:27.000Z</time>
      </trkpt>
      <trkpt lat="44.29046" lon="4.53771">
        <ele>161</ele>
        <time>2016-07-25T11:03:28.000Z</time>
      </trkpt>
      <trkpt lat="44.2905" lon="4.53777">
        <ele>161</ele>
        <time>2016-07-25T11:03:29.000Z</time>
      </trkpt>
      <trkpt lat="44.29051" lon="4.53783">
        <ele>160</ele>
        <time>2016-07-25T11:03:30.000Z</time>
      </trkpt>
      <trkpt lat="44.29051" lon="4.53795">
        <ele>160</ele>
        <time>2016-07-25T11:03:32.000Z</time>
      </trkpt>
      <trkpt lat="44.29052" lon="4.53799">
        <ele>159</ele>
        <time>2016-07-25T11:03:33.000Z</time>
      </trkpt>
      <trkpt lat="44.29058" lon="4.53807">
        <ele>160</ele>
        <time>2016-07-25T11:03:35.000Z</time>
      </trkpt>
      <trkpt lat="44.29061" lon="4.5381">
        <ele>160</ele>
        <time>2016-07-25T11:03:36.000Z</time>
      </trkpt>
      <trkpt lat="44.29066" lon="4.53803">
        <ele>160</ele>
        <time>2016-07-25T11:03:38.000Z</time>
      </trkpt>
      <trkpt lat="44.29066" lon="4.53799">
        <ele>159</ele>
        <time>2016-07-25T11:03:39.000Z</time>
      </trkpt>
      <trkpt lat="44.29068" lon="4.53788">
        <ele>157</ele>
        <time>2016-07-25T11:03:41.000Z</time>
      </trkpt>
      <trkpt lat="44.29067" lon="4.53779">
        <ele>159</ele>
        <time>2016-07-25T11:03:42.000Z</time>
      </trkpt>
      <trkpt lat="44.29067" lon="4.53771">
        <ele>159</ele>
        <time>2016-07-25T11:03:43.000Z</time>
      </trkpt>
      <trkpt lat="44.29065" lon="4.53764">
        <ele>159</ele>
        <time>2016-07-25T11:03:44.000Z</time>
      </trkpt>
      <trkpt lat="44.29063" lon="4.53757">
        <ele>157</ele>
        <time>2016-07-25T11:03:45.000Z</time>
      </trkpt>
      <trkpt lat="44.29062" lon="4.53749">
        <ele>158</ele>
        <time>2016-07-25T11:03:46.000Z</time>
      </trkpt>
      <trkpt lat="44.29061" lon="4.53742">
        <ele>160</ele>
        <time>2016-07-25T11:03:47.000Z</time>
      </trkpt>
      <trkpt lat="44.29058" lon="4.53732">
        <ele>160</ele>
        <time>2016-07-25T11:03:48.000Z</time>
      </trkpt>
      <trkpt lat="44.29055" lon="4.53723">
        <ele>158</ele>
        <time>2016-07-25T11:03:49.000Z</time>
      </trkpt>
      <trkpt lat="44.29052" lon="4.53714">
        <ele>156</ele>
        <time>2016-07-25T11:03:50.000Z</time>
      </trkpt>
      <trkpt lat="44.29049" lon="4.53706">
        <ele>155</ele>
        <time>2016-07-25T11:03:51.000Z</time>
      </trkpt>
      <trkpt lat="44.29047" lon="4.53701">
        <ele>152</ele>
        <time>2016-07-25T11:03:52.000Z</time>
      </trkpt>
      <trkpt lat="44.29043" lon="4.53694">
        <ele>153</ele>
        <time>2016-07-25T11:03:53.000Z</time>
      </trkpt>
      <trkpt lat="44.2904" lon="4.53686">
        <ele>151</ele>
        <time>2016-07-25T11:03:54.000Z</time>
      </trkpt>
      <trkpt lat="44.29038" lon="4.53679">
        <ele>151</ele>
        <time>2016-07-25T11:03:55.000Z</time>
      </trkpt>
      <trkpt lat="44.29036" lon="4.5367">
        <ele>150</ele>
        <time>2016-07-25T11:03:56.000Z</time>
      </trkpt>
      <trkpt lat="44.29032" lon="4.53666">
        <ele>150</ele>
        <time>2016-07-25T11:03:57.000Z</time>
      </trkpt>
      <trkpt lat="44.29029" lon="4.53655">
        <ele>148</ele>
        <time>2016-07-25T11:03:58.000Z</time>
      </trkpt>
      <trkpt lat="44.29024" lon="4.5365">
        <ele>146</ele>
        <time>2016-07-25T11:04:00.000Z</time>
      </trkpt>
      <trkpt lat="44.29022" lon="4.53643">
        <ele>146</ele>
        <time>2016-07-25T11:04:01.000Z</time>
      </trkpt>
      <trkpt lat="44.29024" lon="4.53631">
        <ele>145</ele>
        <time>2016-07-25T11:04:03.000Z</time>
      </trkpt>
      <trkpt lat="44.29027" lon="4.53622">
        <ele>145</ele>
        <time>2016-07-25T11:04:04.000Z</time>
      </trkpt>
      <trkpt lat="44.2903" lon="4.53616">
        <ele>144</ele>
        <time>2016-07-25T11:04:05.000Z</time>
      </trkpt>
      <trkpt lat="44.29033" lon="4.53612">
        <ele>141</ele>
        <time>2016-07-25T11:04:06.000Z</time>
      </trkpt>
      <trkpt lat="44.29038" lon="4.53607">
        <ele>141</ele>
        <time>2016-07-25T11:04:07.000Z</time>
      </trkpt>
      <trkpt lat="44.29042" lon="4.53601">
        <ele>140</ele>
        <time>2016-07-25T11:04:08.000Z</time>
      </trkpt>
      <trkpt lat="44.29048" lon="4.53597">
        <ele>140</ele>
        <time>2016-07-25T11:04:09.000Z</time>
      </trkpt>
      <trkpt lat="44.29053" lon="4.53592">
        <ele>139</ele>
        <time>2016-07-25T11:04:10.000Z</time>
      </trkpt>
      <trkpt lat="44.29057" lon="4.53587">
        <ele>138</ele>
        <time>2016-07-25T11:04:11.000Z</time>
      </trkpt>
      <trkpt lat="44.29062" lon="4.53582">
        <ele>138</ele>
        <time>2016-07-25T11:04:12.000Z</time>
      </trkpt>
      <trkpt lat="44.29065" lon="4.53576">
        <ele>138</ele>
        <time>2016-07-25T11:04:13.000Z</time>
      </trkpt>
      <trkpt lat="44.29069" lon="4.53572">
        <ele>138</ele>
        <time>2016-07-25T11:04:14.000Z</time>
      </trkpt>
      <trkpt lat="44.29074" lon="4.5357">
        <ele>137</ele>
        <time>2016-07-25T11:04:15.000Z</time>
      </trkpt>
      <trkpt lat="44.29077" lon="4.53564">
        <ele>136</ele>
        <time>2016-07-25T11:04:16.000Z</time>
      </trkpt>
      <trkpt lat="44.29081" lon="4.5356">
        <ele>136</ele>
        <time>2016-07-25T11:04:17.000Z</time>
      </trkpt>
      <trkpt lat="44.29086" lon="4.53556">
        <ele>138</ele>
        <time>2016-07-25T11:04:18.000Z</time>
      </trkpt>
      <trkpt lat="44.29092" lon="4.53555">
        <ele>139</ele>
        <time>2016-07-25T11:04:19.000Z</time>
      </trkpt>
      <trkpt lat="44.29097" lon="4.53553">
        <ele>140</ele>
        <time>2016-07-25T11:04:20.000Z</time>
      </trkpt>
      <trkpt lat="44.29102" lon="4.5355">
        <ele>139</ele>
        <time>2016-07-25T11:04:21.000Z</time>
      </trkpt>
      <trkpt lat="44.29107" lon="4.53547">
        <ele>140</ele>
        <time>2016-07-25T11:04:22.000Z</time>
      </trkpt>
      <trkpt lat="44.29114" lon="4.53549">
        <ele>139</ele>
        <time>2016-07-25T11:04:23.000Z</time>
      </trkpt>
      <trkpt lat="44.29119" lon="4.5355">
        <ele>138</ele>
        <time>2016-07-25T11:04:24.000Z</time>
      </trkpt>
      <trkpt lat="44.29126" lon="4.53553">
        <ele>134</ele>
        <time>2016-07-25T11:04:26.000Z</time>
      </trkpt>
      <trkpt lat="44.29131" lon="4.53556">
        <ele>133</ele>
        <time>2016-07-25T11:04:27.000Z</time>
      </trkpt>
      <trkpt lat="44.29138" lon="4.53562">
        <ele>133</ele>
        <time>2016-07-25T11:04:30.000Z</time>
      </trkpt>
      <trkpt lat="44.29141" lon="4.53563">
        <ele>133</ele>
        <time>2016-07-25T11:04:31.000Z</time>
      </trkpt>
      <trkpt lat="44.29142" lon="4.53553">
        <ele>134</ele>
        <time>2016-07-25T11:04:35.000Z</time>
      </trkpt>
      <trkpt lat="44.29144" lon="4.53548">
        <ele>136</ele>
        <time>2016-07-25T11:04:36.000Z</time>
      </trkpt>
      <trkpt lat="44.29145" lon="4.53537">
        <ele>136</ele>
        <time>2016-07-25T11:04:38.000Z</time>
      </trkpt>
      <trkpt lat="44.29147" lon="4.53534">
        <ele>136</ele>
        <time>2016-07-25T11:04:39.000Z</time>
      </trkpt>
      <trkpt lat="44.29147" lon="4.53527">
        <ele>133</ele>
        <time>2016-07-25T11:04:40.000Z</time>
      </trkpt>
      <trkpt lat="44.29146" lon="4.53521">
        <ele>133</ele>
        <time>2016-07-25T11:04:41.000Z</time>
      </trkpt>
      <trkpt lat="44.29146" lon="4.53509">
        <ele>133</ele>
        <time>2016-07-25T11:04:43.000Z</time>
      </trkpt>
      <trkpt lat="44.29145" lon="4.53501">
        <ele>132</ele>
        <time>2016-07-25T11:04:44.000Z</time>
      </trkpt>
      <trkpt lat="44.29144" lon="4.53494">
        <ele>133</ele>
        <time>2016-07-25T11:04:45.000Z</time>
      </trkpt>
      <trkpt lat="44.29145" lon="4.53488">
        <ele>131</ele>
        <time>2016-07-25T11:04:46.000Z</time>
      </trkpt>
      <trkpt lat="44.29151" lon="4.53484">
        <ele>129</ele>
        <time>2016-07-25T11:04:49.000Z</time>
      </trkpt>
      <trkpt lat="44.29154" lon="4.53483">
        <ele>128</ele>
        <time>2016-07-25T11:04:50.000Z</time>
      </trkpt>
      <trkpt lat="44.2916" lon="4.53483">
        <ele>129</ele>
        <time>2016-07-25T11:04:52.000Z</time>
      </trkpt>
      <trkpt lat="44.29163" lon="4.53483">
        <ele>130</ele>
        <time>2016-07-25T11:04:53.000Z</time>
      </trkpt>
      <trkpt lat="44.29172" lon="4.53481">
        <ele>127</ele>
        <time>2016-07-25T11:04:56.000Z</time>
      </trkpt>
      <trkpt lat="44.29175" lon="4.53481">
        <ele>126</ele>
        <time>2016-07-25T11:04:57.000Z</time>
      </trkpt>
      <trkpt lat="44.2918" lon="4.53479">
        <ele>127</ele>
        <time>2016-07-25T11:04:58.000Z</time>
      </trkpt>
      <trkpt lat="44.29184" lon="4.53476">
        <ele>128</ele>
        <time>2016-07-25T11:04:59.000Z</time>
      </trkpt>
      <trkpt lat="44.2919" lon="4.53469">
        <ele>128</ele>
        <time>2016-07-25T11:05:01.000Z</time>
      </trkpt>
      <trkpt lat="44.29194" lon="4.53466">
        <ele>128</ele>
        <time>2016-07-25T11:05:02.000Z</time>
      </trkpt>
      <trkpt lat="44.29201" lon="4.5346">
        <ele>127</ele>
        <time>2016-07-25T11:05:04.000Z</time>
      </trkpt>
      <trkpt lat="44.29205" lon="4.53461">
        <ele>127</ele>
        <time>2016-07-25T11:05:05.000Z</time>
      </trkpt>
      <trkpt lat="44.29212" lon="4.53462">
        <ele>130</ele>
        <time>2016-07-25T11:05:07.000Z</time>
      </trkpt>
      <trkpt lat="44.29216" lon="4.53463">
        <ele>131</ele>
        <time>2016-07-25T11:05:08.000Z</time>
      </trkpt>
      <trkpt lat="44.29223" lon="4.53465">
        <ele>131</ele>
        <time>2016-07-25T11:05:10.000Z</time>
      </trkpt>
      <trkpt lat="44.29225" lon="4.53467">
        <ele>130</ele>
        <time>2016-07-25T11:05:11.000Z</time>
      </trkpt>
      <trkpt lat="44.29232" lon="4.5347">
        <ele>131</ele>
        <time>2016-07-25T11:05:13.000Z</time>
      </trkpt>
      <trkpt lat="44.29235" lon="4.53472">
        <ele>131</ele>
        <time>2016-07-25T11:05:14.000Z</time>
      </trkpt>
      <trkpt lat="44.29241" lon="4.53477">
        <ele>131</ele>
        <time>2016-07-25T11:05:16.000Z</time>
      </trkpt>
      <trkpt lat="44.29244" lon="4.53479">
        <ele>130</ele>
        <time>2016-07-25T11:05:17.000Z</time>
      </trkpt>
      <trkpt lat="44.29251" lon="4.53483">
        <ele>132</ele>
        <time>2016-07-25T11:05:20.000Z</time>
      </trkpt>
      <trkpt lat="44.29253" lon="4.53484">
        <ele>133</ele>
        <time>2016-07-25T11:05:21.000Z</time>
      </trkpt>
      <trkpt lat="44.29261" lon="4.53489">
        <ele>134</ele>
        <time>2016-07-25T11:05:24.000Z</time>
      </trkpt>
      <trkpt lat="44.29262" lon="4.53491">
        <ele>133</ele>
        <time>2016-07-25T11:05:25.000Z</time>
      </trkpt>
      <trkpt lat="44.2927" lon="4.53493">
        <ele>135</ele>
        <time>2016-07-25T11:05:29.000Z</time>
      </trkpt>
      <trkpt lat="44.29272" lon="4.53494">
        <ele>136</ele>
        <time>2016-07-25T11:05:30.000Z</time>
      </trkpt>
      <trkpt lat="44.2928" lon="4.53494">
        <ele>141</ele>
        <time>2016-07-25T11:05:33.000Z</time>
      </trkpt>
      <trkpt lat="44.29283" lon="4.53493">
        <ele>142</ele>
        <time>2016-07-25T11:05:34.000Z</time>
      </trkpt>
      <trkpt lat="44.2929" lon="4.53496">
        <ele>138</ele>
        <time>2016-07-25T11:05:39.000Z</time>
      </trkpt>
      <trkpt lat="44.29292" lon="4.53495">
        <ele>137</ele>
        <time>2016-07-25T11:05:40.000Z</time>
      </trkpt>
      <trkpt lat="44.293" lon="4.53492">
        <ele>137</ele>
        <time>2016-07-25T11:05:44.000Z</time>
      </trkpt>
      <trkpt lat="44.29302" lon="4.53491">
        <ele>137</ele>
        <time>2016-07-25T11:05:45.000Z</time>
      </trkpt>
      <trkpt lat="44.2931" lon="4.53488">
        <ele>138</ele>
        <time>2016-07-25T11:05:48.000Z</time>
      </trkpt>
      <trkpt lat="44.29312" lon="4.53487">
        <ele>137</ele>
        <time>2016-07-25T11:05:49.000Z</time>
      </trkpt>
      <trkpt lat="44.2932" lon="4.53487">
        <ele>137</ele>
        <time>2016-07-25T11:05:52.000Z</time>
      </trkpt>
      <trkpt lat="44.29322" lon="4.53486">
        <ele>137</ele>
        <time>2016-07-25T11:05:53.000Z</time>
      </trkpt>
      <trkpt lat="44.2933" lon="4.53486">
        <ele>138</ele>
        <time>2016-07-25T11:05:57.000Z</time>
      </trkpt>
      <trkpt lat="44.29332" lon="4.53485">
        <ele>138</ele>
        <time>2016-07-25T11:05:58.000Z</time>
      </trkpt>
      <trkpt lat="44.29341" lon="4.53488">
        <ele>139</ele>
        <time>2016-07-25T11:06:02.000Z</time>
      </trkpt>
      <trkpt lat="44.29343" lon="4.53489">
        <ele>138</ele>
        <time>2016-07-25T11:06:03.000Z</time>
      </trkpt>
      <trkpt lat="44.2935" lon="4.53492">
        <ele>140</ele>
        <time>2016-07-25T11:06:06.000Z</time>
      </trkpt>
      <trkpt lat="44.29352" lon="4.53493">
        <ele>141</ele>
        <time>2016-07-25T11:06:07.000Z</time>
      </trkpt>
      <trkpt lat="44.29358" lon="4.53499">
        <ele>141</ele>
        <time>2016-07-25T11:06:10.000Z</time>
      </trkpt>
      <trkpt lat="44.29359" lon="4.53501">
        <ele>140</ele>
        <time>2016-07-25T11:06:11.000Z</time>
      </trkpt>
      <trkpt lat="44.29367" lon="4.53508">
        <ele>141</ele>
        <time>2016-07-25T11:06:15.000Z</time>
      </trkpt>
      <trkpt lat="44.29369" lon="4.53509">
        <ele>141</ele>
        <time>2016-07-25T11:06:16.000Z</time>
      </trkpt>
      <trkpt lat="44.29375" lon="4.53515">
        <ele>141</ele>
        <time>2016-07-25T11:06:19.000Z</time>
      </trkpt>
      <trkpt lat="44.29377" lon="4.53517">
        <ele>141</ele>
        <time>2016-07-25T11:06:20.000Z</time>
      </trkpt>
      <trkpt lat="44.29385" lon="4.53523">
        <ele>143</ele>
        <time>2016-07-25T11:06:24.000Z</time>
      </trkpt>
      <trkpt lat="44.29387" lon="4.53525">
        <ele>142</ele>
        <time>2016-07-25T11:06:25.000Z</time>
      </trkpt>
      <trkpt lat="44.29394" lon="4.53531">
        <ele>143</ele>
        <time>2016-07-25T11:06:28.000Z</time>
      </trkpt>
      <trkpt lat="44.29395" lon="4.53532">
        <ele>143</ele>
        <time>2016-07-25T11:06:29.000Z</time>
      </trkpt>
      <trkpt lat="44.29402" lon="4.53538">
        <ele>144</ele>
        <time>2016-07-25T11:06:32.000Z</time>
      </trkpt>
      <trkpt lat="44.29404" lon="4.53539">
        <ele>144</ele>
        <time>2016-07-25T11:06:33.000Z</time>
      </trkpt>
      <trkpt lat="44.2941" lon="4.53544">
        <ele>144</ele>
        <time>2016-07-25T11:06:36.000Z</time>
      </trkpt>
      <trkpt lat="44.29413" lon="4.53545">
        <ele>144</ele>
        <time>2016-07-25T11:06:37.000Z</time>
      </trkpt>
      <trkpt lat="44.29419" lon="4.5355">
        <ele>146</ele>
        <time>2016-07-25T11:06:40.000Z</time>
      </trkpt>
      <trkpt lat="44.29421" lon="4.53552">
        <ele>146</ele>
        <time>2016-07-25T11:06:41.000Z</time>
      </trkpt>
      <trkpt lat="44.29429" lon="4.53558">
        <ele>146</ele>
        <time>2016-07-25T11:06:45.000Z</time>
      </trkpt>
      <trkpt lat="44.2943" lon="4.5356">
        <ele>146</ele>
        <time>2016-07-25T11:06:46.000Z</time>
      </trkpt>
      <trkpt lat="44.29437" lon="4.53564">
        <ele>146</ele>
        <time>2016-07-25T11:06:49.000Z</time>
      </trkpt>
      <trkpt lat="44.29438" lon="4.53565">
        <ele>146</ele>
        <time>2016-07-25T11:06:50.000Z</time>
      </trkpt>
      <trkpt lat="44.29446" lon="4.53569">
        <ele>146</ele>
        <time>2016-07-25T11:06:54.000Z</time>
      </trkpt>
      <trkpt lat="44.29448" lon="4.5357">
        <ele>146</ele>
        <time>2016-07-25T11:06:55.000Z</time>
      </trkpt>
      <trkpt lat="44.29456" lon="4.53571">
        <ele>146</ele>
        <time>2016-07-25T11:06:58.000Z</time>
      </trkpt>
      <trkpt lat="44.29459" lon="4.53572">
        <ele>147</ele>
        <time>2016-07-25T11:06:59.000Z</time>
      </trkpt>
      <trkpt lat="44.29466" lon="4.53574">
        <ele>147</ele>
        <time>2016-07-25T11:07:02.000Z</time>
      </trkpt>
      <trkpt lat="44.29468" lon="4.53574">
        <ele>147</ele>
        <time>2016-07-25T11:07:03.000Z</time>
      </trkpt>
      <trkpt lat="44.29476" lon="4.53575">
        <ele>147</ele>
        <time>2016-07-25T11:07:06.000Z</time>
      </trkpt>
      <trkpt lat="44.29479" lon="4.53576">
        <ele>148</ele>
        <time>2016-07-25T11:07:07.000Z</time>
      </trkpt>
      <trkpt lat="44.29486" lon="4.53577">
        <ele>148</ele>
        <time>2016-07-25T11:07:10.000Z</time>
      </trkpt>
      <trkpt lat="44.29488" lon="4.53578">
        <ele>148</ele>
        <time>2016-07-25T11:07:11.000Z</time>
      </trkpt>
      <trkpt lat="44.29495" lon="4.53578">
        <ele>148</ele>
        <time>2016-07-25T11:07:14.000Z</time>
      </trkpt>
      <trkpt lat="44.29497" lon="4.53579">
        <ele>148</ele>
        <time>2016-07-25T11:07:15.000Z</time>
      </trkpt>
      <trkpt lat="44.29504" lon="4.5358">
        <ele>149</ele>
        <time>2016-07-25T11:07:18.000Z</time>
      </trkpt>
      <trkpt lat="44.29507" lon="4.5358">
        <ele>150</ele>
        <time>2016-07-25T11:07:19.000Z</time>
      </trkpt>
      <trkpt lat="44.29514" lon="4.5358">
        <ele>150</ele>
        <time>2016-07-25T11:07:22.000Z</time>
      </trkpt>
      <trkpt lat="44.29516" lon="4.5358">
        <ele>151</ele>
        <time>2016-07-25T11:07:23.000Z</time>
      </trkpt>
      <trkpt lat="44.29523" lon="4.5358">
        <ele>151</ele>
        <time>2016-07-25T11:07:26.000Z</time>
      </trkpt>
      <trkpt lat="44.29526" lon="4.53579">
        <ele>152</ele>
        <time>2016-07-25T11:07:27.000Z</time>
      </trkpt>
      <trkpt lat="44.29534" lon="4.53579">
        <ele>153</ele>
        <time>2016-07-25T11:07:30.000Z</time>
      </trkpt>
      <trkpt lat="44.29537" lon="4.5358">
        <ele>153</ele>
        <time>2016-07-25T11:07:31.000Z</time>
      </trkpt>
      <trkpt lat="44.29544" lon="4.53578">
        <ele>154</ele>
        <time>2016-07-25T11:07:34.000Z</time>
      </trkpt>
      <trkpt lat="44.29546" lon="4.53578">
        <ele>154</ele>
        <time>2016-07-25T11:07:35.000Z</time>
      </trkpt>
      <trkpt lat="44.29553" lon="4.53576">
        <ele>153</ele>
        <time>2016-07-25T11:07:38.000Z</time>
      </trkpt>
      <trkpt lat="44.29556" lon="4.53576">
        <ele>153</ele>
        <time>2016-07-25T11:07:39.000Z</time>
      </trkpt>
      <trkpt lat="44.29563" lon="4.53575">
        <ele>153</ele>
        <time>2016-07-25T11:07:42.000Z</time>
      </trkpt>
      <trkpt lat="44.29565" lon="4.53575">
        <ele>152</ele>
        <time>2016-07-25T11:07:43.000Z</time>
      </trkpt>
      <trkpt lat="44.29573" lon="4.53575">
        <ele>153</ele>
        <time>2016-07-25T11:07:46.000Z</time>
      </trkpt>
      <trkpt lat="44.29576" lon="4.53575">
        <ele>153</ele>
        <time>2016-07-25T11:07:47.000Z</time>
      </trkpt>
      <trkpt lat="44.29583" lon="4.53575">
        <ele>153</ele>
        <time>2016-07-25T11:07:50.000Z</time>
      </trkpt>
      <trkpt lat="44.29585" lon="4.53574">
        <ele>154</ele>
        <time>2016-07-25T11:07:51.000Z</time>
      </trkpt>
      <trkpt lat="44.29593" lon="4.53572">
        <ele>152</ele>
        <time>2016-07-25T11:07:55.000Z</time>
      </trkpt>
      <trkpt lat="44.29595" lon="4.53571">
        <ele>153</ele>
        <time>2016-07-25T11:07:56.000Z</time>
      </trkpt>
      <trkpt lat="44.29602" lon="4.53569">
        <ele>154</ele>
        <time>2016-07-25T11:07:59.000Z</time>
      </trkpt>
      <trkpt lat="44.29604" lon="4.53568">
        <ele>154</ele>
        <time>2016-07-25T11:08:00.000Z</time>
      </trkpt>
      <trkpt lat="44.29612" lon="4.53567">
        <ele>155</ele>
        <time>2016-07-25T11:08:03.000Z</time>
      </trkpt>
      <trkpt lat="44.29614" lon="4.53567">
        <ele>155</ele>
        <time>2016-07-25T11:08:04.000Z</time>
      </trkpt>
      <trkpt lat="44.29622" lon="4.53565">
        <ele>156</ele>
        <time>2016-07-25T11:08:07.000Z</time>
      </trkpt>
      <trkpt lat="44.29624" lon="4.53565">
        <ele>156</ele>
        <time>2016-07-25T11:08:08.000Z</time>
      </trkpt>
      <trkpt lat="44.29632" lon="4.53565">
        <ele>157</ele>
        <time>2016-07-25T11:08:11.000Z</time>
      </trkpt>
      <trkpt lat="44.29634" lon="4.53566">
        <ele>157</ele>
        <time>2016-07-25T11:08:12.000Z</time>
      </trkpt>
      <trkpt lat="44.29641" lon="4.5357">
        <ele>158</ele>
        <time>2016-07-25T11:08:15.000Z</time>
      </trkpt>
      <trkpt lat="44.29642" lon="4.53572">
        <ele>157</ele>
        <time>2016-07-25T11:08:16.000Z</time>
      </trkpt>
      <trkpt lat="44.29648" lon="4.53579">
        <ele>157</ele>
        <time>2016-07-25T11:08:19.000Z</time>
      </trkpt>
      <trkpt lat="44.29648" lon="4.53582">
        <ele>157</ele>
        <time>2016-07-25T11:08:20.000Z</time>
      </trkpt>
      <trkpt lat="44.29651" lon="4.53591">
        <ele>157</ele>
        <time>2016-07-25T11:08:23.000Z</time>
      </trkpt>
      <trkpt lat="44.29652" lon="4.53594">
        <ele>157</ele>
        <time>2016-07-25T11:08:24.000Z</time>
      </trkpt>
      <trkpt lat="44.29653" lon="4.53604">
        <ele>158</ele>
        <time>2016-07-25T11:08:27.000Z</time>
      </trkpt>
      <trkpt lat="44.29653" lon="4.53607">
        <ele>158</ele>
        <time>2016-07-25T11:08:28.000Z</time>
      </trkpt>
      <trkpt lat="44.29656" lon="4.53617">
        <ele>158</ele>
        <time>2016-07-25T11:08:31.000Z</time>
      </trkpt>
      <trkpt lat="44.29656" lon="4.5362">
        <ele>159</ele>
        <time>2016-07-25T11:08:32.000Z</time>
      </trkpt>
      <trkpt lat="44.29659" lon="4.53631">
        <ele>160</ele>
        <time>2016-07-25T11:08:38.000Z</time>
      </trkpt>
      <trkpt lat="44.2966" lon="4.53631">
        <ele>159</ele>
        <time>2016-07-25T11:08:39.000Z</time>
      </trkpt>
      <trkpt lat="44.2966" lon="4.53631">
        <ele>159</ele>
        <time>2016-07-25T11:08:42.000Z</time>
      </trkpt>
      <trkpt lat="44.2966" lon="4.53631">
        <ele>159</ele>
        <time>2016-07-25T11:08:43.000Z</time>
      </trkpt>
      <trkpt lat="44.2966" lon="4.53631">
        <ele>160</ele>
        <time>2016-07-25T11:09:18.000Z</time>
      </trkpt>
      <trkpt lat="44.29661" lon="4.53631">
        <ele>159</ele>
        <time>2016-07-25T11:09:19.000Z</time>
      </trkpt>
      <trkpt lat="44.29665" lon="4.53639">
        <ele>160</ele>
        <time>2016-07-25T11:09:28.000Z</time>
      </trkpt>
      <trkpt lat="44.29667" lon="4.53641">
        <ele>160</ele>
        <time>2016-07-25T11:09:29.000Z</time>
      </trkpt>
      <trkpt lat="44.29673" lon="4.5365">
        <ele>161</ele>
        <time>2016-07-25T11:09:32.000Z</time>
      </trkpt>
      <trkpt lat="44.29674" lon="4.53653">
        <ele>161</ele>
        <time>2016-07-25T11:09:33.000Z</time>
      </trkpt>
      <trkpt lat="44.2968" lon="4.53661">
        <ele>161</ele>
        <time>2016-07-25T11:09:36.000Z</time>
      </trkpt>
      <trkpt lat="44.29682" lon="4.53664">
        <ele>161</ele>
        <time>2016-07-25T11:09:37.000Z</time>
      </trkpt>
      <trkpt lat="44.29688" lon="4.53672">
        <ele>161</ele>
        <time>2016-07-25T11:09:40.000Z</time>
      </trkpt>
      <trkpt lat="44.2969" lon="4.53675">
        <ele>161</ele>
        <time>2016-07-25T11:09:41.000Z</time>
      </trkpt>
      <trkpt lat="44.29695" lon="4.53683">
        <ele>162</ele>
        <time>2016-07-25T11:09:44.000Z</time>
      </trkpt>
      <trkpt lat="44.29697" lon="4.53686">
        <ele>162</ele>
        <time>2016-07-25T11:09:45.000Z</time>
      </trkpt>
      <trkpt lat="44.29703" lon="4.53694">
        <ele>162</ele>
        <time>2016-07-25T11:09:48.000Z</time>
      </trkpt>
      <trkpt lat="44.29705" lon="4.53697">
        <ele>162</ele>
        <time>2016-07-25T11:09:49.000Z</time>
      </trkpt>
      <trkpt lat="44.2971" lon="4.53704">
        <ele>161</ele>
        <time>2016-07-25T11:09:52.000Z</time>
      </trkpt>
      <trkpt lat="44.29711" lon="4.53706">
        <ele>161</ele>
        <time>2016-07-25T11:09:53.000Z</time>
      </trkpt>
      <trkpt lat="44.29718" lon="4.53713">
        <ele>161</ele>
        <time>2016-07-25T11:09:57.000Z</time>
      </trkpt>
      <trkpt lat="44.2972" lon="4.53715">
        <ele>161</ele>
        <time>2016-07-25T11:09:58.000Z</time>
      </trkpt>
      <trkpt lat="44.29727" lon="4.53718">
        <ele>160</ele>
        <time>2016-07-25T11:10:02.000Z</time>
      </trkpt>
      <trkpt lat="44.2973" lon="4.53719">
        <ele>160</ele>
        <time>2016-07-25T11:10:03.000Z</time>
      </trkpt>
      <trkpt lat="44.29738" lon="4.53717">
        <ele>161</ele>
        <time>2016-07-25T11:10:07.000Z</time>
      </trkpt>
      <trkpt lat="44.2974" lon="4.53717">
        <ele>160</ele>
        <time>2016-07-25T11:10:08.000Z</time>
      </trkpt>
      <trkpt lat="44.29747" lon="4.53715">
        <ele>160</ele>
        <time>2016-07-25T11:10:11.000Z</time>
      </trkpt>
      <trkpt lat="44.29749" lon="4.53714">
        <ele>160</ele>
        <time>2016-07-25T11:10:12.000Z</time>
      </trkpt>
      <trkpt lat="44.29755" lon="4.53713">
        <ele>160</ele>
        <time>2016-07-25T11:10:14.000Z</time>
      </trkpt>
      <trkpt lat="44.29758" lon="4.53712">
        <ele>161</ele>
        <time>2016-07-25T11:10:15.000Z</time>
      </trkpt>
      <trkpt lat="44.29767" lon="4.53709">
        <ele>162</ele>
        <time>2016-07-25T11:10:18.000Z</time>
      </trkpt>
      <trkpt lat="44.29769" lon="4.53708">
        <ele>162</ele>
        <time>2016-07-25T11:10:19.000Z</time>
      </trkpt>
      <trkpt lat="44.29777" lon="4.53705">
        <ele>162</ele>
        <time>2016-07-25T11:10:22.000Z</time>
      </trkpt>
      <trkpt lat="44.29779" lon="4.53704">
        <ele>163</ele>
        <time>2016-07-25T11:10:23.000Z</time>
      </trkpt>
      <trkpt lat="44.29786" lon="4.53702">
        <ele>163</ele>
        <time>2016-07-25T11:10:26.000Z</time>
      </trkpt>
      <trkpt lat="44.29789" lon="4.53702">
        <ele>163</ele>
        <time>2016-07-25T11:10:27.000Z</time>
      </trkpt>
      <trkpt lat="44.29796" lon="4.537">
        <ele>164</ele>
        <time>2016-07-25T11:10:30.000Z</time>
      </trkpt>
      <trkpt lat="44.29799" lon="4.53699">
        <ele>164</ele>
        <time>2016-07-25T11:10:31.000Z</time>
      </trkpt>
      <trkpt lat="44.29806" lon="4.53697">
        <ele>165</ele>
        <time>2016-07-25T11:10:34.000Z</time>
      </trkpt>
      <trkpt lat="44.29808" lon="4.53696">
        <ele>165</ele>
        <time>2016-07-25T11:10:35.000Z</time>
      </trkpt>
      <trkpt lat="44.29815" lon="4.53694">
        <ele>165</ele>
        <time>2016-07-25T11:10:38.000Z</time>
      </trkpt>
      <trkpt lat="44.29818" lon="4.53693">
        <ele>165</ele>
        <time>2016-07-25T11:10:39.000Z</time>
      </trkpt>
      <trkpt lat="44.29825" lon="4.53691">
        <ele>166</ele>
        <time>2016-07-25T11:10:42.000Z</time>
      </trkpt>
      <trkpt lat="44.29827" lon="4.53691">
        <ele>166</ele>
        <time>2016-07-25T11:10:43.000Z</time>
      </trkpt>
      <trkpt lat="44.29834" lon="4.53688">
        <ele>167</ele>
        <time>2016-07-25T11:10:46.000Z</time>
      </trkpt>
      <trkpt lat="44.29837" lon="4.53688">
        <ele>168</ele>
        <time>2016-07-25T11:10:47.000Z</time>
      </trkpt>
      <trkpt lat="44.29844" lon="4.53685">
        <ele>168</ele>
        <time>2016-07-25T11:10:50.000Z</time>
      </trkpt>
      <trkpt lat="44.29846" lon="4.53684">
        <ele>168</ele>
        <time>2016-07-25T11:10:51.000Z</time>
      </trkpt>
      <trkpt lat="44.29853" lon="4.53683">
        <ele>169</ele>
        <time>2016-07-25T11:10:54.000Z</time>
      </trkpt>
      <trkpt lat="44.29855" lon="4.53682">
        <ele>169</ele>
        <time>2016-07-25T11:10:55.000Z</time>
      </trkpt>
      <trkpt lat="44.29862" lon="4.5368">
        <ele>169</ele>
        <time>2016-07-25T11:10:58.000Z</time>
      </trkpt>
      <trkpt lat="44.29865" lon="4.53679">
        <ele>169</ele>
        <time>2016-07-25T11:10:59.000Z</time>
      </trkpt>
      <trkpt lat="44.29872" lon="4.53679">
        <ele>170</ele>
        <time>2016-07-25T11:11:02.000Z</time>
      </trkpt>
      <trkpt lat="44.29875" lon="4.53678">
        <ele>170</ele>
        <time>2016-07-25T11:11:03.000Z</time>
      </trkpt>
      <trkpt lat="44.29884" lon="4.53675">
        <ele>169</ele>
        <time>2016-07-25T11:11:07.000Z</time>
      </trkpt>
      <trkpt lat="44.29885" lon="4.53675">
        <ele>170</ele>
        <time>2016-07-25T11:11:08.000Z</time>
      </trkpt>
      <trkpt lat="44.29893" lon="4.53671">
        <ele>171</ele>
        <time>2016-07-25T11:11:12.000Z</time>
      </trkpt>
      <trkpt lat="44.29895" lon="4.53671">
        <ele>170</ele>
        <time>2016-07-25T11:11:13.000Z</time>
      </trkpt>
      <trkpt lat="44.29903" lon="4.53667">
        <ele>170</ele>
        <time>2016-07-25T11:11:18.000Z</time>
      </trkpt>
      <trkpt lat="44.29904" lon="4.53666">
        <ele>169</ele>
        <time>2016-07-25T11:11:19.000Z</time>
      </trkpt>
      <trkpt lat="44.29912" lon="4.53663">
        <ele>170</ele>
        <time>2016-07-25T11:11:23.000Z</time>
      </trkpt>
      <trkpt lat="44.29913" lon="4.53663">
        <ele>170</ele>
        <time>2016-07-25T11:11:24.000Z</time>
      </trkpt>
      <trkpt lat="44.29918" lon="4.53668">
        <ele>169</ele>
        <time>2016-07-25T11:11:28.000Z</time>
      </trkpt>
      <trkpt lat="44.2992" lon="4.53671">
        <ele>169</ele>
        <time>2016-07-25T11:11:29.000Z</time>
      </trkpt>
      <trkpt lat="44.29925" lon="4.53678">
        <ele>169</ele>
        <time>2016-07-25T11:11:32.000Z</time>
      </trkpt>
      <trkpt lat="44.29927" lon="4.5368">
        <ele>169</ele>
        <time>2016-07-25T11:11:33.000Z</time>
      </trkpt>
      <trkpt lat="44.29932" lon="4.53689">
        <ele>169</ele>
        <time>2016-07-25T11:11:37.000Z</time>
      </trkpt>
      <trkpt lat="44.29933" lon="4.53691">
        <ele>169</ele>
        <time>2016-07-25T11:11:38.000Z</time>
      </trkpt>
      <trkpt lat="44.29938" lon="4.53699">
        <ele>169</ele>
        <time>2016-07-25T11:11:41.000Z</time>
      </trkpt>
      <trkpt lat="44.2994" lon="4.53701">
        <ele>169</ele>
        <time>2016-07-25T11:11:42.000Z</time>
      </trkpt>
      <trkpt lat="44.29945" lon="4.53708">
        <ele>169</ele>
        <time>2016-07-25T11:11:45.000Z</time>
      </trkpt>
      <trkpt lat="44.29947" lon="4.5371">
        <ele>169</ele>
        <time>2016-07-25T11:11:46.000Z</time>
      </trkpt>
      <trkpt lat="44.29951" lon="4.53718">
        <ele>170</ele>
        <time>2016-07-25T11:11:49.000Z</time>
      </trkpt>
      <trkpt lat="44.29953" lon="4.5372">
        <ele>170</ele>
        <time>2016-07-25T11:11:50.000Z</time>
      </trkpt>
      <trkpt lat="44.29958" lon="4.53728">
        <ele>170</ele>
        <time>2016-07-25T11:11:53.000Z</time>
      </trkpt>
      <trkpt lat="44.2996" lon="4.5373">
        <ele>170</ele>
        <time>2016-07-25T11:11:54.000Z</time>
      </trkpt>
      <trkpt lat="44.29965" lon="4.53738">
        <ele>169</ele>
        <time>2016-07-25T11:11:57.000Z</time>
      </trkpt>
      <trkpt lat="44.29967" lon="4.5374">
        <ele>169</ele>
        <time>2016-07-25T11:11:58.000Z</time>
      </trkpt>
      <trkpt lat="44.29972" lon="4.53748">
        <ele>170</ele>
        <time>2016-07-25T11:12:01.000Z</time>
      </trkpt>
      <trkpt lat="44.29974" lon="4.5375">
        <ele>170</ele>
        <time>2016-07-25T11:12:02.000Z</time>
      </trkpt>
      <trkpt lat="44.29979" lon="4.53758">
        <ele>170</ele>
        <time>2016-07-25T11:12:05.000Z</time>
      </trkpt>
      <trkpt lat="44.29981" lon="4.53761">
        <ele>170</ele>
        <time>2016-07-25T11:12:06.000Z</time>
      </trkpt>
      <trkpt lat="44.29986" lon="4.53768">
        <ele>170</ele>
        <time>2016-07-25T11:12:09.000Z</time>
      </trkpt>
      <trkpt lat="44.29988" lon="4.53771">
        <ele>170</ele>
        <time>2016-07-25T11:12:10.000Z</time>
      </trkpt>
      <trkpt lat="44.29993" lon="4.53778">
        <ele>171</ele>
        <time>2016-07-25T11:12:13.000Z</time>
      </trkpt>
      <trkpt lat="44.29995" lon="4.53781">
        <ele>171</ele>
        <time>2016-07-25T11:12:14.000Z</time>
      </trkpt>
      <trkpt lat="44.3" lon="4.53789">
        <ele>171</ele>
        <time>2016-07-25T11:12:17.000Z</time>
      </trkpt>
      <trkpt lat="44.30002" lon="4.53791">
        <ele>171</ele>
        <time>2016-07-25T11:12:18.000Z</time>
      </trkpt>
      <trkpt lat="44.30007" lon="4.53798">
        <ele>171</ele>
        <time>2016-07-25T11:12:21.000Z</time>
      </trkpt>
      <trkpt lat="44.30009" lon="4.538">
        <ele>172</ele>
        <time>2016-07-25T11:12:22.000Z</time>
      </trkpt>
      <trkpt lat="44.30014" lon="4.53808">
        <ele>172</ele>
        <time>2016-07-25T11:12:25.000Z</time>
      </trkpt>
      <trkpt lat="44.30016" lon="4.5381">
        <ele>172</ele>
        <time>2016-07-25T11:12:26.000Z</time>
      </trkpt>
      <trkpt lat="44.30022" lon="4.53818">
        <ele>172</ele>
        <time>2016-07-25T11:12:29.000Z</time>
      </trkpt>
      <trkpt lat="44.30023" lon="4.53821">
        <ele>172</ele>
        <time>2016-07-25T11:12:30.000Z</time>
      </trkpt>
      <trkpt lat="44.30029" lon="4.5383">
        <ele>172</ele>
        <time>2016-07-25T11:12:33.000Z</time>
      </trkpt>
      <trkpt lat="44.30031" lon="4.53832">
        <ele>172</ele>
        <time>2016-07-25T11:12:34.000Z</time>
      </trkpt>
      <trkpt lat="44.30036" lon="4.53839">
        <ele>172</ele>
        <time>2016-07-25T11:12:36.000Z</time>
      </trkpt>
      <trkpt lat="44.30038" lon="4.53842">
        <ele>172</ele>
        <time>2016-07-25T11:12:37.000Z</time>
      </trkpt>
      <trkpt lat="44.30042" lon="4.53848">
        <ele>171</ele>
        <time>2016-07-25T11:12:39.000Z</time>
      </trkpt>
      <trkpt lat="44.30044" lon="4.53851">
        <ele>171</ele>
        <time>2016-07-25T11:12:40.000Z</time>
      </trkpt>
      <trkpt lat="44.30049" lon="4.53858">
        <ele>171</ele>
        <time>2016-07-25T11:12:42.000Z</time>
      </trkpt>
      <trkpt lat="44.30051" lon="4.53861">
        <ele>171</ele>
        <time>2016-07-25T11:12:43.000Z</time>
      </trkpt>
      <trkpt lat="44.30055" lon="4.53868">
        <ele>171</ele>
        <time>2016-07-25T11:12:45.000Z</time>
      </trkpt>
      <trkpt lat="44.30057" lon="4.53871">
        <ele>171</ele>
        <time>2016-07-25T11:12:46.000Z</time>
      </trkpt>
      <trkpt lat="44.30062" lon="4.53879">
        <ele>171</ele>
        <time>2016-07-25T11:12:48.000Z</time>
      </trkpt>
      <trkpt lat="44.30064" lon="4.53882">
        <ele>171</ele>
        <time>2016-07-25T11:12:49.000Z</time>
      </trkpt>
      <trkpt lat="44.30068" lon="4.53891">
        <ele>171</ele>
        <time>2016-07-25T11:12:51.000Z</time>
      </trkpt>
      <trkpt lat="44.3007" lon="4.53895">
        <ele>171</ele>
        <time>2016-07-25T11:12:52.000Z</time>
      </trkpt>
      <trkpt lat="44.30074" lon="4.53904">
        <ele>171</ele>
        <time>2016-07-25T11:12:54.000Z</time>
      </trkpt>
      <trkpt lat="44.30076" lon="4.53909">
        <ele>171</ele>
        <time>2016-07-25T11:12:55.000Z</time>
      </trkpt>
      <trkpt lat="44.3008" lon="4.53917">
        <ele>171</ele>
        <time>2016-07-25T11:12:57.000Z</time>
      </trkpt>
      <trkpt lat="44.30081" lon="4.53922">
        <ele>171</ele>
        <time>2016-07-25T11:12:58.000Z</time>
      </trkpt>
      <trkpt lat="44.30083" lon="4.53931">
        <ele>171</ele>
        <time>2016-07-25T11:13:00.000Z</time>
      </trkpt>
      <trkpt lat="44.30084" lon="4.53936">
        <ele>171</ele>
        <time>2016-07-25T11:13:01.000Z</time>
      </trkpt>
      <trkpt lat="44.30085" lon="4.53946">
        <ele>171</ele>
        <time>2016-07-25T11:13:03.000Z</time>
      </trkpt>
      <trkpt lat="44.30086" lon="4.5395">
        <ele>171</ele>
        <time>2016-07-25T11:13:04.000Z</time>
      </trkpt>
      <trkpt lat="44.30088" lon="4.5396">
        <ele>171</ele>
        <time>2016-07-25T11:13:06.000Z</time>
      </trkpt>
      <trkpt lat="44.30088" lon="4.53965">
        <ele>172</ele>
        <time>2016-07-25T11:13:07.000Z</time>
      </trkpt>
      <trkpt lat="44.3009" lon="4.53975">
        <ele>172</ele>
        <time>2016-07-25T11:13:09.000Z</time>
      </trkpt>
      <trkpt lat="44.3009" lon="4.5398">
        <ele>172</ele>
        <time>2016-07-25T11:13:10.000Z</time>
      </trkpt>
      <trkpt lat="44.30092" lon="4.53989">
        <ele>172</ele>
        <time>2016-07-25T11:13:12.000Z</time>
      </trkpt>
      <trkpt lat="44.30092" lon="4.53993">
        <ele>172</ele>
        <time>2016-07-25T11:13:13.000Z</time>
      </trkpt>
      <trkpt lat="44.30093" lon="4.54003">
        <ele>172</ele>
        <time>2016-07-25T11:13:15.000Z</time>
      </trkpt>
      <trkpt lat="44.30095" lon="4.54008">
        <ele>171</ele>
        <time>2016-07-25T11:13:16.000Z</time>
      </trkpt>
      <trkpt lat="44.30095" lon="4.54017">
        <ele>171</ele>
        <time>2016-07-25T11:13:18.000Z</time>
      </trkpt>
      <trkpt lat="44.30096" lon="4.54022">
        <ele>172</ele>
        <time>2016-07-25T11:13:19.000Z</time>
      </trkpt>
      <trkpt lat="44.30097" lon="4.54031">
        <ele>172</ele>
        <time>2016-07-25T11:13:21.000Z</time>
      </trkpt>
      <trkpt lat="44.30098" lon="4.54036">
        <ele>172</ele>
        <time>2016-07-25T11:13:22.000Z</time>
      </trkpt>
      <trkpt lat="44.30099" lon="4.54045">
        <ele>172</ele>
        <time>2016-07-25T11:13:24.000Z</time>
      </trkpt>
      <trkpt lat="44.30099" lon="4.54049">
        <ele>172</ele>
        <time>2016-07-25T11:13:25.000Z</time>
      </trkpt>
      <trkpt lat="44.30101" lon="4.54058">
        <ele>172</ele>
        <time>2016-07-25T11:13:27.000Z</time>
      </trkpt>
      <trkpt lat="44.30102" lon="4.54063">
        <ele>172</ele>
        <time>2016-07-25T11:13:28.000Z</time>
      </trkpt>
      <trkpt lat="44.30104" lon="4.54071">
        <ele>172</ele>
        <time>2016-07-25T11:13:30.000Z</time>
      </trkpt>
      <trkpt lat="44.30104" lon="4.54076">
        <ele>172</ele>
        <time>2016-07-25T11:13:31.000Z</time>
      </trkpt>
      <trkpt lat="44.30105" lon="4.54086">
        <ele>172</ele>
        <time>2016-07-25T11:13:33.000Z</time>
      </trkpt>
      <trkpt lat="44.30106" lon="4.54091">
        <ele>172</ele>
        <time>2016-07-25T11:13:34.000Z</time>
      </trkpt>
      <trkpt lat="44.30108" lon="4.541">
        <ele>172</ele>
        <time>2016-07-25T11:13:36.000Z</time>
      </trkpt>
      <trkpt lat="44.30108" lon="4.54104">
        <ele>172</ele>
        <time>2016-07-25T11:13:37.000Z</time>
      </trkpt>
      <trkpt lat="44.30109" lon="4.54113">
        <ele>172</ele>
        <time>2016-07-25T11:13:39.000Z</time>
      </trkpt>
      <trkpt lat="44.3011" lon="4.54118">
        <ele>172</ele>
        <time>2016-07-25T11:13:40.000Z</time>
      </trkpt>
      <trkpt lat="44.30111" lon="4.54128">
        <ele>172</ele>
        <time>2016-07-25T11:13:42.000Z</time>
      </trkpt>
      <trkpt lat="44.30112" lon="4.54133">
        <ele>172</ele>
        <time>2016-07-25T11:13:43.000Z</time>
      </trkpt>
      <trkpt lat="44.30113" lon="4.54144">
        <ele>173</ele>
        <time>2016-07-25T11:13:45.000Z</time>
      </trkpt>
      <trkpt lat="44.30114" lon="4.54149">
        <ele>173</ele>
        <time>2016-07-25T11:13:46.000Z</time>
      </trkpt>
      <trkpt lat="44.30115" lon="4.5416">
        <ele>173</ele>
        <time>2016-07-25T11:13:48.000Z</time>
      </trkpt>
      <trkpt lat="44.30116" lon="4.54165">
        <ele>173</ele>
        <time>2016-07-25T11:13:49.000Z</time>
      </trkpt>
      <trkpt lat="44.30118" lon="4.54177">
        <ele>172</ele>
        <time>2016-07-25T11:13:51.000Z</time>
      </trkpt>
      <trkpt lat="44.30119" lon="4.54183">
        <ele>171</ele>
        <time>2016-07-25T11:13:52.000Z</time>
      </trkpt>
      <trkpt lat="44.30121" lon="4.54191">
        <ele>171</ele>
        <time>2016-07-25T11:13:53.000Z</time>
      </trkpt>
      <trkpt lat="44.30122" lon="4.54198">
        <ele>171</ele>
        <time>2016-07-25T11:13:54.000Z</time>
      </trkpt>
      <trkpt lat="44.30123" lon="4.54206">
        <ele>172</ele>
        <time>2016-07-25T11:13:55.000Z</time>
      </trkpt>
      <trkpt lat="44.30124" lon="4.54214">
        <ele>171</ele>
        <time>2016-07-25T11:13:56.000Z</time>
      </trkpt>
      <trkpt lat="44.30125" lon="4.54222">
        <ele>171</ele>
        <time>2016-07-25T11:13:57.000Z</time>
      </trkpt>
      <trkpt lat="44.30126" lon="4.5423">
        <ele>171</ele>
        <time>2016-07-25T11:13:58.000Z</time>
      </trkpt>
      <trkpt lat="44.30128" lon="4.54238">
        <ele>171</ele>
        <time>2016-07-25T11:13:59.000Z</time>
      </trkpt>
      <trkpt lat="44.30129" lon="4.54246">
        <ele>171</ele>
        <time>2016-07-25T11:14:00.000Z</time>
      </trkpt>
      <trkpt lat="44.3013" lon="4.54254">
        <ele>171</ele>
        <time>2016-07-25T11:14:01.000Z</time>
      </trkpt>
      <trkpt lat="44.30131" lon="4.54262">
        <ele>170</ele>
        <time>2016-07-25T11:14:02.000Z</time>
      </trkpt>
      <trkpt lat="44.30132" lon="4.54271">
        <ele>170</ele>
        <time>2016-07-25T11:14:03.000Z</time>
      </trkpt>
      <trkpt lat="44.30134" lon="4.54279">
        <ele>170</ele>
        <time>2016-07-25T11:14:04.000Z</time>
      </trkpt>
      <trkpt lat="44.30135" lon="4.54288">
        <ele>170</ele>
        <time>2016-07-25T11:14:05.000Z</time>
      </trkpt>
      <trkpt lat="44.30137" lon="4.54296">
        <ele>169</ele>
        <time>2016-07-25T11:14:06.000Z</time>
      </trkpt>
      <trkpt lat="44.30138" lon="4.54305">
        <ele>169</ele>
        <time>2016-07-25T11:14:07.000Z</time>
      </trkpt>
      <trkpt lat="44.30139" lon="4.54313">
        <ele>169</ele>
        <time>2016-07-25T11:14:08.000Z</time>
      </trkpt>
      <trkpt lat="44.30141" lon="4.54321">
        <ele>169</ele>
        <time>2016-07-25T11:14:09.000Z</time>
      </trkpt>
      <trkpt lat="44.30142" lon="4.54329">
        <ele>169</ele>
        <time>2016-07-25T11:14:10.000Z</time>
      </trkpt>
      <trkpt lat="44.30143" lon="4.54337">
        <ele>169</ele>
        <time>2016-07-25T11:14:11.000Z</time>
      </trkpt>
      <trkpt lat="44.30145" lon="4.54344">
        <ele>168</ele>
        <time>2016-07-25T11:14:12.000Z</time>
      </trkpt>
      <trkpt lat="44.30146" lon="4.54352">
        <ele>168</ele>
        <time>2016-07-25T11:14:13.000Z</time>
      </trkpt>
      <trkpt lat="44.30147" lon="4.54359">
        <ele>168</ele>
        <time>2016-07-25T11:14:14.000Z</time>
      </trkpt>
      <trkpt lat="44.30148" lon="4.54367">
        <ele>168</ele>
        <time>2016-07-25T11:14:15.000Z</time>
      </trkpt>
      <trkpt lat="44.30149" lon="4.54374">
        <ele>168</ele>
        <time>2016-07-25T11:14:16.000Z</time>
      </trkpt>
      <trkpt lat="44.30149" lon="4.54381">
        <ele>168</ele>
        <time>2016-07-25T11:14:17.000Z</time>
      </trkpt>
      <trkpt lat="44.3015" lon="4.54388">
        <ele>169</ele>
        <time>2016-07-25T11:14:18.000Z</time>
      </trkpt>
      <trkpt lat="44.30151" lon="4.54394">
        <ele>168</ele>
        <time>2016-07-25T11:14:19.000Z</time>
      </trkpt>
      <trkpt lat="44.30152" lon="4.54401">
        <ele>168</ele>
        <time>2016-07-25T11:14:20.000Z</time>
      </trkpt>
      <trkpt lat="44.30153" lon="4.54408">
        <ele>168</ele>
        <time>2016-07-25T11:14:21.000Z</time>
      </trkpt>
      <trkpt lat="44.30154" lon="4.54414">
        <ele>168</ele>
        <time>2016-07-25T11:14:22.000Z</time>
      </trkpt>
      <trkpt lat="44.30155" lon="4.54426">
        <ele>168</ele>
        <time>2016-07-25T11:14:24.000Z</time>
      </trkpt>
      <trkpt lat="44.30156" lon="4.54433">
        <ele>168</ele>
        <time>2016-07-25T11:14:25.000Z</time>
      </trkpt>
      <trkpt lat="44.30158" lon="4.54444">
        <ele>168</ele>
        <time>2016-07-25T11:14:27.000Z</time>
      </trkpt>
      <trkpt lat="44.30158" lon="4.5445">
        <ele>168</ele>
        <time>2016-07-25T11:14:28.000Z</time>
      </trkpt>
      <trkpt lat="44.30159" lon="4.54461">
        <ele>168</ele>
        <time>2016-07-25T11:14:30.000Z</time>
      </trkpt>
      <trkpt lat="44.30159" lon="4.54467">
        <ele>168</ele>
        <time>2016-07-25T11:14:31.000Z</time>
      </trkpt>
      <trkpt lat="44.30159" lon="4.54479">
        <ele>169</ele>
        <time>2016-07-25T11:14:33.000Z</time>
      </trkpt>
      <trkpt lat="44.30159" lon="4.54485">
        <ele>169</ele>
        <time>2016-07-25T11:14:34.000Z</time>
      </trkpt>
      <trkpt lat="44.30158" lon="4.54496">
        <ele>169</ele>
        <time>2016-07-25T11:14:36.000Z</time>
      </trkpt>
      <trkpt lat="44.30158" lon="4.54501">
        <ele>169</ele>
        <time>2016-07-25T11:14:37.000Z</time>
      </trkpt>
      <trkpt lat="44.30156" lon="4.54511">
        <ele>169</ele>
        <time>2016-07-25T11:14:39.000Z</time>
      </trkpt>
      <trkpt lat="44.30156" lon="4.54516">
        <ele>169</ele>
        <time>2016-07-25T11:14:40.000Z</time>
      </trkpt>
      <trkpt lat="44.30154" lon="4.54525">
        <ele>169</ele>
        <time>2016-07-25T11:14:42.000Z</time>
      </trkpt>
      <trkpt lat="44.30154" lon="4.5453">
        <ele>169</ele>
        <time>2016-07-25T11:14:43.000Z</time>
      </trkpt>
      <trkpt lat="44.30151" lon="4.54539">
        <ele>170</ele>
        <time>2016-07-25T11:14:45.000Z</time>
      </trkpt>
      <trkpt lat="44.3015" lon="4.54544">
        <ele>170</ele>
        <time>2016-07-25T11:14:46.000Z</time>
      </trkpt>
      <trkpt lat="44.30148" lon="4.54554">
        <ele>170</ele>
        <time>2016-07-25T11:14:48.000Z</time>
      </trkpt>
      <trkpt lat="44.30146" lon="4.54559">
        <ele>170</ele>
        <time>2016-07-25T11:14:49.000Z</time>
      </trkpt>
      <trkpt lat="44.30144" lon="4.54568">
        <ele>170</ele>
        <time>2016-07-25T11:14:51.000Z</time>
      </trkpt>
      <trkpt lat="44.30143" lon="4.54572">
        <ele>170</ele>
        <time>2016-07-25T11:14:52.000Z</time>
      </trkpt>
      <trkpt lat="44.3014" lon="4.54581">
        <ele>169</ele>
        <time>2016-07-25T11:14:54.000Z</time>
      </trkpt>
      <trkpt lat="44.30139" lon="4.54585">
        <ele>169</ele>
        <time>2016-07-25T11:14:55.000Z</time>
      </trkpt>
      <trkpt lat="44.30136" lon="4.54596">
        <ele>169</ele>
        <time>2016-07-25T11:14:58.000Z</time>
      </trkpt>
      <trkpt lat="44.30136" lon="4.54599">
        <ele>169</ele>
        <time>2016-07-25T11:14:59.000Z</time>
      </trkpt>
      <trkpt lat="44.30133" lon="4.54609">
        <ele>169</ele>
        <time>2016-07-25T11:15:02.000Z</time>
      </trkpt>
      <trkpt lat="44.30133" lon="4.54612">
        <ele>169</ele>
        <time>2016-07-25T11:15:03.000Z</time>
      </trkpt>
      <trkpt lat="44.30135" lon="4.54624">
        <ele>169</ele>
        <time>2016-07-25T11:15:06.000Z</time>
      </trkpt>
      <trkpt lat="44.30136" lon="4.54628">
        <ele>169</ele>
        <time>2016-07-25T11:15:07.000Z</time>
      </trkpt>
      <trkpt lat="44.3014" lon="4.54635">
        <ele>169</ele>
        <time>2016-07-25T11:15:09.000Z</time>
      </trkpt>
      <trkpt lat="44.30142" lon="4.54638">
        <ele>169</ele>
        <time>2016-07-25T11:15:10.000Z</time>
      </trkpt>
      <trkpt lat="44.30145" lon="4.54646">
        <ele>169</ele>
        <time>2016-07-25T11:15:12.000Z</time>
      </trkpt>
      <trkpt lat="44.30146" lon="4.5465">
        <ele>169</ele>
        <time>2016-07-25T11:15:13.000Z</time>
      </trkpt>
      <trkpt lat="44.3015" lon="4.54658">
        <ele>169</ele>
        <time>2016-07-25T11:15:15.000Z</time>
      </trkpt>
      <trkpt lat="44.30151" lon="4.54662">
        <ele>169</ele>
        <time>2016-07-25T11:15:16.000Z</time>
      </trkpt>
      <trkpt lat="44.30155" lon="4.54669">
        <ele>170</ele>
        <time>2016-07-25T11:15:18.000Z</time>
      </trkpt>
      <trkpt lat="44.30157" lon="4.54673">
        <ele>170</ele>
        <time>2016-07-25T11:15:19.000Z</time>
      </trkpt>
      <trkpt lat="44.3016" lon="4.5468">
        <ele>170</ele>
        <time>2016-07-25T11:15:21.000Z</time>
      </trkpt>
      <trkpt lat="44.30162" lon="4.54684">
        <ele>170</ele>
        <time>2016-07-25T11:15:22.000Z</time>
      </trkpt>
      <trkpt lat="44.30167" lon="4.54694">
        <ele>170</ele>
        <time>2016-07-25T11:15:25.000Z</time>
      </trkpt>
      <trkpt lat="44.30169" lon="4.54696">
        <ele>170</ele>
        <time>2016-07-25T11:15:26.000Z</time>
      </trkpt>
      <trkpt lat="44.30172" lon="4.54703">
        <ele>170</ele>
        <time>2016-07-25T11:15:28.000Z</time>
      </trkpt>
      <trkpt lat="44.30174" lon="4.54707">
        <ele>170</ele>
        <time>2016-07-25T11:15:29.000Z</time>
      </trkpt>
      <trkpt lat="44.30178" lon="4.54714">
        <ele>170</ele>
        <time>2016-07-25T11:15:31.000Z</time>
      </trkpt>
      <trkpt lat="44.30179" lon="4.54718">
        <ele>170</ele>
        <time>2016-07-25T11:15:32.000Z</time>
      </trkpt>
      <trkpt lat="44.30184" lon="4.54725">
        <ele>169</ele>
        <time>2016-07-25T11:15:34.000Z</time>
      </trkpt>
      <trkpt lat="44.30186" lon="4.54729">
        <ele>169</ele>
        <time>2016-07-25T11:15:35.000Z</time>
      </trkpt>
      <trkpt lat="44.3019" lon="4.54737">
        <ele>169</ele>
        <time>2016-07-25T11:15:37.000Z</time>
      </trkpt>
      <trkpt lat="44.30193" lon="4.54742">
        <ele>169</ele>
        <time>2016-07-25T11:15:38.000Z</time>
      </trkpt>
      <trkpt lat="44.30198" lon="4.54751">
        <ele>169</ele>
        <time>2016-07-25T11:15:40.000Z</time>
      </trkpt>
      <trkpt lat="44.30201" lon="4.54756">
        <ele>169</ele>
        <time>2016-07-25T11:15:41.000Z</time>
      </trkpt>
      <trkpt lat="44.30206" lon="4.54766">
        <ele>168</ele>
        <time>2016-07-25T11:15:43.000Z</time>
      </trkpt>
      <trkpt lat="44.30209" lon="4.54771">
        <ele>167</ele>
        <time>2016-07-25T11:15:44.000Z</time>
      </trkpt>
      <trkpt lat="44.30212" lon="4.54777">
        <ele>167</ele>
        <time>2016-07-25T11:15:45.000Z</time>
      </trkpt>
      <trkpt lat="44.30214" lon="4.54783">
        <ele>167</ele>
        <time>2016-07-25T11:15:46.000Z</time>
      </trkpt>
      <trkpt lat="44.30217" lon="4.54789">
        <ele>167</ele>
        <time>2016-07-25T11:15:47.000Z</time>
      </trkpt>
      <trkpt lat="44.3022" lon="4.54795">
        <ele>167</ele>
        <time>2016-07-25T11:15:48.000Z</time>
      </trkpt>
      <trkpt lat="44.30223" lon="4.54801">
        <ele>167</ele>
        <time>2016-07-25T11:15:49.000Z</time>
      </trkpt>
      <trkpt lat="44.30226" lon="4.54808">
        <ele>167</ele>
        <time>2016-07-25T11:15:50.000Z</time>
      </trkpt>
      <trkpt lat="44.30228" lon="4.54814">
        <ele>167</ele>
        <time>2016-07-25T11:15:51.000Z</time>
      </trkpt>
      <trkpt lat="44.30231" lon="4.54819">
        <ele>166</ele>
        <time>2016-07-25T11:15:52.000Z</time>
      </trkpt>
      <trkpt lat="44.30234" lon="4.54825">
        <ele>166</ele>
        <time>2016-07-25T11:15:53.000Z</time>
      </trkpt>
      <trkpt lat="44.30236" lon="4.5483">
        <ele>167</ele>
        <time>2016-07-25T11:15:54.000Z</time>
      </trkpt>
      <trkpt lat="44.30242" lon="4.54839">
        <ele>166</ele>
        <time>2016-07-25T11:15:56.000Z</time>
      </trkpt>
      <trkpt lat="44.30245" lon="4.54843">
        <ele>167</ele>
        <time>2016-07-25T11:15:57.000Z</time>
      </trkpt>
      <trkpt lat="44.30252" lon="4.54851">
        <ele>166</ele>
        <time>2016-07-25T11:16:00.000Z</time>
      </trkpt>
      <trkpt lat="44.30254" lon="4.54854">
        <ele>166</ele>
        <time>2016-07-25T11:16:01.000Z</time>
      </trkpt>
      <trkpt lat="44.3026" lon="4.54862">
        <ele>167</ele>
        <time>2016-07-25T11:16:04.000Z</time>
      </trkpt>
      <trkpt lat="44.30262" lon="4.54865">
        <ele>167</ele>
        <time>2016-07-25T11:16:05.000Z</time>
      </trkpt>
      <trkpt lat="44.30267" lon="4.54871">
        <ele>167</ele>
        <time>2016-07-25T11:16:07.000Z</time>
      </trkpt>
      <trkpt lat="44.30268" lon="4.54874">
        <ele>167</ele>
        <time>2016-07-25T11:16:08.000Z</time>
      </trkpt>
      <trkpt lat="44.30273" lon="4.5488">
        <ele>167</ele>
        <time>2016-07-25T11:16:10.000Z</time>
      </trkpt>
      <trkpt lat="44.30275" lon="4.54883">
        <ele>167</ele>
        <time>2016-07-25T11:16:11.000Z</time>
      </trkpt>
      <trkpt lat="44.3028" lon="4.54889">
        <ele>167</ele>
        <time>2016-07-25T11:16:13.000Z</time>
      </trkpt>
      <trkpt lat="44.30282" lon="4.54893">
        <ele>168</ele>
        <time>2016-07-25T11:16:14.000Z</time>
      </trkpt>
      <trkpt lat="44.30288" lon="4.549">
        <ele>168</ele>
        <time>2016-07-25T11:16:16.000Z</time>
      </trkpt>
      <trkpt lat="44.30291" lon="4.54904">
        <ele>168</ele>
        <time>2016-07-25T11:16:17.000Z</time>
      </trkpt>
      <trkpt lat="44.30296" lon="4.54911">
        <ele>167</ele>
        <time>2016-07-25T11:16:19.000Z</time>
      </trkpt>
      <trkpt lat="44.30299" lon="4.54915">
        <ele>167</ele>
        <time>2016-07-25T11:16:20.000Z</time>
      </trkpt>
      <trkpt lat="44.30305" lon="4.54922">
        <ele>168</ele>
        <time>2016-07-25T11:16:22.000Z</time>
      </trkpt>
      <trkpt lat="44.30307" lon="4.54925">
        <ele>167</ele>
        <time>2016-07-25T11:16:23.000Z</time>
      </trkpt>
      <trkpt lat="44.30312" lon="4.54932">
        <ele>168</ele>
        <time>2016-07-25T11:16:25.000Z</time>
      </trkpt>
      <trkpt lat="44.30315" lon="4.54935">
        <ele>167</ele>
        <time>2016-07-25T11:16:26.000Z</time>
      </trkpt>
      <trkpt lat="44.3032" lon="4.54941">
        <ele>166</ele>
        <time>2016-07-25T11:16:28.000Z</time>
      </trkpt>
      <trkpt lat="44.30323" lon="4.54944">
        <ele>166</ele>
        <time>2016-07-25T11:16:29.000Z</time>
      </trkpt>
      <trkpt lat="44.30329" lon="4.5495">
        <ele>166</ele>
        <time>2016-07-25T11:16:31.000Z</time>
      </trkpt>
      <trkpt lat="44.30332" lon="4.54953">
        <ele>166</ele>
        <time>2016-07-25T11:16:32.000Z</time>
      </trkpt>
      <trkpt lat="44.30337" lon="4.54959">
        <ele>166</ele>
        <time>2016-07-25T11:16:34.000Z</time>
      </trkpt>
      <trkpt lat="44.3034" lon="4.54962">
        <ele>166</ele>
        <time>2016-07-25T11:16:35.000Z</time>
      </trkpt>
      <trkpt lat="44.30345" lon="4.54967">
        <ele>166</ele>
        <time>2016-07-25T11:16:37.000Z</time>
      </trkpt>
      <trkpt lat="44.30348" lon="4.5497">
        <ele>166</ele>
        <time>2016-07-25T11:16:38.000Z</time>
      </trkpt>
      <trkpt lat="44.30354" lon="4.54978">
        <ele>165</ele>
        <time>2016-07-25T11:16:41.000Z</time>
      </trkpt>
      <trkpt lat="44.30356" lon="4.5498">
        <ele>165</ele>
        <time>2016-07-25T11:16:42.000Z</time>
      </trkpt>
      <trkpt lat="44.30362" lon="4.54986">
        <ele>165</ele>
        <time>2016-07-25T11:16:45.000Z</time>
      </trkpt>
      <trkpt lat="44.30364" lon="4.54988">
        <ele>165</ele>
        <time>2016-07-25T11:16:46.000Z</time>
      </trkpt>
      <trkpt lat="44.30369" lon="4.54995">
        <ele>164</ele>
        <time>2016-07-25T11:16:49.000Z</time>
      </trkpt>
      <trkpt lat="44.30371" lon="4.54997">
        <ele>164</ele>
        <time>2016-07-25T11:16:50.000Z</time>
      </trkpt>
      <trkpt lat="44.30377" lon="4.55002">
        <ele>164</ele>
        <time>2016-07-25T11:16:53.000Z</time>
      </trkpt>
      <trkpt lat="44.30379" lon="4.55004">
        <ele>164</ele>
        <time>2016-07-25T11:16:54.000Z</time>
      </trkpt>
      <trkpt lat="44.30386" lon="4.55009">
        <ele>165</ele>
        <time>2016-07-25T11:16:58.000Z</time>
      </trkpt>
      <trkpt lat="44.30388" lon="4.5501">
        <ele>165</ele>
        <time>2016-07-25T11:16:59.000Z</time>
      </trkpt>
      <trkpt lat="44.30395" lon="4.55015">
        <ele>165</ele>
        <time>2016-07-25T11:17:03.000Z</time>
      </trkpt>
      <trkpt lat="44.30397" lon="4.55017">
        <ele>165</ele>
        <time>2016-07-25T11:17:04.000Z</time>
      </trkpt>
      <trkpt lat="44.30403" lon="4.55022">
        <ele>164</ele>
        <time>2016-07-25T11:17:07.000Z</time>
      </trkpt>
      <trkpt lat="44.30405" lon="4.55024">
        <ele>165</ele>
        <time>2016-07-25T11:17:08.000Z</time>
      </trkpt>
      <trkpt lat="44.30412" lon="4.5503">
        <ele>165</ele>
        <time>2016-07-25T11:17:12.000Z</time>
      </trkpt>
      <trkpt lat="44.30413" lon="4.55032">
        <ele>165</ele>
        <time>2016-07-25T11:17:13.000Z</time>
      </trkpt>
      <trkpt lat="44.3042" lon="4.55039">
        <ele>164</ele>
        <time>2016-07-25T11:17:17.000Z</time>
      </trkpt>
      <trkpt lat="44.30422" lon="4.55041">
        <ele>164</ele>
        <time>2016-07-25T11:17:18.000Z</time>
      </trkpt>
      <trkpt lat="44.30428" lon="4.55047">
        <ele>163</ele>
        <time>2016-07-25T11:17:21.000Z</time>
      </trkpt>
      <trkpt lat="44.3043" lon="4.55049">
        <ele>163</ele>
        <time>2016-07-25T11:17:22.000Z</time>
      </trkpt>
      <trkpt lat="44.30436" lon="4.55055">
        <ele>163</ele>
        <time>2016-07-25T11:17:25.000Z</time>
      </trkpt>
      <trkpt lat="44.30437" lon="4.55057">
        <ele>162</ele>
        <time>2016-07-25T11:17:26.000Z</time>
      </trkpt>
      <trkpt lat="44.30443" lon="4.55063">
        <ele>162</ele>
        <time>2016-07-25T11:17:29.000Z</time>
      </trkpt>
      <trkpt lat="44.30445" lon="4.55065">
        <ele>162</ele>
        <time>2016-07-25T11:17:30.000Z</time>
      </trkpt>
      <trkpt lat="44.30452" lon="4.55072">
        <ele>162</ele>
        <time>2016-07-25T11:17:33.000Z</time>
      </trkpt>
      <trkpt lat="44.30455" lon="4.55075">
        <ele>162</ele>
        <time>2016-07-25T11:17:34.000Z</time>
      </trkpt>
      <trkpt lat="44.3046" lon="4.55081">
        <ele>161</ele>
        <time>2016-07-25T11:17:37.000Z</time>
      </trkpt>
      <trkpt lat="44.30461" lon="4.55083">
        <ele>161</ele>
        <time>2016-07-25T11:17:38.000Z</time>
      </trkpt>
      <trkpt lat="44.30466" lon="4.55091">
        <ele>160</ele>
        <time>2016-07-25T11:17:41.000Z</time>
      </trkpt>
      <trkpt lat="44.30468" lon="4.55095">
        <ele>160</ele>
        <time>2016-07-25T11:17:42.000Z</time>
      </trkpt>
      <trkpt lat="44.30472" lon="4.55105">
        <ele>160</ele>
        <time>2016-07-25T11:17:44.000Z</time>
      </trkpt>
      <trkpt lat="44.30474" lon="4.55111">
        <ele>160</ele>
        <time>2016-07-25T11:17:45.000Z</time>
      </trkpt>
      <trkpt lat="44.30475" lon="4.55117">
        <ele>160</ele>
        <time>2016-07-25T11:17:46.000Z</time>
      </trkpt>
      <trkpt lat="44.30476" lon="4.55124">
        <ele>159</ele>
        <time>2016-07-25T11:17:47.000Z</time>
      </trkpt>
      <trkpt lat="44.30477" lon="4.55132">
        <ele>159</ele>
        <time>2016-07-25T11:17:48.000Z</time>
      </trkpt>
      <trkpt lat="44.30478" lon="4.55139">
        <ele>159</ele>
        <time>2016-07-25T11:17:49.000Z</time>
      </trkpt>
      <trkpt lat="44.30479" lon="4.55147">
        <ele>158</ele>
        <time>2016-07-25T11:17:50.000Z</time>
      </trkpt>
      <trkpt lat="44.30481" lon="4.55156">
        <ele>158</ele>
        <time>2016-07-25T11:17:51.000Z</time>
      </trkpt>
      <trkpt lat="44.30483" lon="4.55164">
        <ele>157</ele>
        <time>2016-07-25T11:17:52.000Z</time>
      </trkpt>
      <trkpt lat="44.30485" lon="4.55174">
        <ele>158</ele>
        <time>2016-07-25T11:17:53.000Z</time>
      </trkpt>
      <trkpt lat="44.30487" lon="4.55184">
        <ele>157</ele>
        <time>2016-07-25T11:17:54.000Z</time>
      </trkpt>
      <trkpt lat="44.3049" lon="4.55194">
        <ele>158</ele>
        <time>2016-07-25T11:17:55.000Z</time>
      </trkpt>
      <trkpt lat="44.30494" lon="4.55202">
        <ele>157</ele>
        <time>2016-07-25T11:17:56.000Z</time>
      </trkpt>
      <trkpt lat="44.30496" lon="4.55211">
        <ele>157</ele>
        <time>2016-07-25T11:17:57.000Z</time>
      </trkpt>
      <trkpt lat="44.30498" lon="4.5522">
        <ele>157</ele>
        <time>2016-07-25T11:17:58.000Z</time>
      </trkpt>
      <trkpt lat="44.305" lon="4.55228">
        <ele>157</ele>
        <time>2016-07-25T11:17:59.000Z</time>
      </trkpt>
      <trkpt lat="44.30502" lon="4.55237">
        <ele>157</ele>
        <time>2016-07-25T11:18:00.000Z</time>
      </trkpt>
      <trkpt lat="44.30504" lon="4.55246">
        <ele>157</ele>
        <time>2016-07-25T11:18:01.000Z</time>
      </trkpt>
      <trkpt lat="44.30505" lon="4.55254">
        <ele>157</ele>
        <time>2016-07-25T11:18:02.000Z</time>
      </trkpt>
      <trkpt lat="44.30506" lon="4.55262">
        <ele>156</ele>
        <time>2016-07-25T11:18:03.000Z</time>
      </trkpt>
      <trkpt lat="44.30507" lon="4.55269">
        <ele>156</ele>
        <time>2016-07-25T11:18:04.000Z</time>
      </trkpt>
      <trkpt lat="44.30507" lon="4.55276">
        <ele>156</ele>
        <time>2016-07-25T11:18:05.000Z</time>
      </trkpt>
      <trkpt lat="44.30506" lon="4.55282">
        <ele>157</ele>
        <time>2016-07-25T11:18:06.000Z</time>
      </trkpt>
      <trkpt lat="44.30504" lon="4.55288">
        <ele>156</ele>
        <time>2016-07-25T11:18:07.000Z</time>
      </trkpt>
      <trkpt lat="44.30497" lon="4.55296">
        <ele>155</ele>
        <time>2016-07-25T11:18:09.000Z</time>
      </trkpt>
      <trkpt lat="44.30493" lon="4.553">
        <ele>155</ele>
        <time>2016-07-25T11:18:10.000Z</time>
      </trkpt>
      <trkpt lat="44.30486" lon="4.55307">
        <ele>154</ele>
        <time>2016-07-25T11:18:12.000Z</time>
      </trkpt>
      <trkpt lat="44.30483" lon="4.5531">
        <ele>154</ele>
        <time>2016-07-25T11:18:13.000Z</time>
      </trkpt>
      <trkpt lat="44.30476" lon="4.55318">
        <ele>153</ele>
        <time>2016-07-25T11:18:15.000Z</time>
      </trkpt>
      <trkpt lat="44.30474" lon="4.55322">
        <ele>153</ele>
        <time>2016-07-25T11:18:16.000Z</time>
      </trkpt>
      <trkpt lat="44.30468" lon="4.55328">
        <ele>153</ele>
        <time>2016-07-25T11:18:18.000Z</time>
      </trkpt>
      <trkpt lat="44.30466" lon="4.5533">
        <ele>152</ele>
        <time>2016-07-25T11:18:19.000Z</time>
      </trkpt>
      <trkpt lat="44.30461" lon="4.55337">
        <ele>152</ele>
        <time>2016-07-25T11:18:21.000Z</time>
      </trkpt>
      <trkpt lat="44.30458" lon="4.55341">
        <ele>152</ele>
        <time>2016-07-25T11:18:22.000Z</time>
      </trkpt>
      <trkpt lat="44.30453" lon="4.55347">
        <ele>152</ele>
        <time>2016-07-25T11:18:24.000Z</time>
      </trkpt>
      <trkpt lat="44.3045" lon="4.55351">
        <ele>152</ele>
        <time>2016-07-25T11:18:25.000Z</time>
      </trkpt>
      <trkpt lat="44.30446" lon="4.55357">
        <ele>152</ele>
        <time>2016-07-25T11:18:27.000Z</time>
      </trkpt>
      <trkpt lat="44.30444" lon="4.5536">
        <ele>152</ele>
        <time>2016-07-25T11:18:28.000Z</time>
      </trkpt>
      <trkpt lat="44.30441" lon="4.55369">
        <ele>152</ele>
        <time>2016-07-25T11:18:30.000Z</time>
      </trkpt>
      <trkpt lat="44.3044" lon="4.55375">
        <ele>151</ele>
        <time>2016-07-25T11:18:31.000Z</time>
      </trkpt>
      <trkpt lat="44.3044" lon="4.55386">
        <ele>151</ele>
        <time>2016-07-25T11:18:33.000Z</time>
      </trkpt>
      <trkpt lat="44.30441" lon="4.55392">
        <ele>150</ele>
        <time>2016-07-25T11:18:34.000Z</time>
      </trkpt>
      <trkpt lat="44.30442" lon="4.55403">
        <ele>149</ele>
        <time>2016-07-25T11:18:36.000Z</time>
      </trkpt>
      <trkpt lat="44.30442" lon="4.55409">
        <ele>149</ele>
        <time>2016-07-25T11:18:37.000Z</time>
      </trkpt>
      <trkpt lat="44.30443" lon="4.55421">
        <ele>148</ele>
        <time>2016-07-25T11:18:39.000Z</time>
      </trkpt>
      <trkpt lat="44.30443" lon="4.55427">
        <ele>148</ele>
        <time>2016-07-25T11:18:40.000Z</time>
      </trkpt>
      <trkpt lat="44.30444" lon="4.55439">
        <ele>147</ele>
        <time>2016-07-25T11:18:42.000Z</time>
      </trkpt>
      <trkpt lat="44.30445" lon="4.55445">
        <ele>146</ele>
        <time>2016-07-25T11:18:43.000Z</time>
      </trkpt>
      <trkpt lat="44.30445" lon="4.55455">
        <ele>146</ele>
        <time>2016-07-25T11:18:45.000Z</time>
      </trkpt>
      <trkpt lat="44.30446" lon="4.55458">
        <ele>146</ele>
        <time>2016-07-25T11:18:46.000Z</time>
      </trkpt>
      <trkpt lat="44.30442" lon="4.55467">
        <ele>146</ele>
        <time>2016-07-25T11:20:17.000Z</time>
      </trkpt>
      <trkpt lat="44.30445" lon="4.55471">
        <ele>146</ele>
        <time>2016-07-25T11:20:18.000Z</time>
      </trkpt>
      <trkpt lat="44.30448" lon="4.55479">
        <ele>147</ele>
        <time>2016-07-25T11:20:21.000Z</time>
      </trkpt>
      <trkpt lat="44.3045" lon="4.55481">
        <ele>147</ele>
        <time>2016-07-25T11:20:22.000Z</time>
      </trkpt>
      <trkpt lat="44.30458" lon="4.55487">
        <ele>144</ele>
        <time>2016-07-25T11:20:26.000Z</time>
      </trkpt>
      <trkpt lat="44.30459" lon="4.55489">
        <ele>144</ele>
        <time>2016-07-25T11:20:27.000Z</time>
      </trkpt>
      <trkpt lat="44.30464" lon="4.55499">
        <ele>144</ele>
        <time>2016-07-25T11:20:32.000Z</time>
      </trkpt>
      <trkpt lat="44.30465" lon="4.555">
        <ele>143</ele>
        <time>2016-07-25T11:20:33.000Z</time>
      </trkpt>
      <trkpt lat="44.3047" lon="4.5551">
        <ele>144</ele>
        <time>2016-07-25T11:20:38.000Z</time>
      </trkpt>
      <trkpt lat="44.3047" lon="4.55512">
        <ele>143</ele>
        <time>2016-07-25T11:20:39.000Z</time>
      </trkpt>
      <trkpt lat="44.3047" lon="4.55514">
        <ele>145</ele>
        <time>2016-07-25T11:23:09.000Z</time>
      </trkpt>
      <trkpt lat="44.3047" lon="4.55514">
        <ele>146</ele>
        <time>2016-07-25T11:23:10.000Z</time>
      </trkpt>
      <trkpt lat="44.3047" lon="4.55513">
        <ele>146</ele>
        <time>2016-07-25T11:23:19.000Z</time>
      </trkpt>
      <trkpt lat="44.30469" lon="4.55513">
        <ele>146</ele>
        <time>2016-07-25T11:23:20.000Z</time>
      </trkpt>
      <trkpt lat="44.30469" lon="4.55513">
        <ele>147</ele>
        <time>2016-07-25T11:23:22.000Z</time>
      </trkpt>
      <trkpt lat="44.30469" lon="4.55513">
        <ele>147</ele>
        <time>2016-07-25T11:23:23.000Z</time>
      </trkpt>
      <trkpt lat="44.3047" lon="4.55514">
        <ele>148</ele>
        <time>2016-07-25T11:23:24.000Z</time>
      </trkpt>
      <trkpt lat="44.3047" lon="4.55504">
        <ele>150</ele>
        <time>2016-07-25T11:36:39.000Z</time>
      </trkpt>
      <trkpt lat="44.30469" lon="4.55501">
        <ele>150</ele>
        <time>2016-07-25T11:36:40.000Z</time>
      </trkpt>
      <trkpt lat="44.30463" lon="4.55496">
        <ele>148</ele>
        <time>2016-07-25T11:36:44.000Z</time>
      </trkpt>
      <trkpt lat="44.30461" lon="4.55494">
        <ele>148</ele>
        <time>2016-07-25T11:36:45.000Z</time>
      </trkpt>
      <trkpt lat="44.30456" lon="4.55485">
        <ele>147</ele>
        <time>2016-07-25T11:36:49.000Z</time>
      </trkpt>
      <trkpt lat="44.30455" lon="4.55483">
        <ele>146</ele>
        <time>2016-07-25T11:36:50.000Z</time>
      </trkpt>
      <trkpt lat="44.30447" lon="4.55478">
        <ele>144</ele>
        <time>2016-07-25T11:36:55.000Z</time>
      </trkpt>
      <trkpt lat="44.30446" lon="4.55478">
        <ele>145</ele>
        <time>2016-07-25T11:36:56.000Z</time>
      </trkpt>
      <trkpt lat="44.30438" lon="4.5548">
        <ele>145</ele>
        <time>2016-07-25T11:36:59.000Z</time>
      </trkpt>
      <trkpt lat="44.30436" lon="4.5548">
        <ele>145</ele>
        <time>2016-07-25T11:37:00.000Z</time>
      </trkpt>
      <trkpt lat="44.30432" lon="4.55482">
        <ele>145</ele>
        <time>2016-07-25T11:37:01.000Z</time>
      </trkpt>
      <trkpt lat="44.30427" lon="4.55484">
        <ele>145</ele>
        <time>2016-07-25T11:37:02.000Z</time>
      </trkpt>
      <trkpt lat="44.30422" lon="4.55485">
        <ele>144</ele>
        <time>2016-07-25T11:37:03.000Z</time>
      </trkpt>
      <trkpt lat="44.30417" lon="4.55485">
        <ele>143</ele>
        <time>2016-07-25T11:37:04.000Z</time>
      </trkpt>
      <trkpt lat="44.30409" lon="4.55488">
        <ele>143</ele>
        <time>2016-07-25T11:37:06.000Z</time>
      </trkpt>
      <trkpt lat="44.30403" lon="4.55488">
        <ele>143</ele>
        <time>2016-07-25T11:37:07.000Z</time>
      </trkpt>
      <trkpt lat="44.30399" lon="4.55491">
        <ele>143</ele>
        <time>2016-07-25T11:37:08.000Z</time>
      </trkpt>
      <trkpt lat="44.30395" lon="4.55493">
        <ele>142</ele>
        <time>2016-07-25T11:37:09.000Z</time>
      </trkpt>
      <trkpt lat="44.30391" lon="4.55498">
        <ele>143</ele>
        <time>2016-07-25T11:37:11.000Z</time>
      </trkpt>
      <trkpt lat="44.30386" lon="4.55501">
        <ele>143</ele>
        <time>2016-07-25T11:37:12.000Z</time>
      </trkpt>
      <trkpt lat="44.30379" lon="4.55503">
        <ele>145</ele>
        <time>2016-07-25T11:37:13.000Z</time>
      </trkpt>
      <trkpt lat="44.30373" lon="4.55505">
        <ele>146</ele>
        <time>2016-07-25T11:37:14.000Z</time>
      </trkpt>
      <trkpt lat="44.3037" lon="4.55507">
        <ele>146</ele>
        <time>2016-07-25T11:37:15.000Z</time>
      </trkpt>
      <trkpt lat="44.30364" lon="4.55509">
        <ele>146</ele>
        <time>2016-07-25T11:37:16.000Z</time>
      </trkpt>
      <trkpt lat="44.30359" lon="4.5551">
        <ele>147</ele>
        <time>2016-07-25T11:37:17.000Z</time>
      </trkpt>
      <trkpt lat="44.30354" lon="4.55511">
        <ele>147</ele>
        <time>2016-07-25T11:37:18.000Z</time>
      </trkpt>
      <trkpt lat="44.30352" lon="4.55513">
        <ele>148</ele>
        <time>2016-07-25T11:37:19.000Z</time>
      </trkpt>
      <trkpt lat="44.30345" lon="4.55513">
        <ele>148</ele>
        <time>2016-07-25T11:37:20.000Z</time>
      </trkpt>
      <trkpt lat="44.30341" lon="4.55522">
        <ele>147</ele>
        <time>2016-07-25T11:37:22.000Z</time>
      </trkpt>
      <trkpt lat="44.30334" lon="4.55522">
        <ele>147</ele>
        <time>2016-07-25T11:37:23.000Z</time>
      </trkpt>
      <trkpt lat="44.30328" lon="4.55524">
        <ele>147</ele>
        <time>2016-07-25T11:37:24.000Z</time>
      </trkpt>
      <trkpt lat="44.30326" lon="4.5553">
        <ele>144</ele>
        <time>2016-07-25T11:37:25.000Z</time>
      </trkpt>
      <trkpt lat="44.30322" lon="4.55532">
        <ele>143</ele>
        <time>2016-07-25T11:37:26.000Z</time>
      </trkpt>
      <trkpt lat="44.30316" lon="4.55533">
        <ele>142</ele>
        <time>2016-07-25T11:37:27.000Z</time>
      </trkpt>
      <trkpt lat="44.30311" lon="4.55537">
        <ele>141</ele>
        <time>2016-07-25T11:37:29.000Z</time>
      </trkpt>
      <trkpt lat="44.30307" lon="4.55542">
        <ele>138</ele>
        <time>2016-07-25T11:37:30.000Z</time>
      </trkpt>
      <trkpt lat="44.30303" lon="4.55551">
        <ele>136</ele>
        <time>2016-07-25T11:37:32.000Z</time>
      </trkpt>
      <trkpt lat="44.30303" lon="4.55555">
        <ele>136</ele>
        <time>2016-07-25T11:37:33.000Z</time>
      </trkpt>
      <trkpt lat="44.303" lon="4.55566">
        <ele>135</ele>
        <time>2016-07-25T11:37:37.000Z</time>
      </trkpt>
      <trkpt lat="44.303" lon="4.55569">
        <ele>135</ele>
        <time>2016-07-25T11:37:38.000Z</time>
      </trkpt>
      <trkpt lat="44.30295" lon="4.55578">
        <ele>140</ele>
        <time>2016-07-25T11:37:41.000Z</time>
      </trkpt>
      <trkpt lat="44.30293" lon="4.55581">
        <ele>140</ele>
        <time>2016-07-25T11:37:42.000Z</time>
      </trkpt>
      <trkpt lat="44.30289" lon="4.55592">
        <ele>141</ele>
        <time>2016-07-25T11:37:47.000Z</time>
      </trkpt>
      <trkpt lat="44.30288" lon="4.55595">
        <ele>143</ele>
        <time>2016-07-25T11:37:48.000Z</time>
      </trkpt>
      <trkpt lat="44.30286" lon="4.55604">
        <ele>143</ele>
        <time>2016-07-25T11:38:00.000Z</time>
      </trkpt>
      <trkpt lat="44.30283" lon="4.55607">
        <ele>143</ele>
        <time>2016-07-25T11:38:01.000Z</time>
      </trkpt>
      <trkpt lat="44.30277" lon="4.55604">
        <ele>138</ele>
        <time>2016-07-25T11:38:05.000Z</time>
      </trkpt>
      <trkpt lat="44.30274" lon="4.55602">
        <ele>138</ele>
        <time>2016-07-25T11:38:06.000Z</time>
      </trkpt>
      <trkpt lat="44.30268" lon="4.55592">
        <ele>135</ele>
        <time>2016-07-25T11:38:09.000Z</time>
      </trkpt>
      <trkpt lat="44.30266" lon="4.5559">
        <ele>135</ele>
        <time>2016-07-25T11:38:10.000Z</time>
      </trkpt>
      <trkpt lat="44.3026" lon="4.55583">
        <ele>136</ele>
        <time>2016-07-25T11:38:13.000Z</time>
      </trkpt>
      <trkpt lat="44.30259" lon="4.5558">
        <ele>137</ele>
        <time>2016-07-25T11:38:14.000Z</time>
      </trkpt>
      <trkpt lat="44.30254" lon="4.55573">
        <ele>137</ele>
        <time>2016-07-25T11:38:17.000Z</time>
      </trkpt>
      <trkpt lat="44.30252" lon="4.5557">
        <ele>138</ele>
        <time>2016-07-25T11:38:18.000Z</time>
      </trkpt>
      <trkpt lat="44.30248" lon="4.55562">
        <ele>138</ele>
        <time>2016-07-25T11:38:21.000Z</time>
      </trkpt>
      <trkpt lat="44.30246" lon="4.55559">
        <ele>138</ele>
        <time>2016-07-25T11:38:22.000Z</time>
      </trkpt>
      <trkpt lat="44.30242" lon="4.55551">
        <ele>137</ele>
        <time>2016-07-25T11:38:26.000Z</time>
      </trkpt>
      <trkpt lat="44.3024" lon="4.55549">
        <ele>137</ele>
        <time>2016-07-25T11:38:27.000Z</time>
      </trkpt>
      <trkpt lat="44.30235" lon="4.55541">
        <ele>136</ele>
        <time>2016-07-25T11:38:30.000Z</time>
      </trkpt>
      <trkpt lat="44.30233" lon="4.55539">
        <ele>136</ele>
        <time>2016-07-25T11:38:31.000Z</time>
      </trkpt>
      <trkpt lat="44.30228" lon="4.55531">
        <ele>135</ele>
        <time>2016-07-25T11:38:34.000Z</time>
      </trkpt>
      <trkpt lat="44.30226" lon="4.55528">
        <ele>134</ele>
        <time>2016-07-25T11:38:35.000Z</time>
      </trkpt>
      <trkpt lat="44.3022" lon="4.55521">
        <ele>134</ele>
        <time>2016-07-25T11:38:38.000Z</time>
      </trkpt>
      <trkpt lat="44.30219" lon="4.5552">
        <ele>136</ele>
        <time>2016-07-25T11:38:39.000Z</time>
      </trkpt>
      <trkpt lat="44.30214" lon="4.55513">
        <ele>135</ele>
        <time>2016-07-25T11:38:42.000Z</time>
      </trkpt>
      <trkpt lat="44.30211" lon="4.55511">
        <ele>135</ele>
        <time>2016-07-25T11:38:43.000Z</time>
      </trkpt>
      <trkpt lat="44.30207" lon="4.55504">
        <ele>137</ele>
        <time>2016-07-25T11:38:46.000Z</time>
      </trkpt>
      <trkpt lat="44.30205" lon="4.55502">
        <ele>138</ele>
        <time>2016-07-25T11:38:47.000Z</time>
      </trkpt>
      <trkpt lat="44.30198" lon="4.55495">
        <ele>138</ele>
        <time>2016-07-25T11:38:50.000Z</time>
      </trkpt>
      <trkpt lat="44.30196" lon="4.55493">
        <ele>137</ele>
        <time>2016-07-25T11:38:51.000Z</time>
      </trkpt>
      <trkpt lat="44.3019" lon="4.55487">
        <ele>137</ele>
        <time>2016-07-25T11:38:54.000Z</time>
      </trkpt>
      <trkpt lat="44.30188" lon="4.55485">
        <ele>137</ele>
        <time>2016-07-25T11:38:55.000Z</time>
      </trkpt>
      <trkpt lat="44.3018" lon="4.55483">
        <ele>136</ele>
        <time>2016-07-25T11:38:58.000Z</time>
      </trkpt>
      <trkpt lat="44.30178" lon="4.55481">
        <ele>136</ele>
        <time>2016-07-25T11:38:59.000Z</time>
      </trkpt>
      <trkpt lat="44.3017" lon="4.55478">
        <ele>136</ele>
        <time>2016-07-25T11:39:02.000Z</time>
      </trkpt>
      <trkpt lat="44.30168" lon="4.55478">
        <ele>136</ele>
        <time>2016-07-25T11:39:03.000Z</time>
      </trkpt>
      <trkpt lat="44.30159" lon="4.55478">
        <ele>137</ele>
        <time>2016-07-25T11:39:07.000Z</time>
      </trkpt>
      <trkpt lat="44.30157" lon="4.55478">
        <ele>137</ele>
        <time>2016-07-25T11:39:08.000Z</time>
      </trkpt>
      <trkpt lat="44.3015" lon="4.55477">
        <ele>137</ele>
        <time>2016-07-25T11:39:11.000Z</time>
      </trkpt>
      <trkpt lat="44.30147" lon="4.55477">
        <ele>137</ele>
        <time>2016-07-25T11:39:12.000Z</time>
      </trkpt>
      <trkpt lat="44.30139" lon="4.55478">
        <ele>137</ele>
        <time>2016-07-25T11:39:15.000Z</time>
      </trkpt>
      <trkpt lat="44.30137" lon="4.55478">
        <ele>138</ele>
        <time>2016-07-25T11:39:16.000Z</time>
      </trkpt>
      <trkpt lat="44.3013" lon="4.55479">
        <ele>139</ele>
        <time>2016-07-25T11:39:19.000Z</time>
      </trkpt>
      <trkpt lat="44.30127" lon="4.55478">
        <ele>139</ele>
        <time>2016-07-25T11:39:20.000Z</time>
      </trkpt>
      <trkpt lat="44.30119" lon="4.55477">
        <ele>141</ele>
        <time>2016-07-25T11:39:24.000Z</time>
      </trkpt>
      <trkpt lat="44.30116" lon="4.55477">
        <ele>142</ele>
        <time>2016-07-25T11:39:25.000Z</time>
      </trkpt>
      <trkpt lat="44.30108" lon="4.55476">
        <ele>141</ele>
        <time>2016-07-25T11:39:28.000Z</time>
      </trkpt>
      <trkpt lat="44.30106" lon="4.55477">
        <ele>141</ele>
        <time>2016-07-25T11:39:29.000Z</time>
      </trkpt>
      <trkpt lat="44.30098" lon="4.55476">
        <ele>141</ele>
        <time>2016-07-25T11:39:32.000Z</time>
      </trkpt>
      <trkpt lat="44.30095" lon="4.55476">
        <ele>141</ele>
        <time>2016-07-25T11:39:33.000Z</time>
      </trkpt>
      <trkpt lat="44.30087" lon="4.55475">
        <ele>141</ele>
        <time>2016-07-25T11:39:37.000Z</time>
      </trkpt>
      <trkpt lat="44.30084" lon="4.55475">
        <ele>141</ele>
        <time>2016-07-25T11:39:38.000Z</time>
      </trkpt>
      <trkpt lat="44.30076" lon="4.55474">
        <ele>140</ele>
        <time>2016-07-25T11:39:41.000Z</time>
      </trkpt>
      <trkpt lat="44.30074" lon="4.55474">
        <ele>140</ele>
        <time>2016-07-25T11:39:42.000Z</time>
      </trkpt>
      <trkpt lat="44.30065" lon="4.55473">
        <ele>140</ele>
        <time>2016-07-25T11:39:45.000Z</time>
      </trkpt>
      <trkpt lat="44.30062" lon="4.55473">
        <ele>140</ele>
        <time>2016-07-25T11:39:46.000Z</time>
      </trkpt>
      <trkpt lat="44.30055" lon="4.55472">
        <ele>141</ele>
        <time>2016-07-25T11:39:48.000Z</time>
      </trkpt>
      <trkpt lat="44.30052" lon="4.55473">
        <ele>141</ele>
        <time>2016-07-25T11:39:49.000Z</time>
      </trkpt>
      <trkpt lat="44.30044" lon="4.55472">
        <ele>141</ele>
        <time>2016-07-25T11:39:51.000Z</time>
      </trkpt>
      <trkpt lat="44.3004" lon="4.55472">
        <ele>142</ele>
        <time>2016-07-25T11:39:52.000Z</time>
      </trkpt>
      <trkpt lat="44.30032" lon="4.55473">
        <ele>142</ele>
        <time>2016-07-25T11:39:54.000Z</time>
      </trkpt>
      <trkpt lat="44.30028" lon="4.55473">
        <ele>142</ele>
        <time>2016-07-25T11:39:55.000Z</time>
      </trkpt>
      <trkpt lat="44.3002" lon="4.55473">
        <ele>142</ele>
        <time>2016-07-25T11:39:57.000Z</time>
      </trkpt>
      <trkpt lat="44.30016" lon="4.55473">
        <ele>141</ele>
        <time>2016-07-25T11:39:58.000Z</time>
      </trkpt>
      <trkpt lat="44.30012" lon="4.55472">
        <ele>140</ele>
        <time>2016-07-25T11:39:59.000Z</time>
      </trkpt>
      <trkpt lat="44.30007" lon="4.55472">
        <ele>140</ele>
        <time>2016-07-25T11:40:00.000Z</time>
      </trkpt>
      <trkpt lat="44.29998" lon="4.5547">
        <ele>140</ele>
        <time>2016-07-25T11:40:02.000Z</time>
      </trkpt>
      <trkpt lat="44.29994" lon="4.5547">
        <ele>140</ele>
        <time>2016-07-25T11:40:03.000Z</time>
      </trkpt>
      <trkpt lat="44.29989" lon="4.5547">
        <ele>140</ele>
        <time>2016-07-25T11:40:04.000Z</time>
      </trkpt>
      <trkpt lat="44.29984" lon="4.5547">
        <ele>140</ele>
        <time>2016-07-25T11:40:05.000Z</time>
      </trkpt>
      <trkpt lat="44.29979" lon="4.5547">
        <ele>140</ele>
        <time>2016-07-25T11:40:06.000Z</time>
      </trkpt>
      <trkpt lat="44.29974" lon="4.5547">
        <ele>140</ele>
        <time>2016-07-25T11:40:07.000Z</time>
      </trkpt>
      <trkpt lat="44.29969" lon="4.5547">
        <ele>140</ele>
        <time>2016-07-25T11:40:08.000Z</time>
      </trkpt>
      <trkpt lat="44.29963" lon="4.5547">
        <ele>140</ele>
        <time>2016-07-25T11:40:09.000Z</time>
      </trkpt>
      <trkpt lat="44.29957" lon="4.5547">
        <ele>139</ele>
        <time>2016-07-25T11:40:10.000Z</time>
      </trkpt>
      <trkpt lat="44.29952" lon="4.5547">
        <ele>139</ele>
        <time>2016-07-25T11:40:11.000Z</time>
      </trkpt>
      <trkpt lat="44.29946" lon="4.5547">
        <ele>139</ele>
        <time>2016-07-25T11:40:12.000Z</time>
      </trkpt>
      <trkpt lat="44.2994" lon="4.55469">
        <ele>139</ele>
        <time>2016-07-25T11:40:13.000Z</time>
      </trkpt>
      <trkpt lat="44.29935" lon="4.55468">
        <ele>139</ele>
        <time>2016-07-25T11:40:14.000Z</time>
      </trkpt>
      <trkpt lat="44.2993" lon="4.55468">
        <ele>138</ele>
        <time>2016-07-25T11:40:15.000Z</time>
      </trkpt>
      <trkpt lat="44.29925" lon="4.55467">
        <ele>138</ele>
        <time>2016-07-25T11:40:16.000Z</time>
      </trkpt>
      <trkpt lat="44.29921" lon="4.55466">
        <ele>137</ele>
        <time>2016-07-25T11:40:17.000Z</time>
      </trkpt>
      <trkpt lat="44.29913" lon="4.55463">
        <ele>137</ele>
        <time>2016-07-25T11:40:19.000Z</time>
      </trkpt>
      <trkpt lat="44.29909" lon="4.5546">
        <ele>137</ele>
        <time>2016-07-25T11:40:20.000Z</time>
      </trkpt>
      <trkpt lat="44.29903" lon="4.55453">
        <ele>136</ele>
        <time>2016-07-25T11:40:22.000Z</time>
      </trkpt>
      <trkpt lat="44.299" lon="4.55448">
        <ele>135</ele>
        <time>2016-07-25T11:40:23.000Z</time>
      </trkpt>
      <trkpt lat="44.29894" lon="4.55443">
        <ele>135</ele>
        <time>2016-07-25T11:40:25.000Z</time>
      </trkpt>
      <trkpt lat="44.2989" lon="4.55442">
        <ele>135</ele>
        <time>2016-07-25T11:40:26.000Z</time>
      </trkpt>
      <trkpt lat="44.29882" lon="4.55443">
        <ele>135</ele>
        <time>2016-07-25T11:40:28.000Z</time>
      </trkpt>
      <trkpt lat="44.29878" lon="4.55444">
        <ele>134</ele>
        <time>2016-07-25T11:40:29.000Z</time>
      </trkpt>
      <trkpt lat="44.29869" lon="4.55447">
        <ele>134</ele>
        <time>2016-07-25T11:40:31.000Z</time>
      </trkpt>
      <trkpt lat="44.29865" lon="4.55448">
        <ele>133</ele>
        <time>2016-07-25T11:40:32.000Z</time>
      </trkpt>
      <trkpt lat="44.29857" lon="4.5545">
        <ele>132</ele>
        <time>2016-07-25T11:40:34.000Z</time>
      </trkpt>
      <trkpt lat="44.29852" lon="4.5545">
        <ele>131</ele>
        <time>2016-07-25T11:40:35.000Z</time>
      </trkpt>
      <trkpt lat="44.29844" lon="4.55453">
        <ele>134</ele>
        <time>2016-07-25T11:40:37.000Z</time>
      </trkpt>
      <trkpt lat="44.2984" lon="4.55454">
        <ele>135</ele>
        <time>2016-07-25T11:40:38.000Z</time>
      </trkpt>
      <trkpt lat="44.29835" lon="4.55454">
        <ele>134</ele>
        <time>2016-07-25T11:40:39.000Z</time>
      </trkpt>
      <trkpt lat="44.2983" lon="4.55456">
        <ele>134</ele>
        <time>2016-07-25T11:40:40.000Z</time>
      </trkpt>
      <trkpt lat="44.29826" lon="4.55456">
        <ele>134</ele>
        <time>2016-07-25T11:40:41.000Z</time>
      </trkpt>
      <trkpt lat="44.29821" lon="4.55455">
        <ele>134</ele>
        <time>2016-07-25T11:40:42.000Z</time>
      </trkpt>
      <trkpt lat="44.29813" lon="4.55458">
        <ele>135</ele>
        <time>2016-07-25T11:40:44.000Z</time>
      </trkpt>
      <trkpt lat="44.29808" lon="4.55459">
        <ele>135</ele>
        <time>2016-07-25T11:40:45.000Z</time>
      </trkpt>
      <trkpt lat="44.29805" lon="4.5546">
        <ele>136</ele>
        <time>2016-07-25T11:40:46.000Z</time>
      </trkpt>
      <trkpt lat="44.29799" lon="4.5546">
        <ele>136</ele>
        <time>2016-07-25T11:40:47.000Z</time>
      </trkpt>
      <trkpt lat="44.29793" lon="4.5546">
        <ele>136</ele>
        <time>2016-07-25T11:40:48.000Z</time>
      </trkpt>
      <trkpt lat="44.29786" lon="4.55459">
        <ele>134</ele>
        <time>2016-07-25T11:40:49.000Z</time>
      </trkpt>
      <trkpt lat="44.29781" lon="4.55459">
        <ele>134</ele>
        <time>2016-07-25T11:40:50.000Z</time>
      </trkpt>
      <trkpt lat="44.29776" lon="4.5546">
        <ele>134</ele>
        <time>2016-07-25T11:40:51.000Z</time>
      </trkpt>
      <trkpt lat="44.2977" lon="4.55461">
        <ele>134</ele>
        <time>2016-07-25T11:40:52.000Z</time>
      </trkpt>
      <trkpt lat="44.29766" lon="4.55462">
        <ele>134</ele>
        <time>2016-07-25T11:40:53.000Z</time>
      </trkpt>
      <trkpt lat="44.2976" lon="4.55462">
        <ele>133</ele>
        <time>2016-07-25T11:40:54.000Z</time>
      </trkpt>
      <trkpt lat="44.29755" lon="4.55463">
        <ele>133</ele>
        <time>2016-07-25T11:40:55.000Z</time>
      </trkpt>
      <trkpt lat="44.29751" lon="4.55464">
        <ele>133</ele>
        <time>2016-07-25T11:40:56.000Z</time>
      </trkpt>
      <trkpt lat="44.29745" lon="4.55465">
        <ele>133</ele>
        <time>2016-07-25T11:40:57.000Z</time>
      </trkpt>
      <trkpt lat="44.2974" lon="4.55467">
        <ele>133</ele>
        <time>2016-07-25T11:40:58.000Z</time>
      </trkpt>
      <trkpt lat="44.29734" lon="4.55466">
        <ele>133</ele>
        <time>2016-07-25T11:40:59.000Z</time>
      </trkpt>
      <trkpt lat="44.29728" lon="4.55466">
        <ele>130</ele>
        <time>2016-07-25T11:41:00.000Z</time>
      </trkpt>
      <trkpt lat="44.29723" lon="4.55467">
        <ele>131</ele>
        <time>2016-07-25T11:41:01.000Z</time>
      </trkpt>
      <trkpt lat="44.29717" lon="4.55467">
        <ele>131</ele>
        <time>2016-07-25T11:41:02.000Z</time>
      </trkpt>
      <trkpt lat="44.2971" lon="4.55468">
        <ele>131</ele>
        <time>2016-07-25T11:41:03.000Z</time>
      </trkpt>
      <trkpt lat="44.29704" lon="4.5547">
        <ele>131</ele>
        <time>2016-07-25T11:41:04.000Z</time>
      </trkpt>
      <trkpt lat="44.29697" lon="4.55471">
        <ele>132</ele>
        <time>2016-07-25T11:41:05.000Z</time>
      </trkpt>
      <trkpt lat="44.2969" lon="4.55472">
        <ele>129</ele>
        <time>2016-07-25T11:41:06.000Z</time>
      </trkpt>
      <trkpt lat="44.29684" lon="4.55473">
        <ele>130</ele>
        <time>2016-07-25T11:41:07.000Z</time>
      </trkpt>
      <trkpt lat="44.29678" lon="4.55476">
        <ele>131</ele>
        <time>2016-07-25T11:41:08.000Z</time>
      </trkpt>
      <trkpt lat="44.29671" lon="4.55478">
        <ele>131</ele>
        <time>2016-07-25T11:41:09.000Z</time>
      </trkpt>
      <trkpt lat="44.29663" lon="4.55479">
        <ele>130</ele>
        <time>2016-07-25T11:41:10.000Z</time>
      </trkpt>
      <trkpt lat="44.29655" lon="4.55482">
        <ele>129</ele>
        <time>2016-07-25T11:41:11.000Z</time>
      </trkpt>
      <trkpt lat="44.29647" lon="4.55485">
        <ele>128</ele>
        <time>2016-07-25T11:41:12.000Z</time>
      </trkpt>
      <trkpt lat="44.29641" lon="4.55489">
        <ele>129</ele>
        <time>2016-07-25T11:41:13.000Z</time>
      </trkpt>
      <trkpt lat="44.29634" lon="4.55493">
        <ele>128</ele>
        <time>2016-07-25T11:41:14.000Z</time>
      </trkpt>
      <trkpt lat="44.29628" lon="4.55499">
        <ele>129</ele>
        <time>2016-07-25T11:41:15.000Z</time>
      </trkpt>
      <trkpt lat="44.2962" lon="4.55506">
        <ele>130</ele>
        <time>2016-07-25T11:41:16.000Z</time>
      </trkpt>
      <trkpt lat="44.29613" lon="4.55512">
        <ele>130</ele>
        <time>2016-07-25T11:41:17.000Z</time>
      </trkpt>
      <trkpt lat="44.29607" lon="4.55516">
        <ele>126</ele>
        <time>2016-07-25T11:41:18.000Z</time>
      </trkpt>
      <trkpt lat="44.29601" lon="4.55524">
        <ele>126</ele>
        <time>2016-07-25T11:41:19.000Z</time>
      </trkpt>
      <trkpt lat="44.29596" lon="4.55529">
        <ele>125</ele>
        <time>2016-07-25T11:41:20.000Z</time>
      </trkpt>
      <trkpt lat="44.29592" lon="4.55538">
        <ele>125</ele>
        <time>2016-07-25T11:41:21.000Z</time>
      </trkpt>
      <trkpt lat="44.29588" lon="4.55547">
        <ele>127</ele>
        <time>2016-07-25T11:41:22.000Z</time>
      </trkpt>
      <trkpt lat="44.29584" lon="4.55555">
        <ele>126</ele>
        <time>2016-07-25T11:41:23.000Z</time>
      </trkpt>
      <trkpt lat="44.2958" lon="4.55564">
        <ele>127</ele>
        <time>2016-07-25T11:41:24.000Z</time>
      </trkpt>
      <trkpt lat="44.29577" lon="4.55574">
        <ele>127</ele>
        <time>2016-07-25T11:41:25.000Z</time>
      </trkpt>
      <trkpt lat="44.29573" lon="4.55585">
        <ele>126</ele>
        <time>2016-07-25T11:41:26.000Z</time>
      </trkpt>
      <trkpt lat="44.29571" lon="4.55597">
        <ele>127</ele>
        <time>2016-07-25T11:41:27.000Z</time>
      </trkpt>
      <trkpt lat="44.29569" lon="4.55608">
        <ele>126</ele>
        <time>2016-07-25T11:41:28.000Z</time>
      </trkpt>
      <trkpt lat="44.29569" lon="4.5562">
        <ele>126</ele>
        <time>2016-07-25T11:41:29.000Z</time>
      </trkpt>
      <trkpt lat="44.29568" lon="4.55632">
        <ele>126</ele>
        <time>2016-07-25T11:41:30.000Z</time>
      </trkpt>
      <trkpt lat="44.29568" lon="4.55644">
        <ele>126</ele>
        <time>2016-07-25T11:41:31.000Z</time>
      </trkpt>
      <trkpt lat="44.29569" lon="4.55657">
        <ele>127</ele>
        <time>2016-07-25T11:41:32.000Z</time>
      </trkpt>
      <trkpt lat="44.29571" lon="4.55668">
        <ele>126</ele>
        <time>2016-07-25T11:41:33.000Z</time>
      </trkpt>
      <trkpt lat="44.29573" lon="4.55681">
        <ele>126</ele>
        <time>2016-07-25T11:41:34.000Z</time>
      </trkpt>
      <trkpt lat="44.29575" lon="4.55692">
        <ele>126</ele>
        <time>2016-07-25T11:41:35.000Z</time>
      </trkpt>
      <trkpt lat="44.29578" lon="4.55702">
        <ele>126</ele>
        <time>2016-07-25T11:41:36.000Z</time>
      </trkpt>
      <trkpt lat="44.29582" lon="4.55714">
        <ele>125</ele>
        <time>2016-07-25T11:41:37.000Z</time>
      </trkpt>
      <trkpt lat="44.29587" lon="4.55726">
        <ele>124</ele>
        <time>2016-07-25T11:41:38.000Z</time>
      </trkpt>
      <trkpt lat="44.29592" lon="4.55737">
        <ele>124</ele>
        <time>2016-07-25T11:41:39.000Z</time>
      </trkpt>
      <trkpt lat="44.29596" lon="4.55749">
        <ele>123</ele>
        <time>2016-07-25T11:41:40.000Z</time>
      </trkpt>
      <trkpt lat="44.29601" lon="4.55761">
        <ele>123</ele>
        <time>2016-07-25T11:41:41.000Z</time>
      </trkpt>
      <trkpt lat="44.29605" lon="4.55771">
        <ele>123</ele>
        <time>2016-07-25T11:41:42.000Z</time>
      </trkpt>
      <trkpt lat="44.29609" lon="4.55783">
        <ele>123</ele>
        <time>2016-07-25T11:41:43.000Z</time>
      </trkpt>
      <trkpt lat="44.29614" lon="4.55793">
        <ele>122</ele>
        <time>2016-07-25T11:41:44.000Z</time>
      </trkpt>
      <trkpt lat="44.29619" lon="4.55805">
        <ele>122</ele>
        <time>2016-07-25T11:41:45.000Z</time>
      </trkpt>
      <trkpt lat="44.29623" lon="4.55815">
        <ele>122</ele>
        <time>2016-07-25T11:41:46.000Z</time>
      </trkpt>
      <trkpt lat="44.29626" lon="4.55827">
        <ele>122</ele>
        <time>2016-07-25T11:41:47.000Z</time>
      </trkpt>
      <trkpt lat="44.2963" lon="4.55838">
        <ele>121</ele>
        <time>2016-07-25T11:41:48.000Z</time>
      </trkpt>
      <trkpt lat="44.29632" lon="4.55848">
        <ele>120</ele>
        <time>2016-07-25T11:41:49.000Z</time>
      </trkpt>
      <trkpt lat="44.29632" lon="4.55858">
        <ele>119</ele>
        <time>2016-07-25T11:41:50.000Z</time>
      </trkpt>
      <trkpt lat="44.29632" lon="4.55871">
        <ele>119</ele>
        <time>2016-07-25T11:41:51.000Z</time>
      </trkpt>
      <trkpt lat="44.29631" lon="4.55883">
        <ele>121</ele>
        <time>2016-07-25T11:41:52.000Z</time>
      </trkpt>
      <trkpt lat="44.29628" lon="4.55893">
        <ele>120</ele>
        <time>2016-07-25T11:41:53.000Z</time>
      </trkpt>
      <trkpt lat="44.29624" lon="4.55905">
        <ele>120</ele>
        <time>2016-07-25T11:41:54.000Z</time>
      </trkpt>
      <trkpt lat="44.29616" lon="4.55915">
        <ele>121</ele>
        <time>2016-07-25T11:41:55.000Z</time>
      </trkpt>
      <trkpt lat="44.29607" lon="4.55922">
        <ele>120</ele>
        <time>2016-07-25T11:41:56.000Z</time>
      </trkpt>
      <trkpt lat="44.296" lon="4.55931">
        <ele>120</ele>
        <time>2016-07-25T11:41:57.000Z</time>
      </trkpt>
      <trkpt lat="44.29594" lon="4.5594">
        <ele>119</ele>
        <time>2016-07-25T11:41:58.000Z</time>
      </trkpt>
      <trkpt lat="44.29588" lon="4.55949">
        <ele>119</ele>
        <time>2016-07-25T11:41:59.000Z</time>
      </trkpt>
      <trkpt lat="44.29582" lon="4.55957">
        <ele>120</ele>
        <time>2016-07-25T11:42:00.000Z</time>
      </trkpt>
      <trkpt lat="44.29575" lon="4.55963">
        <ele>119</ele>
        <time>2016-07-25T11:42:01.000Z</time>
      </trkpt>
      <trkpt lat="44.29569" lon="4.55971">
        <ele>120</ele>
        <time>2016-07-25T11:42:02.000Z</time>
      </trkpt>
      <trkpt lat="44.29563" lon="4.55982">
        <ele>119</ele>
        <time>2016-07-25T11:42:03.000Z</time>
      </trkpt>
      <trkpt lat="44.29556" lon="4.55993">
        <ele>118</ele>
        <time>2016-07-25T11:42:04.000Z</time>
      </trkpt>
      <trkpt lat="44.2955" lon="4.56002">
        <ele>116</ele>
        <time>2016-07-25T11:42:05.000Z</time>
      </trkpt>
      <trkpt lat="44.29546" lon="4.56014">
        <ele>116</ele>
        <time>2016-07-25T11:42:06.000Z</time>
      </trkpt>
      <trkpt lat="44.29542" lon="4.56026">
        <ele>115</ele>
        <time>2016-07-25T11:42:07.000Z</time>
      </trkpt>
      <trkpt lat="44.29537" lon="4.56035">
        <ele>114</ele>
        <time>2016-07-25T11:42:08.000Z</time>
      </trkpt>
      <trkpt lat="44.29534" lon="4.56047">
        <ele>115</ele>
        <time>2016-07-25T11:42:09.000Z</time>
      </trkpt>
      <trkpt lat="44.2953" lon="4.56057">
        <ele>115</ele>
        <time>2016-07-25T11:42:10.000Z</time>
      </trkpt>
      <trkpt lat="44.29527" lon="4.5607">
        <ele>113</ele>
        <time>2016-07-25T11:42:11.000Z</time>
      </trkpt>
      <trkpt lat="44.29522" lon="4.56079">
        <ele>112</ele>
        <time>2016-07-25T11:42:12.000Z</time>
      </trkpt>
      <trkpt lat="44.29522" lon="4.56092">
        <ele>112</ele>
        <time>2016-07-25T11:42:13.000Z</time>
      </trkpt>
      <trkpt lat="44.2952" lon="4.56102">
        <ele>111</ele>
        <time>2016-07-25T11:42:14.000Z</time>
      </trkpt>
      <trkpt lat="44.29518" lon="4.56113">
        <ele>113</ele>
        <time>2016-07-25T11:42:15.000Z</time>
      </trkpt>
      <trkpt lat="44.29517" lon="4.56123">
        <ele>112</ele>
        <time>2016-07-25T11:42:16.000Z</time>
      </trkpt>
      <trkpt lat="44.29516" lon="4.56133">
        <ele>111</ele>
        <time>2016-07-25T11:42:17.000Z</time>
      </trkpt>
      <trkpt lat="44.29514" lon="4.56143">
        <ele>111</ele>
        <time>2016-07-25T11:42:18.000Z</time>
      </trkpt>
      <trkpt lat="44.29513" lon="4.56153">
        <ele>112</ele>
        <time>2016-07-25T11:42:19.000Z</time>
      </trkpt>
      <trkpt lat="44.29512" lon="4.56161">
        <ele>113</ele>
        <time>2016-07-25T11:42:20.000Z</time>
      </trkpt>
      <trkpt lat="44.29512" lon="4.56172">
        <ele>113</ele>
        <time>2016-07-25T11:42:21.000Z</time>
      </trkpt>
      <trkpt lat="44.29511" lon="4.5618">
        <ele>114</ele>
        <time>2016-07-25T11:42:22.000Z</time>
      </trkpt>
      <trkpt lat="44.2951" lon="4.56189">
        <ele>114</ele>
        <time>2016-07-25T11:42:23.000Z</time>
      </trkpt>
      <trkpt lat="44.2951" lon="4.56196">
        <ele>114</ele>
        <time>2016-07-25T11:42:24.000Z</time>
      </trkpt>
      <trkpt lat="44.29509" lon="4.56204">
        <ele>113</ele>
        <time>2016-07-25T11:42:25.000Z</time>
      </trkpt>
      <trkpt lat="44.29509" lon="4.56209">
        <ele>113</ele>
        <time>2016-07-25T11:42:26.000Z</time>
      </trkpt>
      <trkpt lat="44.29508" lon="4.56216">
        <ele>113</ele>
        <time>2016-07-25T11:42:27.000Z</time>
      </trkpt>
      <trkpt lat="44.29506" lon="4.56227">
        <ele>111</ele>
        <time>2016-07-25T11:42:29.000Z</time>
      </trkpt>
      <trkpt lat="44.29505" lon="4.56233">
        <ele>111</ele>
        <time>2016-07-25T11:42:30.000Z</time>
      </trkpt>
      <trkpt lat="44.29504" lon="4.56243">
        <ele>110</ele>
        <time>2016-07-25T11:42:32.000Z</time>
      </trkpt>
      <trkpt lat="44.29503" lon="4.56248">
        <ele>111</ele>
        <time>2016-07-25T11:42:33.000Z</time>
      </trkpt>
      <trkpt lat="44.29502" lon="4.56258">
        <ele>110</ele>
        <time>2016-07-25T11:42:35.000Z</time>
      </trkpt>
      <trkpt lat="44.29501" lon="4.56263">
        <ele>111</ele>
        <time>2016-07-25T11:42:36.000Z</time>
      </trkpt>
      <trkpt lat="44.29501" lon="4.56272">
        <ele>110</ele>
        <time>2016-07-25T11:42:38.000Z</time>
      </trkpt>
      <trkpt lat="44.29501" lon="4.56276">
        <ele>110</ele>
        <time>2016-07-25T11:42:39.000Z</time>
      </trkpt>
      <trkpt lat="44.29499" lon="4.56288">
        <ele>110</ele>
        <time>2016-07-25T11:42:42.000Z</time>
      </trkpt>
      <trkpt lat="44.29498" lon="4.56292">
        <ele>109</ele>
        <time>2016-07-25T11:42:43.000Z</time>
      </trkpt>
      <trkpt lat="44.29491" lon="4.56297">
        <ele>112</ele>
        <time>2016-07-25T11:42:46.000Z</time>
      </trkpt>
      <trkpt lat="44.29489" lon="4.56295">
        <ele>111</ele>
        <time>2016-07-25T11:42:47.000Z</time>
      </trkpt>
      <trkpt lat="44.29481" lon="4.56292">
        <ele>109</ele>
        <time>2016-07-25T11:42:50.000Z</time>
      </trkpt>
      <trkpt lat="44.2948" lon="4.56291">
        <ele>110</ele>
        <time>2016-07-25T11:42:51.000Z</time>
      </trkpt>
      <trkpt lat="44.29471" lon="4.56291">
        <ele>111</ele>
        <time>2016-07-25T11:42:56.000Z</time>
      </trkpt>
      <trkpt lat="44.2947" lon="4.56291">
        <ele>111</ele>
        <time>2016-07-25T11:42:57.000Z</time>
      </trkpt>
      <trkpt lat="44.29462" lon="4.56289">
        <ele>109</ele>
        <time>2016-07-25T11:43:01.000Z</time>
      </trkpt>
      <trkpt lat="44.2946" lon="4.56289">
        <ele>109</ele>
        <time>2016-07-25T11:43:02.000Z</time>
      </trkpt>
      <trkpt lat="44.29453" lon="4.56286">
        <ele>110</ele>
        <time>2016-07-25T11:43:07.000Z</time>
      </trkpt>
      <trkpt lat="44.29451" lon="4.56286">
        <ele>110</ele>
        <time>2016-07-25T11:43:08.000Z</time>
      </trkpt>
      <trkpt lat="44.29443" lon="4.56285">
        <ele>108</ele>
        <time>2016-07-25T11:43:13.000Z</time>
      </trkpt>
      <trkpt lat="44.29441" lon="4.56284">
        <ele>108</ele>
        <time>2016-07-25T11:43:14.000Z</time>
      </trkpt>
      <trkpt lat="44.29434" lon="4.56283">
        <ele>108</ele>
        <time>2016-07-25T11:43:17.000Z</time>
      </trkpt>
      <trkpt lat="44.2943" lon="4.56283">
        <ele>109</ele>
        <time>2016-07-25T11:43:18.000Z</time>
      </trkpt>
      <trkpt lat="44.29422" lon="4.56279">
        <ele>112</ele>
        <time>2016-07-25T11:43:22.000Z</time>
      </trkpt>
      <trkpt lat="44.29421" lon="4.56278">
        <ele>112</ele>
        <time>2016-07-25T11:43:23.000Z</time>
      </trkpt>
      <trkpt lat="44.29413" lon="4.56272">
        <ele>108</ele>
        <time>2016-07-25T11:43:30.000Z</time>
      </trkpt>
      <trkpt lat="44.29413" lon="4.56271">
        <ele>108</ele>
        <time>2016-07-25T11:43:31.000Z</time>
      </trkpt>
      <trkpt lat="44.29407" lon="4.56264">
        <ele>107</ele>
        <time>2016-07-25T11:43:36.000Z</time>
      </trkpt>
      <trkpt lat="44.29405" lon="4.56263">
        <ele>107</ele>
        <time>2016-07-25T11:43:37.000Z</time>
      </trkpt>
      <trkpt lat="44.29399" lon="4.56257">
        <ele>104</ele>
        <time>2016-07-25T11:43:43.000Z</time>
      </trkpt>
      <trkpt lat="44.29396" lon="4.56257">
        <ele>102</ele>
        <time>2016-07-25T11:43:44.000Z</time>
      </trkpt>
      <trkpt lat="44.29387" lon="4.56258">
        <ele>102</ele>
        <time>2016-07-25T11:43:49.000Z</time>
      </trkpt>
      <trkpt lat="44.29386" lon="4.56258">
        <ele>101</ele>
        <time>2016-07-25T11:43:50.000Z</time>
      </trkpt>
      <trkpt lat="44.29379" lon="4.56259">
        <ele>100</ele>
        <time>2016-07-25T11:43:55.000Z</time>
      </trkpt>
      <trkpt lat="44.29377" lon="4.5626">
        <ele>100</ele>
        <time>2016-07-25T11:43:56.000Z</time>
      </trkpt>
      <trkpt lat="44.29369" lon="4.5626">
        <ele>111</ele>
        <time>2016-07-25T11:44:02.000Z</time>
      </trkpt>
      <trkpt lat="44.29368" lon="4.56261">
        <ele>113</ele>
        <time>2016-07-25T11:44:03.000Z</time>
      </trkpt>
      <trkpt lat="44.2936" lon="4.56265">
        <ele>119</ele>
        <time>2016-07-25T11:44:09.000Z</time>
      </trkpt>
      <trkpt lat="44.29359" lon="4.56264">
        <ele>121</ele>
        <time>2016-07-25T11:44:10.000Z</time>
      </trkpt>
      <trkpt lat="44.29351" lon="4.56268">
        <ele>120</ele>
        <time>2016-07-25T11:44:14.000Z</time>
      </trkpt>
      <trkpt lat="44.2935" lon="4.56269">
        <ele>120</ele>
        <time>2016-07-25T11:44:15.000Z</time>
      </trkpt>
      <trkpt lat="44.29341" lon="4.56273">
        <ele>124</ele>
        <time>2016-07-25T11:44:22.000Z</time>
      </trkpt>
      <trkpt lat="44.2934" lon="4.56274">
        <ele>126</ele>
        <time>2016-07-25T11:44:23.000Z</time>
      </trkpt>
      <trkpt lat="44.29332" lon="4.56276">
        <ele>126</ele>
        <time>2016-07-25T11:44:29.000Z</time>
      </trkpt>
      <trkpt lat="44.29329" lon="4.56276">
        <ele>126</ele>
        <time>2016-07-25T11:44:30.000Z</time>
      </trkpt>
      <trkpt lat="44.29322" lon="4.56277">
        <ele>128</ele>
        <time>2016-07-25T11:44:34.000Z</time>
      </trkpt>
      <trkpt lat="44.29319" lon="4.56277">
        <ele>126</ele>
        <time>2016-07-25T11:44:35.000Z</time>
      </trkpt>
      <trkpt lat="44.29312" lon="4.56276">
        <ele>128</ele>
        <time>2016-07-25T11:44:40.000Z</time>
      </trkpt>
      <trkpt lat="44.2931" lon="4.56275">
        <ele>129</ele>
        <time>2016-07-25T11:44:41.000Z</time>
      </trkpt>
      <trkpt lat="44.29303" lon="4.56272">
        <ele>128</ele>
        <time>2016-07-25T11:44:46.000Z</time>
      </trkpt>
      <trkpt lat="44.29301" lon="4.56271">
        <ele>129</ele>
        <time>2016-07-25T11:44:47.000Z</time>
      </trkpt>
      <trkpt lat="44.29293" lon="4.56267">
        <ele>132</ele>
        <time>2016-07-25T11:44:57.000Z</time>
      </trkpt>
      <trkpt lat="44.29292" lon="4.56266">
        <ele>131</ele>
        <time>2016-07-25T11:44:58.000Z</time>
      </trkpt>
      <trkpt lat="44.29284" lon="4.56263">
        <ele>128</ele>
        <time>2016-07-25T11:45:05.000Z</time>
      </trkpt>
      <trkpt lat="44.29283" lon="4.56263">
        <ele>128</ele>
        <time>2016-07-25T11:45:06.000Z</time>
      </trkpt>
      <trkpt lat="44.29274" lon="4.56261">
        <ele>129</ele>
        <time>2016-07-25T11:45:13.000Z</time>
      </trkpt>
      <trkpt lat="44.29273" lon="4.5626">
        <ele>129</ele>
        <time>2016-07-25T11:45:14.000Z</time>
      </trkpt>
      <trkpt lat="44.29265" lon="4.56256">
        <ele>128</ele>
        <time>2016-07-25T11:45:22.000Z</time>
      </trkpt>
      <trkpt lat="44.29264" lon="4.56256">
        <ele>128</ele>
        <time>2016-07-25T11:45:23.000Z</time>
      </trkpt>
      <trkpt lat="44.29255" lon="4.56254">
        <ele>130</ele>
        <time>2016-07-25T11:45:30.000Z</time>
      </trkpt>
      <trkpt lat="44.29253" lon="4.56253">
        <ele>131</ele>
        <time>2016-07-25T11:45:31.000Z</time>
      </trkpt>
      <trkpt lat="44.29246" lon="4.56247">
        <ele>132</ele>
        <time>2016-07-25T11:45:43.000Z</time>
      </trkpt>
      <trkpt lat="44.29245" lon="4.56247">
        <ele>132</ele>
        <time>2016-07-25T11:45:44.000Z</time>
      </trkpt>
      <trkpt lat="44.29238" lon="4.5625">
        <ele>130</ele>
        <time>2016-07-25T11:45:51.000Z</time>
      </trkpt>
      <trkpt lat="44.29236" lon="4.56251">
        <ele>129</ele>
        <time>2016-07-25T11:45:52.000Z</time>
      </trkpt>
      <trkpt lat="44.29229" lon="4.56255">
        <ele>129</ele>
        <time>2016-07-25T11:45:56.000Z</time>
      </trkpt>
      <trkpt lat="44.29225" lon="4.56257">
        <ele>128</ele>
        <time>2016-07-25T11:45:57.000Z</time>
      </trkpt>
      <trkpt lat="44.29219" lon="4.56265">
        <ele>129</ele>
        <time>2016-07-25T11:45:59.000Z</time>
      </trkpt>
      <trkpt lat="44.29214" lon="4.5627">
        <ele>130</ele>
        <time>2016-07-25T11:46:00.000Z</time>
      </trkpt>
      <trkpt lat="44.2921" lon="4.56273">
        <ele>131</ele>
        <time>2016-07-25T11:46:01.000Z</time>
      </trkpt>
      <trkpt lat="44.29205" lon="4.56275">
        <ele>132</ele>
        <time>2016-07-25T11:46:02.000Z</time>
      </trkpt>
      <trkpt lat="44.292" lon="4.56279">
        <ele>133</ele>
        <time>2016-07-25T11:46:03.000Z</time>
      </trkpt>
      <trkpt lat="44.29195" lon="4.56284">
        <ele>134</ele>
        <time>2016-07-25T11:46:04.000Z</time>
      </trkpt>
      <trkpt lat="44.2919" lon="4.56289">
        <ele>133</ele>
        <time>2016-07-25T11:46:05.000Z</time>
      </trkpt>
      <trkpt lat="44.29185" lon="4.56296">
        <ele>134</ele>
        <time>2016-07-25T11:46:06.000Z</time>
      </trkpt>
      <trkpt lat="44.2918" lon="4.56304">
        <ele>134</ele>
        <time>2016-07-25T11:46:07.000Z</time>
      </trkpt>
      <trkpt lat="44.29176" lon="4.56311">
        <ele>135</ele>
        <time>2016-07-25T11:46:08.000Z</time>
      </trkpt>
      <trkpt lat="44.29171" lon="4.56319">
        <ele>135</ele>
        <time>2016-07-25T11:46:09.000Z</time>
      </trkpt>
      <trkpt lat="44.29167" lon="4.56327">
        <ele>134</ele>
        <time>2016-07-25T11:46:10.000Z</time>
      </trkpt>
      <trkpt lat="44.29162" lon="4.56336">
        <ele>134</ele>
        <time>2016-07-25T11:46:11.000Z</time>
      </trkpt>
      <trkpt lat="44.29158" lon="4.56345">
        <ele>134</ele>
        <time>2016-07-25T11:46:12.000Z</time>
      </trkpt>
      <trkpt lat="44.29153" lon="4.56354">
        <ele>134</ele>
        <time>2016-07-25T11:46:13.000Z</time>
      </trkpt>
      <trkpt lat="44.29149" lon="4.56363">
        <ele>134</ele>
        <time>2016-07-25T11:46:14.000Z</time>
      </trkpt>
      <trkpt lat="44.29145" lon="4.56373">
        <ele>134</ele>
        <time>2016-07-25T11:46:15.000Z</time>
      </trkpt>
      <trkpt lat="44.2914" lon="4.56382">
        <ele>135</ele>
        <time>2016-07-25T11:46:16.000Z</time>
      </trkpt>
      <trkpt lat="44.29135" lon="4.56391">
        <ele>136</ele>
        <time>2016-07-25T11:46:17.000Z</time>
      </trkpt>
      <trkpt lat="44.2913" lon="4.56398">
        <ele>136</ele>
        <time>2016-07-25T11:46:18.000Z</time>
      </trkpt>
      <trkpt lat="44.29125" lon="4.56406">
        <ele>136</ele>
        <time>2016-07-25T11:46:19.000Z</time>
      </trkpt>
      <trkpt lat="44.29121" lon="4.56411">
        <ele>137</ele>
        <time>2016-07-25T11:46:20.000Z</time>
      </trkpt>
      <trkpt lat="44.29117" lon="4.56417">
        <ele>138</ele>
        <time>2016-07-25T11:46:21.000Z</time>
      </trkpt>
      <trkpt lat="44.29113" lon="4.56421">
        <ele>138</ele>
        <time>2016-07-25T11:46:22.000Z</time>
      </trkpt>
      <trkpt lat="44.29106" lon="4.56429">
        <ele>138</ele>
        <time>2016-07-25T11:46:25.000Z</time>
      </trkpt>
      <trkpt lat="44.29105" lon="4.56431">
        <ele>138</ele>
        <time>2016-07-25T11:46:26.000Z</time>
      </trkpt>
      <trkpt lat="44.291" lon="4.56437">
        <ele>139</ele>
        <time>2016-07-25T11:46:29.000Z</time>
      </trkpt>
      <trkpt lat="44.29098" lon="4.5644">
        <ele>139</ele>
        <time>2016-07-25T11:46:30.000Z</time>
      </trkpt>
      <trkpt lat="44.29093" lon="4.56447">
        <ele>139</ele>
        <time>2016-07-25T11:46:33.000Z</time>
      </trkpt>
      <trkpt lat="44.29091" lon="4.56449">
        <ele>139</ele>
        <time>2016-07-25T11:46:34.000Z</time>
      </trkpt>
      <trkpt lat="44.29085" lon="4.56456">
        <ele>139</ele>
        <time>2016-07-25T11:46:37.000Z</time>
      </trkpt>
      <trkpt lat="44.29083" lon="4.56457">
        <ele>139</ele>
        <time>2016-07-25T11:46:38.000Z</time>
      </trkpt>
      <trkpt lat="44.29077" lon="4.56466">
        <ele>138</ele>
        <time>2016-07-25T11:46:42.000Z</time>
      </trkpt>
      <trkpt lat="44.29075" lon="4.56469">
        <ele>138</ele>
        <time>2016-07-25T11:46:43.000Z</time>
      </trkpt>
      <trkpt lat="44.29069" lon="4.56478">
        <ele>140</ele>
        <time>2016-07-25T11:46:46.000Z</time>
      </trkpt>
      <trkpt lat="44.29068" lon="4.56481">
        <ele>140</ele>
        <time>2016-07-25T11:46:47.000Z</time>
      </trkpt>
      <trkpt lat="44.29063" lon="4.5649">
        <ele>142</ele>
        <time>2016-07-25T11:46:50.000Z</time>
      </trkpt>
      <trkpt lat="44.29062" lon="4.56492">
        <ele>143</ele>
        <time>2016-07-25T11:46:51.000Z</time>
      </trkpt>
      <trkpt lat="44.29058" lon="4.565">
        <ele>144</ele>
        <time>2016-07-25T11:46:54.000Z</time>
      </trkpt>
      <trkpt lat="44.29057" lon="4.56503">
        <ele>146</ele>
        <time>2016-07-25T11:46:55.000Z</time>
      </trkpt>
      <trkpt lat="44.29053" lon="4.56511">
        <ele>147</ele>
        <time>2016-07-25T11:46:59.000Z</time>
      </trkpt>
      <trkpt lat="44.29051" lon="4.56512">
        <ele>147</ele>
        <time>2016-07-25T11:47:00.000Z</time>
      </trkpt>
      <trkpt lat="44.29044" lon="4.56514">
        <ele>147</ele>
        <time>2016-07-25T11:47:04.000Z</time>
      </trkpt>
      <trkpt lat="44.29042" lon="4.56514">
        <ele>147</ele>
        <time>2016-07-25T11:47:05.000Z</time>
      </trkpt>
      <trkpt lat="44.29035" lon="4.56512">
        <ele>145</ele>
        <time>2016-07-25T11:47:08.000Z</time>
      </trkpt>
      <trkpt lat="44.29032" lon="4.56511">
        <ele>145</ele>
        <time>2016-07-25T11:47:09.000Z</time>
      </trkpt>
      <trkpt lat="44.29025" lon="4.5651">
        <ele>144</ele>
        <time>2016-07-25T11:47:12.000Z</time>
      </trkpt>
      <trkpt lat="44.29022" lon="4.5651">
        <ele>145</ele>
        <time>2016-07-25T11:47:13.000Z</time>
      </trkpt>
      <trkpt lat="44.29014" lon="4.56509">
        <ele>144</ele>
        <time>2016-07-25T11:47:16.000Z</time>
      </trkpt>
      <trkpt lat="44.29012" lon="4.56509">
        <ele>144</ele>
        <time>2016-07-25T11:47:17.000Z</time>
      </trkpt>
      <trkpt lat="44.29004" lon="4.56507">
        <ele>143</ele>
        <time>2016-07-25T11:47:20.000Z</time>
      </trkpt>
      <trkpt lat="44.29001" lon="4.56506">
        <ele>144</ele>
        <time>2016-07-25T11:47:21.000Z</time>
      </trkpt>
      <trkpt lat="44.28993" lon="4.56504">
        <ele>144</ele>
        <time>2016-07-25T11:47:25.000Z</time>
      </trkpt>
      <trkpt lat="44.28991" lon="4.56504">
        <ele>145</ele>
        <time>2016-07-25T11:47:26.000Z</time>
      </trkpt>
      <trkpt lat="44.28984" lon="4.56504">
        <ele>144</ele>
        <time>2016-07-25T11:47:29.000Z</time>
      </trkpt>
      <trkpt lat="44.28981" lon="4.56504">
        <ele>144</ele>
        <time>2016-07-25T11:47:30.000Z</time>
      </trkpt>
      <trkpt lat="44.28975" lon="4.56504">
        <ele>144</ele>
        <time>2016-07-25T11:47:33.000Z</time>
      </trkpt>
      <trkpt lat="44.28972" lon="4.56505">
        <ele>144</ele>
        <time>2016-07-25T11:47:34.000Z</time>
      </trkpt>
      <trkpt lat="44.28965" lon="4.56507">
        <ele>145</ele>
        <time>2016-07-25T11:47:37.000Z</time>
      </trkpt>
      <trkpt lat="44.28962" lon="4.56508">
        <ele>144</ele>
        <time>2016-07-25T11:47:38.000Z</time>
      </trkpt>
      <trkpt lat="44.28955" lon="4.56511">
        <ele>146</ele>
        <time>2016-07-25T11:47:41.000Z</time>
      </trkpt>
      <trkpt lat="44.28953" lon="4.56511">
        <ele>146</ele>
        <time>2016-07-25T11:47:42.000Z</time>
      </trkpt>
      <trkpt lat="44.28947" lon="4.56514">
        <ele>147</ele>
        <time>2016-07-25T11:47:45.000Z</time>
      </trkpt>
      <trkpt lat="44.28944" lon="4.56516">
        <ele>149</ele>
        <time>2016-07-25T11:47:46.000Z</time>
      </trkpt>
      <trkpt lat="44.28936" lon="4.56521">
        <ele>150</ele>
        <time>2016-07-25T11:47:50.000Z</time>
      </trkpt>
      <trkpt lat="44.28934" lon="4.56522">
        <ele>150</ele>
        <time>2016-07-25T11:47:51.000Z</time>
      </trkpt>
      <trkpt lat="44.28926" lon="4.56525">
        <ele>150</ele>
        <time>2016-07-25T11:47:54.000Z</time>
      </trkpt>
      <trkpt lat="44.28924" lon="4.56524">
        <ele>149</ele>
        <time>2016-07-25T11:47:55.000Z</time>
      </trkpt>
      <trkpt lat="44.28918" lon="4.56523">
        <ele>149</ele>
        <time>2016-07-25T11:47:58.000Z</time>
      </trkpt>
      <trkpt lat="44.28915" lon="4.56526">
        <ele>151</ele>
        <time>2016-07-25T11:47:59.000Z</time>
      </trkpt>
      <trkpt lat="44.28907" lon="4.56527">
        <ele>148</ele>
        <time>2016-07-25T11:48:02.000Z</time>
      </trkpt>
      <trkpt lat="44.28904" lon="4.56529">
        <ele>148</ele>
        <time>2016-07-25T11:48:03.000Z</time>
      </trkpt>
      <trkpt lat="44.28896" lon="4.5653">
        <ele>147</ele>
        <time>2016-07-25T11:48:07.000Z</time>
      </trkpt>
      <trkpt lat="44.28893" lon="4.56531">
        <ele>147</ele>
        <time>2016-07-25T11:48:08.000Z</time>
      </trkpt>
      <trkpt lat="44.28885" lon="4.56533">
        <ele>148</ele>
        <time>2016-07-25T11:48:11.000Z</time>
      </trkpt>
      <trkpt lat="44.28882" lon="4.56534">
        <ele>146</ele>
        <time>2016-07-25T11:48:12.000Z</time>
      </trkpt>
      <trkpt lat="44.28874" lon="4.56536">
        <ele>146</ele>
        <time>2016-07-25T11:48:17.000Z</time>
      </trkpt>
      <trkpt lat="44.28871" lon="4.56535">
        <ele>145</ele>
        <time>2016-07-25T11:48:18.000Z</time>
      </trkpt>
      <trkpt lat="44.28863" lon="4.56535">
        <ele>145</ele>
        <time>2016-07-25T11:48:22.000Z</time>
      </trkpt>
      <trkpt lat="44.28859" lon="4.56534">
        <ele>146</ele>
        <time>2016-07-25T11:48:23.000Z</time>
      </trkpt>
      <trkpt lat="44.28854" lon="4.56533">
        <ele>146</ele>
        <time>2016-07-25T11:48:25.000Z</time>
      </trkpt>
      <trkpt lat="44.28849" lon="4.56532">
        <ele>146</ele>
        <time>2016-07-25T11:48:26.000Z</time>
      </trkpt>
      <trkpt lat="44.28843" lon="4.5653">
        <ele>147</ele>
        <time>2016-07-25T11:48:28.000Z</time>
      </trkpt>
      <trkpt lat="44.28839" lon="4.56529">
        <ele>148</ele>
        <time>2016-07-25T11:48:29.000Z</time>
      </trkpt>
      <trkpt lat="44.28832" lon="4.56527">
        <ele>149</ele>
        <time>2016-07-25T11:48:31.000Z</time>
      </trkpt>
      <trkpt lat="44.28829" lon="4.56527">
        <ele>149</ele>
        <time>2016-07-25T11:48:32.000Z</time>
      </trkpt>
      <trkpt lat="44.28826" lon="4.5652">
        <ele>149</ele>
        <time>2016-07-25T11:48:35.000Z</time>
      </trkpt>
      <trkpt lat="44.28819" lon="4.56519">
        <ele>148</ele>
        <time>2016-07-25T11:48:36.000Z</time>
      </trkpt>
      <trkpt lat="44.28812" lon="4.56514">
        <ele>149</ele>
        <time>2016-07-25T11:48:38.000Z</time>
      </trkpt>
      <trkpt lat="44.28803" lon="4.56506">
        <ele>149</ele>
        <time>2016-07-25T11:48:41.000Z</time>
      </trkpt>
      <trkpt lat="44.28794" lon="4.56505">
        <ele>149</ele>
        <time>2016-07-25T11:48:43.000Z</time>
      </trkpt>
      <trkpt lat="44.28791" lon="4.56502">
        <ele>148</ele>
        <time>2016-07-25T11:48:44.000Z</time>
      </trkpt>
      <trkpt lat="44.28786" lon="4.56493">
        <ele>148</ele>
        <time>2016-07-25T11:48:48.000Z</time>
      </trkpt>
      <trkpt lat="44.28783" lon="4.56491">
        <ele>149</ele>
        <time>2016-07-25T11:48:49.000Z</time>
      </trkpt>
      <trkpt lat="44.28776" lon="4.56487">
        <ele>151</ele>
        <time>2016-07-25T11:48:52.000Z</time>
      </trkpt>
      <trkpt lat="44.28773" lon="4.56485">
        <ele>150</ele>
        <time>2016-07-25T11:48:53.000Z</time>
      </trkpt>
      <trkpt lat="44.28771" lon="4.56477">
        <ele>150</ele>
        <time>2016-07-25T11:48:57.000Z</time>
      </trkpt>
      <trkpt lat="44.28768" lon="4.56474">
        <ele>150</ele>
        <time>2016-07-25T11:48:58.000Z</time>
      </trkpt>
      <trkpt lat="44.2876" lon="4.5647">
        <ele>151</ele>
        <time>2016-07-25T11:49:01.000Z</time>
      </trkpt>
      <trkpt lat="44.28756" lon="4.56469">
        <ele>150</ele>
        <time>2016-07-25T11:49:02.000Z</time>
      </trkpt>
      <trkpt lat="44.2875" lon="4.56466">
        <ele>151</ele>
        <time>2016-07-25T11:49:04.000Z</time>
      </trkpt>
      <trkpt lat="44.28747" lon="4.56465">
        <ele>152</ele>
        <time>2016-07-25T11:49:05.000Z</time>
      </trkpt>
      <trkpt lat="44.28738" lon="4.56467">
        <ele>156</ele>
        <time>2016-07-25T11:49:09.000Z</time>
      </trkpt>
      <trkpt lat="44.28736" lon="4.56467">
        <ele>155</ele>
        <time>2016-07-25T11:49:10.000Z</time>
      </trkpt>
      <trkpt lat="44.28731" lon="4.56468">
        <ele>153</ele>
        <time>2016-07-25T11:49:11.000Z</time>
      </trkpt>
      <trkpt lat="44.28727" lon="4.56469">
        <ele>154</ele>
        <time>2016-07-25T11:49:12.000Z</time>
      </trkpt>
      <trkpt lat="44.28721" lon="4.56461">
        <ele>157</ele>
        <time>2016-07-25T11:49:15.000Z</time>
      </trkpt>
      <trkpt lat="44.28718" lon="4.56459">
        <ele>157</ele>
        <time>2016-07-25T11:49:16.000Z</time>
      </trkpt>
      <trkpt lat="44.2871" lon="4.56456">
        <ele>161</ele>
        <time>2016-07-25T11:49:18.000Z</time>
      </trkpt>
      <trkpt lat="44.28708" lon="4.56455">
        <ele>161</ele>
        <time>2016-07-25T11:49:19.000Z</time>
      </trkpt>
      <trkpt lat="44.28703" lon="4.56453">
        <ele>159</ele>
        <time>2016-07-25T11:49:21.000Z</time>
      </trkpt>
      <trkpt lat="44.28698" lon="4.56453">
        <ele>160</ele>
        <time>2016-07-25T11:49:22.000Z</time>
      </trkpt>
      <trkpt lat="44.28691" lon="4.56449">
        <ele>158</ele>
        <time>2016-07-25T11:49:25.000Z</time>
      </trkpt>
      <trkpt lat="44.2869" lon="4.56447">
        <ele>157</ele>
        <time>2016-07-25T11:49:26.000Z</time>
      </trkpt>
      <trkpt lat="44.28684" lon="4.56442">
        <ele>158</ele>
        <time>2016-07-25T11:49:29.000Z</time>
      </trkpt>
      <trkpt lat="44.28682" lon="4.56441">
        <ele>159</ele>
        <time>2016-07-25T11:49:30.000Z</time>
      </trkpt>
      <trkpt lat="44.28675" lon="4.56433">
        <ele>159</ele>
        <time>2016-07-25T11:49:33.000Z</time>
      </trkpt>
      <trkpt lat="44.28673" lon="4.5643">
        <ele>160</ele>
        <time>2016-07-25T11:49:34.000Z</time>
      </trkpt>
      <trkpt lat="44.28667" lon="4.56423">
        <ele>163</ele>
        <time>2016-07-25T11:49:37.000Z</time>
      </trkpt>
      <trkpt lat="44.28664" lon="4.5642">
        <ele>163</ele>
        <time>2016-07-25T11:49:38.000Z</time>
      </trkpt>
      <trkpt lat="44.28659" lon="4.56416">
        <ele>163</ele>
        <time>2016-07-25T11:49:40.000Z</time>
      </trkpt>
      <trkpt lat="44.28656" lon="4.56413">
        <ele>163</ele>
        <time>2016-07-25T11:49:41.000Z</time>
      </trkpt>
      <trkpt lat="44.28651" lon="4.56409">
        <ele>163</ele>
        <time>2016-07-25T11:49:43.000Z</time>
      </trkpt>
      <trkpt lat="44.28648" lon="4.56407">
        <ele>163</ele>
        <time>2016-07-25T11:49:44.000Z</time>
      </trkpt>
      <trkpt lat="44.28642" lon="4.56405">
        <ele>163</ele>
        <time>2016-07-25T11:49:46.000Z</time>
      </trkpt>
      <trkpt lat="44.28639" lon="4.56403">
        <ele>163</ele>
        <time>2016-07-25T11:49:47.000Z</time>
      </trkpt>
      <trkpt lat="44.28633" lon="4.564">
        <ele>164</ele>
        <time>2016-07-25T11:49:49.000Z</time>
      </trkpt>
      <trkpt lat="44.2863" lon="4.56399">
        <ele>163</ele>
        <time>2016-07-25T11:49:50.000Z</time>
      </trkpt>
      <trkpt lat="44.28622" lon="4.56393">
        <ele>164</ele>
        <time>2016-07-25T11:49:53.000Z</time>
      </trkpt>
      <trkpt lat="44.2862" lon="4.56391">
        <ele>164</ele>
        <time>2016-07-25T11:49:54.000Z</time>
      </trkpt>
      <trkpt lat="44.28615" lon="4.56386">
        <ele>163</ele>
        <time>2016-07-25T11:49:56.000Z</time>
      </trkpt>
      <trkpt lat="44.28612" lon="4.56383">
        <ele>162</ele>
        <time>2016-07-25T11:49:57.000Z</time>
      </trkpt>
      <trkpt lat="44.28607" lon="4.56377">
        <ele>162</ele>
        <time>2016-07-25T11:49:59.000Z</time>
      </trkpt>
      <trkpt lat="44.28605" lon="4.56375">
        <ele>163</ele>
        <time>2016-07-25T11:50:00.000Z</time>
      </trkpt>
      <trkpt lat="44.286" lon="4.56364">
        <ele>163</ele>
        <time>2016-07-25T11:50:03.000Z</time>
      </trkpt>
      <trkpt lat="44.28599" lon="4.56361">
        <ele>164</ele>
        <time>2016-07-25T11:50:04.000Z</time>
      </trkpt>
      <trkpt lat="44.28595" lon="4.56354">
        <ele>165</ele>
        <time>2016-07-25T11:50:06.000Z</time>
      </trkpt>
      <trkpt lat="44.28594" lon="4.5635">
        <ele>165</ele>
        <time>2016-07-25T11:50:07.000Z</time>
      </trkpt>
      <trkpt lat="44.2859" lon="4.56343">
        <ele>166</ele>
        <time>2016-07-25T11:50:09.000Z</time>
      </trkpt>
      <trkpt lat="44.28589" lon="4.56339">
        <ele>165</ele>
        <time>2016-07-25T11:50:10.000Z</time>
      </trkpt>
      <trkpt lat="44.28585" lon="4.5633">
        <ele>165</ele>
        <time>2016-07-25T11:50:12.000Z</time>
      </trkpt>
      <trkpt lat="44.28583" lon="4.56326">
        <ele>165</ele>
        <time>2016-07-25T11:50:13.000Z</time>
      </trkpt>
      <trkpt lat="44.28578" lon="4.5632">
        <ele>165</ele>
        <time>2016-07-25T11:50:15.000Z</time>
      </trkpt>
      <trkpt lat="44.28576" lon="4.56316">
        <ele>165</ele>
        <time>2016-07-25T11:50:16.000Z</time>
      </trkpt>
      <trkpt lat="44.28571" lon="4.5631">
        <ele>166</ele>
        <time>2016-07-25T11:50:18.000Z</time>
      </trkpt>
      <trkpt lat="44.28569" lon="4.56306">
        <ele>166</ele>
        <time>2016-07-25T11:50:19.000Z</time>
      </trkpt>
      <trkpt lat="44.28564" lon="4.56301">
        <ele>167</ele>
        <time>2016-07-25T11:50:21.000Z</time>
      </trkpt>
      <trkpt lat="44.28561" lon="4.56299">
        <ele>168</ele>
        <time>2016-07-25T11:50:22.000Z</time>
      </trkpt>
      <trkpt lat="44.28554" lon="4.56292">
        <ele>168</ele>
        <time>2016-07-25T11:50:25.000Z</time>
      </trkpt>
      <trkpt lat="44.28551" lon="4.5629">
        <ele>168</ele>
        <time>2016-07-25T11:50:26.000Z</time>
      </trkpt>
      <trkpt lat="44.28545" lon="4.56287">
        <ele>168</ele>
        <time>2016-07-25T11:50:28.000Z</time>
      </trkpt>
      <trkpt lat="44.28542" lon="4.56285">
        <ele>167</ele>
        <time>2016-07-25T11:50:29.000Z</time>
      </trkpt>
      <trkpt lat="44.28536" lon="4.56281">
        <ele>168</ele>
        <time>2016-07-25T11:50:31.000Z</time>
      </trkpt>
      <trkpt lat="44.28533" lon="4.56278">
        <ele>167</ele>
        <time>2016-07-25T11:50:32.000Z</time>
      </trkpt>
      <trkpt lat="44.28527" lon="4.56273">
        <ele>166</ele>
        <time>2016-07-25T11:50:34.000Z</time>
      </trkpt>
      <trkpt lat="44.28524" lon="4.5627">
        <ele>165</ele>
        <time>2016-07-25T11:50:35.000Z</time>
      </trkpt>
      <trkpt lat="44.28519" lon="4.56262">
        <ele>166</ele>
        <time>2016-07-25T11:50:38.000Z</time>
      </trkpt>
      <trkpt lat="44.28516" lon="4.5626">
        <ele>167</ele>
        <time>2016-07-25T11:50:39.000Z</time>
      </trkpt>
      <trkpt lat="44.28511" lon="4.56254">
        <ele>169</ele>
        <time>2016-07-25T11:50:41.000Z</time>
      </trkpt>
      <trkpt lat="44.28509" lon="4.56252">
        <ele>170</ele>
        <time>2016-07-25T11:50:42.000Z</time>
      </trkpt>
      <trkpt lat="44.28504" lon="4.56246">
        <ele>170</ele>
        <time>2016-07-25T11:50:44.000Z</time>
      </trkpt>
      <trkpt lat="44.28501" lon="4.56243">
        <ele>170</ele>
        <time>2016-07-25T11:50:45.000Z</time>
      </trkpt>
      <trkpt lat="44.28496" lon="4.56237">
        <ele>171</ele>
        <time>2016-07-25T11:50:47.000Z</time>
      </trkpt>
      <trkpt lat="44.28494" lon="4.56235">
        <ele>170</ele>
        <time>2016-07-25T11:50:48.000Z</time>
      </trkpt>
      <trkpt lat="44.28488" lon="4.5623">
        <ele>169</ele>
        <time>2016-07-25T11:50:50.000Z</time>
      </trkpt>
      <trkpt lat="44.28485" lon="4.56229">
        <ele>170</ele>
        <time>2016-07-25T11:50:51.000Z</time>
      </trkpt>
      <trkpt lat="44.28479" lon="4.56223">
        <ele>171</ele>
        <time>2016-07-25T11:50:53.000Z</time>
      </trkpt>
      <trkpt lat="44.28477" lon="4.5622">
        <ele>169</ele>
        <time>2016-07-25T11:50:54.000Z</time>
      </trkpt>
      <trkpt lat="44.28472" lon="4.56214">
        <ele>170</ele>
        <time>2016-07-25T11:50:56.000Z</time>
      </trkpt>
      <trkpt lat="44.28469" lon="4.56211">
        <ele>170</ele>
        <time>2016-07-25T11:50:57.000Z</time>
      </trkpt>
      <trkpt lat="44.28463" lon="4.56205">
        <ele>169</ele>
        <time>2016-07-25T11:50:59.000Z</time>
      </trkpt>
      <trkpt lat="44.28461" lon="4.56203">
        <ele>169</ele>
        <time>2016-07-25T11:51:00.000Z</time>
      </trkpt>
      <trkpt lat="44.28453" lon="4.56196">
        <ele>171</ele>
        <time>2016-07-25T11:51:03.000Z</time>
      </trkpt>
      <trkpt lat="44.2845" lon="4.56195">
        <ele>171</ele>
        <time>2016-07-25T11:51:04.000Z</time>
      </trkpt>
      <trkpt lat="44.28444" lon="4.56193">
        <ele>172</ele>
        <time>2016-07-25T11:51:06.000Z</time>
      </trkpt>
      <trkpt lat="44.28441" lon="4.56192">
        <ele>173</ele>
        <time>2016-07-25T11:51:07.000Z</time>
      </trkpt>
      <trkpt lat="44.28435" lon="4.56191">
        <ele>174</ele>
        <time>2016-07-25T11:51:09.000Z</time>
      </trkpt>
      <trkpt lat="44.28431" lon="4.56191">
        <ele>174</ele>
        <time>2016-07-25T11:51:10.000Z</time>
      </trkpt>
      <trkpt lat="44.28423" lon="4.56193">
        <ele>175</ele>
        <time>2016-07-25T11:51:13.000Z</time>
      </trkpt>
      <trkpt lat="44.28421" lon="4.56195">
        <ele>175</ele>
        <time>2016-07-25T11:51:14.000Z</time>
      </trkpt>
      <trkpt lat="44.28419" lon="4.56207">
        <ele>175</ele>
        <time>2016-07-25T11:51:17.000Z</time>
      </trkpt>
      <trkpt lat="44.28421" lon="4.5621">
        <ele>176</ele>
        <time>2016-07-25T11:51:18.000Z</time>
      </trkpt>
      <trkpt lat="44.28426" lon="4.56216">
        <ele>177</ele>
        <time>2016-07-25T11:51:20.000Z</time>
      </trkpt>
      <trkpt lat="44.28429" lon="4.56219">
        <ele>177</ele>
        <time>2016-07-25T11:51:21.000Z</time>
      </trkpt>
      <trkpt lat="44.28435" lon="4.56225">
        <ele>179</ele>
        <time>2016-07-25T11:51:23.000Z</time>
      </trkpt>
      <trkpt lat="44.28438" lon="4.56228">
        <ele>180</ele>
        <time>2016-07-25T11:51:24.000Z</time>
      </trkpt>
      <trkpt lat="44.28443" lon="4.56236">
        <ele>180</ele>
        <time>2016-07-25T11:51:26.000Z</time>
      </trkpt>
      <trkpt lat="44.28446" lon="4.56238">
        <ele>179</ele>
        <time>2016-07-25T11:51:27.000Z</time>
      </trkpt>
      <trkpt lat="44.28451" lon="4.56245">
        <ele>180</ele>
        <time>2016-07-25T11:51:29.000Z</time>
      </trkpt>
      <trkpt lat="44.28454" lon="4.56248">
        <ele>181</ele>
        <time>2016-07-25T11:51:30.000Z</time>
      </trkpt>
      <trkpt lat="44.2846" lon="4.56254">
        <ele>182</ele>
        <time>2016-07-25T11:51:32.000Z</time>
      </trkpt>
      <trkpt lat="44.28463" lon="4.56257">
        <ele>182</ele>
        <time>2016-07-25T11:51:33.000Z</time>
      </trkpt>
      <trkpt lat="44.28469" lon="4.56263">
        <ele>183</ele>
        <time>2016-07-25T11:51:35.000Z</time>
      </trkpt>
      <trkpt lat="44.28472" lon="4.56266">
        <ele>183</ele>
        <time>2016-07-25T11:51:36.000Z</time>
      </trkpt>
      <trkpt lat="44.28478" lon="4.56271">
        <ele>184</ele>
        <time>2016-07-25T11:51:38.000Z</time>
      </trkpt>
      <trkpt lat="44.28481" lon="4.56275">
        <ele>184</ele>
        <time>2016-07-25T11:51:39.000Z</time>
      </trkpt>
      <trkpt lat="44.28488" lon="4.56282">
        <ele>184</ele>
        <time>2016-07-25T11:51:41.000Z</time>
      </trkpt>
      <trkpt lat="44.28491" lon="4.56286">
        <ele>184</ele>
        <time>2016-07-25T11:51:42.000Z</time>
      </trkpt>
      <trkpt lat="44.28497" lon="4.56292">
        <ele>184</ele>
        <time>2016-07-25T11:51:44.000Z</time>
      </trkpt>
      <trkpt lat="44.28501" lon="4.56296">
        <ele>184</ele>
        <time>2016-07-25T11:51:45.000Z</time>
      </trkpt>
      <trkpt lat="44.28507" lon="4.56302">
        <ele>185</ele>
        <time>2016-07-25T11:51:47.000Z</time>
      </trkpt>
      <trkpt lat="44.2851" lon="4.56305">
        <ele>184</ele>
        <time>2016-07-25T11:51:48.000Z</time>
      </trkpt>
      <trkpt lat="44.28516" lon="4.56311">
        <ele>184</ele>
        <time>2016-07-25T11:51:50.000Z</time>
      </trkpt>
      <trkpt lat="44.28518" lon="4.56314">
        <ele>184</ele>
        <time>2016-07-25T11:51:51.000Z</time>
      </trkpt>
      <trkpt lat="44.28523" lon="4.5632">
        <ele>184</ele>
        <time>2016-07-25T11:51:53.000Z</time>
      </trkpt>
      <trkpt lat="44.28525" lon="4.56323">
        <ele>184</ele>
        <time>2016-07-25T11:51:54.000Z</time>
      </trkpt>
      <trkpt lat="44.28526" lon="4.56331">
        <ele>184</ele>
        <time>2016-07-25T11:51:56.000Z</time>
      </trkpt>
      <trkpt lat="44.28527" lon="4.56337">
        <ele>186</ele>
        <time>2016-07-25T11:51:57.000Z</time>
      </trkpt>
      <trkpt lat="44.28526" lon="4.56348">
        <ele>187</ele>
        <time>2016-07-25T11:51:59.000Z</time>
      </trkpt>
      <trkpt lat="44.28525" lon="4.56354">
        <ele>187</ele>
        <time>2016-07-25T11:52:00.000Z</time>
      </trkpt>
      <trkpt lat="44.28522" lon="4.56362">
        <ele>186</ele>
        <time>2016-07-25T11:52:02.000Z</time>
      </trkpt>
      <trkpt lat="44.28521" lon="4.56369">
        <ele>188</ele>
        <time>2016-07-25T11:52:03.000Z</time>
      </trkpt>
      <trkpt lat="44.2852" lon="4.5638">
        <ele>187</ele>
        <time>2016-07-25T11:52:05.000Z</time>
      </trkpt>
      <trkpt lat="44.28518" lon="4.56385">
        <ele>187</ele>
        <time>2016-07-25T11:52:06.000Z</time>
      </trkpt>
      <trkpt lat="44.28515" lon="4.56396">
        <ele>186</ele>
        <time>2016-07-25T11:52:08.000Z</time>
      </trkpt>
      <trkpt lat="44.28513" lon="4.56401">
        <ele>187</ele>
        <time>2016-07-25T11:52:09.000Z</time>
      </trkpt>
      <trkpt lat="44.28509" lon="4.5641">
        <ele>186</ele>
        <time>2016-07-25T11:52:11.000Z</time>
      </trkpt>
      <trkpt lat="44.28507" lon="4.56413">
        <ele>185</ele>
        <time>2016-07-25T11:52:12.000Z</time>
      </trkpt>
      <trkpt lat="44.28502" lon="4.56418">
        <ele>182</ele>
        <time>2016-07-25T11:52:16.000Z</time>
      </trkpt>
      <trkpt lat="44.285" lon="4.56421">
        <ele>182</ele>
        <time>2016-07-25T11:52:17.000Z</time>
      </trkpt>
      <trkpt lat="44.28495" lon="4.56421">
        <ele>181</ele>
        <time>2016-07-25T11:52:18.000Z</time>
      </trkpt>
      <trkpt lat="44.2849" lon="4.56421">
        <ele>180</ele>
        <time>2016-07-25T11:52:19.000Z</time>
      </trkpt>
      <trkpt lat="44.28482" lon="4.56418">
        <ele>180</ele>
        <time>2016-07-25T11:52:21.000Z</time>
      </trkpt>
      <trkpt lat="44.28477" lon="4.56417">
        <ele>181</ele>
        <time>2016-07-25T11:52:22.000Z</time>
      </trkpt>
      <trkpt lat="44.28471" lon="4.56412">
        <ele>179</ele>
        <time>2016-07-25T11:52:23.000Z</time>
      </trkpt>
      <trkpt lat="44.28465" lon="4.56407">
        <ele>178</ele>
        <time>2016-07-25T11:52:24.000Z</time>
      </trkpt>
      <trkpt lat="44.28459" lon="4.56402">
        <ele>178</ele>
        <time>2016-07-25T11:52:25.000Z</time>
      </trkpt>
      <trkpt lat="44.28453" lon="4.56396">
        <ele>178</ele>
        <time>2016-07-25T11:52:26.000Z</time>
      </trkpt>
      <trkpt lat="44.28447" lon="4.56388">
        <ele>177</ele>
        <time>2016-07-25T11:52:27.000Z</time>
      </trkpt>
      <trkpt lat="44.28442" lon="4.5638">
        <ele>176</ele>
        <time>2016-07-25T11:52:28.000Z</time>
      </trkpt>
      <trkpt lat="44.28435" lon="4.56374">
        <ele>175</ele>
        <time>2016-07-25T11:52:29.000Z</time>
      </trkpt>
      <trkpt lat="44.28428" lon="4.56367">
        <ele>175</ele>
        <time>2016-07-25T11:52:30.000Z</time>
      </trkpt>
      <trkpt lat="44.28421" lon="4.5636">
        <ele>174</ele>
        <time>2016-07-25T11:52:31.000Z</time>
      </trkpt>
      <trkpt lat="44.28415" lon="4.56352">
        <ele>174</ele>
        <time>2016-07-25T11:52:32.000Z</time>
      </trkpt>
      <trkpt lat="44.28409" lon="4.56344">
        <ele>174</ele>
        <time>2016-07-25T11:52:33.000Z</time>
      </trkpt>
      <trkpt lat="44.28402" lon="4.56337">
        <ele>175</ele>
        <time>2016-07-25T11:52:34.000Z</time>
      </trkpt>
      <trkpt lat="44.28397" lon="4.5633">
        <ele>175</ele>
        <time>2016-07-25T11:52:35.000Z</time>
      </trkpt>
      <trkpt lat="44.28391" lon="4.56324">
        <ele>175</ele>
        <time>2016-07-25T11:52:36.000Z</time>
      </trkpt>
      <trkpt lat="44.28387" lon="4.56317">
        <ele>175</ele>
        <time>2016-07-25T11:52:37.000Z</time>
      </trkpt>
      <trkpt lat="44.28382" lon="4.56311">
        <ele>175</ele>
        <time>2016-07-25T11:52:38.000Z</time>
      </trkpt>
      <trkpt lat="44.28377" lon="4.56304">
        <ele>174</ele>
        <time>2016-07-25T11:52:39.000Z</time>
      </trkpt>
      <trkpt lat="44.28371" lon="4.56299">
        <ele>173</ele>
        <time>2016-07-25T11:52:40.000Z</time>
      </trkpt>
      <trkpt lat="44.28366" lon="4.56294">
        <ele>172</ele>
        <time>2016-07-25T11:52:41.000Z</time>
      </trkpt>
      <trkpt lat="44.28361" lon="4.5629">
        <ele>172</ele>
        <time>2016-07-25T11:52:42.000Z</time>
      </trkpt>
      <trkpt lat="44.28356" lon="4.56285">
        <ele>172</ele>
        <time>2016-07-25T11:52:43.000Z</time>
      </trkpt>
      <trkpt lat="44.28352" lon="4.5628">
        <ele>172</ele>
        <time>2016-07-25T11:52:44.000Z</time>
      </trkpt>
      <trkpt lat="44.28348" lon="4.56274">
        <ele>170</ele>
        <time>2016-07-25T11:52:45.000Z</time>
      </trkpt>
      <trkpt lat="44.28344" lon="4.5627">
        <ele>170</ele>
        <time>2016-07-25T11:52:46.000Z</time>
      </trkpt>
      <trkpt lat="44.2834" lon="4.56266">
        <ele>170</ele>
        <time>2016-07-25T11:52:47.000Z</time>
      </trkpt>
      <trkpt lat="44.28336" lon="4.56263">
        <ele>170</ele>
        <time>2016-07-25T11:52:48.000Z</time>
      </trkpt>
      <trkpt lat="44.28331" lon="4.56257">
        <ele>170</ele>
        <time>2016-07-25T11:52:50.000Z</time>
      </trkpt>
      <trkpt lat="44.28328" lon="4.56254">
        <ele>171</ele>
        <time>2016-07-25T11:52:51.000Z</time>
      </trkpt>
      <trkpt lat="44.2832" lon="4.5625">
        <ele>172</ele>
        <time>2016-07-25T11:52:54.000Z</time>
      </trkpt>
      <trkpt lat="44.28317" lon="4.5625">
        <ele>172</ele>
        <time>2016-07-25T11:52:55.000Z</time>
      </trkpt>
      <trkpt lat="44.28311" lon="4.5625">
        <ele>173</ele>
        <time>2016-07-25T11:52:57.000Z</time>
      </trkpt>
      <trkpt lat="44.28308" lon="4.56251">
        <ele>173</ele>
        <time>2016-07-25T11:52:58.000Z</time>
      </trkpt>
      <trkpt lat="44.283" lon="4.56252">
        <ele>173</ele>
        <time>2016-07-25T11:53:00.000Z</time>
      </trkpt>
      <trkpt lat="44.28298" lon="4.56251">
        <ele>174</ele>
        <time>2016-07-25T11:53:01.000Z</time>
      </trkpt>
      <trkpt lat="44.28291" lon="4.56251">
        <ele>173</ele>
        <time>2016-07-25T11:53:03.000Z</time>
      </trkpt>
      <trkpt lat="44.28287" lon="4.5625">
        <ele>173</ele>
        <time>2016-07-25T11:53:04.000Z</time>
      </trkpt>
      <trkpt lat="44.2828" lon="4.56249">
        <ele>174</ele>
        <time>2016-07-25T11:53:06.000Z</time>
      </trkpt>
      <trkpt lat="44.28277" lon="4.56249">
        <ele>173</ele>
        <time>2016-07-25T11:53:07.000Z</time>
      </trkpt>
      <trkpt lat="44.28269" lon="4.56248">
        <ele>172</ele>
        <time>2016-07-25T11:53:09.000Z</time>
      </trkpt>
      <trkpt lat="44.28266" lon="4.56248">
        <ele>173</ele>
        <time>2016-07-25T11:53:10.000Z</time>
      </trkpt>
      <trkpt lat="44.28258" lon="4.56248">
        <ele>173</ele>
        <time>2016-07-25T11:53:12.000Z</time>
      </trkpt>
      <trkpt lat="44.28253" lon="4.5625">
        <ele>172</ele>
        <time>2016-07-25T11:53:13.000Z</time>
      </trkpt>
      <trkpt lat="44.28249" lon="4.56254">
        <ele>172</ele>
        <time>2016-07-25T11:53:14.000Z</time>
      </trkpt>
      <trkpt lat="44.28245" lon="4.5626">
        <ele>173</ele>
        <time>2016-07-25T11:53:15.000Z</time>
      </trkpt>
      <trkpt lat="44.2824" lon="4.5627">
        <ele>172</ele>
        <time>2016-07-25T11:53:17.000Z</time>
      </trkpt>
      <trkpt lat="44.28238" lon="4.56275">
        <ele>171</ele>
        <time>2016-07-25T11:53:18.000Z</time>
      </trkpt>
      <trkpt lat="44.28233" lon="4.56284">
        <ele>169</ele>
        <time>2016-07-25T11:53:21.000Z</time>
      </trkpt>
      <trkpt lat="44.28232" lon="4.56286">
        <ele>169</ele>
        <time>2016-07-25T11:53:22.000Z</time>
      </trkpt>
      <trkpt lat="44.28224" lon="4.56288">
        <ele>170</ele>
        <time>2016-07-25T11:53:27.000Z</time>
      </trkpt>
      <trkpt lat="44.28223" lon="4.56286">
        <ele>170</ele>
        <time>2016-07-25T11:53:28.000Z</time>
      </trkpt>
      <trkpt lat="44.28221" lon="4.56279">
        <ele>168</ele>
        <time>2016-07-25T11:53:49.000Z</time>
      </trkpt>
      <trkpt lat="44.28221" lon="4.56278">
        <ele>167</ele>
        <time>2016-07-25T11:53:50.000Z</time>
      </trkpt>
      <trkpt lat="44.28219" lon="4.56277">
        <ele>168</ele>
        <time>2016-07-25T11:54:01.098Z</time>
      </trkpt>
    </trkseg>
  </trk>
</gpx>